[[{"header":{"parameterUnit":"m.s-1","parameterCategory":1,"la1":31.0,"la2":29.5877,"lo1":-88.7671,"lo2":-86.6584,"dy":0.0162,"dx":0.0185,"nx":115,"ny":88,"refTime":"2024-09-22T00:00:00:Z","depth":0,"parameterNumber":2,"parameterNumberName":"U-component_of_WINDS"},"data":[0.0,0.0,0.0,0.0,0.0,0.0,0.0,0.0,0.0,0.0,0.0,0.0,0.0,0.0,0.0,0.0,0.0,0.0,0.0,0.0,0.0,0.0,0.0,0.0,0.0,0.0,0.0,0.0,0.0,0.0,0.0,0.0,0.0,0.0,0.0,0.0,0.0,0.0,0.0,0.0,0.0,0.0,0.0,0.0,0.0,0.0,0.0,0.0,0.0,0.0,0.0,0.0,0.0,0.0,0.0,0.0,0.0,0.0,0.0,0.0,0.0,0.0,0.0,0.0,0.0,0.0,0.0,0.0,0.0,0.0,0.0,0.0,0.0,0.0,0.0,0.0,0.0,0.0,0.0,0.0,0.0,0.0,0.0,0.0,0.0,0.0,0.0,0.0,0.0,0.0,0.0,0.0,0.0,0.0,0.0,0.0,0.0,0.0,0.0,0.0,0.0,0.0,0.0,0.0,0.0,0.0,0.0,0.0,0.0,0.0,0.0,0.0,0.0,0.0,0.0,0.0,0.0,0.0,0.0,0.0,0.0,0.0,0.0,0.0,0.0,0.0,0.0,0.0,0.0,0.0,0.0,0.0,0.0,0.0,0.0,0.0,0.0,0.0,0.0,0.0,0.0,0.0,0.0,0.0,0.0,0.0,0.0,0.0,0.0,0.0,0.0,0.0,0.0,0.0,0.0,0.0,0.0,0.0,0.0,0.0,0.0,0.0,0.0,0.0,0.0,0.0,0.0,0.0,0.0,0.0,0.0,0.0,0.0,0.0,0.0,0.0,0.0,0.0,0.0,0.0,0.0,0.0,0.0,0.0,0.0,0.0,0.0,0.0,0.0,0.0,0.0,0.0,0.0,0.0,0.0,0.0,0.0,0.0,0.0,0.0,0.0,0.0,0.0,0.0,0.0,0.0,0.0,0.0,0.0,0.0,0.0,0.0,0.0,0.0,0.0,0.0,0.0,0.0,0.0,0.0,0.0,0.0,0.0,0.0,0.0,0.0,0.0,0.0,0.0,0.0,0.0,0.0,0.0,0.0,0.0,0.0,0.0,0.0,0.0,0.0,0.0,0.0,0.0,0.0,0.0,0.0,0.0,0.0,0.0,0.0,0.0,0.0,0.0,0.0,0.0,0.0,0.0,0.0,0.0,0.0,0.0,0.0,0.0,0.0,0.0,0.0,0.0,0.0,0.0,0.0,0.0,0.0,0.0,0.0,0.0,0.0,0.0,0.0,0.0,0.0,0.0,0.0,0.0,0.0,0.0,0.0,0.0,0.0,0.0,0.0,0.0,0.0,0.0,0.0,0.0,0.0,0.0,0.0,0.0,0.0,0.0,0.0,0.0,0.0,0.0,0.0,0.0,0.0,0.0,0.0,0.0,0.0,0.0,0.0,0.0,0.0,0.0,0.0,0.0,0.0,0.0,0.0,0.0,0.0,0.0,0.0,0.0,0.0,0.0,0.0,0.0,0.0,0.0,0.0,0.0,0.0,0.0,0.0,0.0,0.0,0.0,0.0,0.0,0.0,0.0,0.0,0.0,0.0,0.0,0.0,0.0,0.0,0.0,0.0,0.0,0.0,0.0,0.0,0.0,0.0,0.0,0.0,0.0,0.0,0.0,0.0,0.0,0.0,0.0,0.0,0.0,0.0,0.0,0.0,0.0,0.0,0.0,0.0,0.0,0.0,0.0,0.0,0.0,0.0,0.0,0.0,0.0,0.0,0.0,0.0,0.0,0.0,0.0,0.0,0.0,0.0,0.0,0.0,0.0,0.0,0.0,0.0,0.0,0.0,0.0,0.0,0.0,0.0,0.0,0.0,0.0,0.0,0.0,0.0,0.0,0.0,0.0,0.0,0.0,0.0,0.0,0.0,0.0,0.0,0.0,0.0,0.0,0.0,0.0,0.0,0.0,0.0,0.0,0.0,0.0,0.0,0.0,0.0,0.0,0.0,0.0,0.0,0.0,0.0,0.0,0.0,0.0,0.0,0.0,0.0,0.0,0.0,0.0,0.0,0.0,0.0,0.0,0.0,0.0,0.0,0.0,0.0,0.0,0.0,0.0,0.0,0.0,0.0,0.0,0.0,0.0,0.0,0.0,0.0,0.0,0.0,0.0,0.0,0.0,0.0,0.0,0.0,0.0,0.0,0.0,0.0,0.0,0.0,0.0,0.0,0.0,0.0,0.0,0.0,0.0,0.0,0.0,0.0,0.0,0.0,0.0,0.0,0.0,0.0,0.0,0.0,0.0,0.0,0.0,0.0,0.0,0.0,0.0,0.0,0.0,0.0,0.0,0.0,0.0,0.0,0.0,0.0,0.0,0.0,0.0,0.0,0.0,0.0,0.0,0.0,0.0,0.0,0.0,0.0,0.0,0.0,0.0,0.0,0.0,0.0,0.0,0.0,0.0,0.0,0.0,0.0,0.0,0.0,0.0,0.0,0.0,0.0,0.0,0.0,0.0,0.0,0.0,0.0,0.0,0.0,0.0,0.0,0.0,0.0,0.0,0.0,0.0,0.0,0.0,0.0,0.0,0.0,0.0,0.0,0.0,0.0,0.0,0.0,0.0,0.0,0.0,0.0,0.0,0.0,0.0,0.0,0.0,0.0,0.0,0.0,0.0,0.0,0.0,0.0,0.0,0.0,0.0,0.0,0.0,0.0,0.0,0.0,0.0,0.0,0.0,0.0,0.0,0.0,0.0,0.0,0.0,0.0,0.0,0.0,0.0,0.0,0.0,0.0,0.0,0.0,0.0,0.0,0.0,0.0,0.0,0.0,0.0,0.0,0.0,0.0,0.0,0.0,0.0,0.0,0.0,0.0,0.0,0.0,0.0,0.0,0.0,0.0,0.0,0.0,0.0,0.0,0.0,0.0,0.0,0.0,0.0,0.0,0.0,0.0,0.0,0.0,0.0,0.0,0.0,0.0,0.0,0.0,0.0,0.0,0.0,0.0,0.0,0.0,0.0,0.0,0.0,0.0,0.0,0.0,0.0,0.0,0.0,0.0,0.0,0.0,0.0,0.0,0.0,0.0,0.0,0.0,0.0,0.0,0.0,0.0,0.0,0.0,0.0,0.0,0.0,0.0,0.0,0.0,0.0,0.0,0.0,0.0,0.0,0.0,0.0,0.0,0.0,0.0,0.0,0.0,0.0,0.0,0.0,0.0,0.0,0.0,0.0,0.0,0.0,0.0,0.0,0.0,0.0,0.0,0.0,0.0,0.0,0.0,0.0,0.0,0.0,0.0,0.0,0.0,0.0,0.0,0.0,0.0,0.0,0.0,0.0,0.0,0.0,0.0,0.0,0.0,0.0,0.0,0.0,0.0,0.0,0.0,0.0,0.0,0.0,0.0,0.0,0.0,0.0,0.0,0.0,0.0,0.0,0.0,0.0,0.0,0.0,0.0,0.0,0.0,0.0,0.0,0.0,0.0,0.0,0.0,0.0,0.0,0.0,0.0,0.0,0.0,0.0,0.0,0.0,0.0,0.0,0.0,0.0,0.0,0.0,0.0,0.0,0.0,0.0,0.0,0.0,0.0,0.0,0.0,0.0,0.0,0.0,0.0,0.0,0.0,0.0,0.0,0.0,0.0,0.0,0.0,0.0,0.0,0.0,0.0,0.0,0.0,0.0,0.0,0.0,0.0,0.0,0.0,0.0,0.0,0.0,0.0,0.0,0.0,0.0,0.0,0.0,0.0,0.0,0.0,0.0,0.0,0.0,0.0,0.0,0.0,0.0,0.0,0.0,0.0,0.0,0.0,0.0,0.0,0.0,0.0,0.0,0.0,0.0,0.0,0.0,0.0,0.0,0.0,0.0,0.0,0.0,0.0,0.0,0.0,0.0,0.0,0.0,0.0,0.0,0.0,0.0,0.0,0.0,0.0,0.0,0.0,0.0,0.0,0.0,0.0,0.0,0.0,0.0,0.0,0.0,0.0,0.0,0.0,0.0,0.0,0.0,0.0,0.0,0.0,0.0,0.0,0.0,0.0,0.0,0.0,0.0,0.0,0.0,0.0,0.0,0.0,0.0,0.0,0.0,0.0,0.0,0.0,0.0,0.0,0.0,0.0,0.0,0.0,0.0,0.0,0.0,0.0,0.0,0.0,0.0,0.0,0.0,0.0,0.0,0.0,0.0,0.0,0.0,0.0,0.0,0.0,0.0,0.0,0.0,0.0,0.0,0.0,0.0,0.0,0.0,0.0,0.0,0.0,0.0,0.0,0.0,0.0,0.0,0.0,0.0,0.0,0.0,0.0,0.0,0.0,0.0,0.0,0.0,0.0,-2.4434,0.0,0.0,0.0,0.0,0.0,0.0,0.0,0.0,0.0,0.0,0.0,0.0,0.0,0.0,0.0,0.0,0.0,0.0,0.0,0.0,0.0,0.0,0.0,0.0,0.0,0.0,0.0,0.0,0.0,0.0,0.0,0.0,0.0,0.0,0.0,0.0,0.0,0.0,0.0,0.0,0.0,0.0,0.0,0.0,0.0,0.0,0.0,0.0,0.0,0.0,0.0,0.0,0.0,0.0,0.0,0.0,0.0,0.0,0.0,0.0,0.0,0.0,0.0,0.0,0.0,0.0,0.0,0.0,0.0,0.0,0.0,0.0,0.0,0.0,0.0,0.0,0.0,0.0,0.0,0.0,0.0,0.0,0.0,0.0,0.0,0.0,0.0,0.0,0.0,0.0,0.0,0.0,0.0,0.0,0.0,0.0,0.0,0.0,0.0,0.0,0.0,0.0,0.0,0.0,0.0,0.0,0.0,0.0,0.0,0.0,-2.5508,-2.5484,-2.5535,-2.5169,-2.437,0.0,0.0,0.0,0.0,0.0,0.0,0.0,0.0,0.0,0.0,0.0,0.0,0.0,0.0,0.0,0.0,0.0,0.0,0.0,0.0,0.0,0.0,0.0,0.0,0.0,0.0,0.0,0.0,0.0,0.0,0.0,0.0,0.0,0.0,0.0,0.0,0.0,0.0,0.0,0.0,0.0,0.0,0.0,0.0,0.0,0.0,0.0,0.0,0.0,0.0,0.0,0.0,0.0,0.0,0.0,0.0,0.0,0.0,0.0,0.0,0.0,0.0,0.0,0.0,0.0,0.0,0.0,0.0,0.0,0.0,0.0,0.0,0.0,0.0,0.0,0.0,0.0,0.0,0.0,0.0,0.0,0.0,0.0,0.0,0.0,0.0,0.0,0.0,0.0,0.0,0.0,0.0,0.0,0.0,0.0,0.0,0.0,0.0,0.0,0.0,0.0,0.0,0.0,0.0,0.0,0.0,0.0,0.0,0.0,0.0,0.0,0.0,-2.6033,-2.559,-2.4596,0.0,0.0,0.0,0.0,0.0,0.0,0.0,0.0,0.0,0.0,0.0,0.0,0.0,0.0,0.0,0.0,0.0,0.0,0.0,0.0,0.0,0.0,0.0,0.0,0.0,0.0,0.0,0.0,0.0,0.0,0.0,0.0,0.0,0.0,0.0,0.0,0.0,0.0,0.0,0.0,0.0,0.0,0.0,0.0,0.0,0.0,0.0,0.0,0.0,0.0,0.0,0.0,0.0,0.0,0.0,0.0,0.0,0.0,0.0,0.0,0.0,0.0,0.0,0.0,0.0,0.0,0.0,0.0,0.0,0.0,0.0,0.0,0.0,0.0,0.0,0.0,0.0,0.0,0.0,0.0,0.0,0.0,0.0,0.0,0.0,0.0,0.0,0.0,0.0,0.0,0.0,0.0,0.0,0.0,0.0,0.0,0.0,0.0,0.0,0.0,0.0,0.0,0.0,0.0,0.0,0.0,0.0,0.0,0.0,0.0,-2.6081,-2.7713,-2.7725,0.0,-2.5479,0.0,0.0,0.0,0.0,0.0,0.0,0.0,0.0,0.0,0.0,0.0,0.0,0.0,0.0,0.0,0.0,0.0,0.0,0.0,0.0,0.0,0.0,0.0,0.0,0.0,0.0,0.0,0.0,0.0,0.0,0.0,0.0,0.0,0.0,0.0,0.0,0.0,0.0,0.0,0.0,0.0,0.0,0.0,0.0,0.0,0.0,0.0,0.0,0.0,0.0,0.0,0.0,0.0,0.0,0.0,0.0,0.0,0.0,0.0,0.0,0.0,0.0,0.0,0.0,0.0,0.0,0.0,0.0,0.0,0.0,0.0,0.0,0.0,0.0,0.0,0.0,0.0,0.0,0.0,0.0,0.0,0.0,0.0,0.0,0.0,0.0,0.0,0.0,0.0,0.0,0.0,0.0,0.0,0.0,0.0,0.0,0.0,0.0,0.0,0.0,0.0,0.0,0.0,0.0,0.0,0.0,0.0,0.0,0.0,0.0,0.0,-2.7928,-2.6944,-2.5637,0.0,0.0,0.0,0.0,0.0,0.0,0.0,0.0,0.0,0.0,0.0,0.0,0.0,0.0,0.0,0.0,0.0,0.0,0.0,0.0,0.0,0.0,0.0,0.0,0.0,0.0,0.0,0.0,0.0,0.0,0.0,0.0,0.0,0.0,0.0,0.0,0.0,0.0,0.0,0.0,0.0,0.0,0.0,0.0,0.0,0.0,0.0,0.0,0.0,0.0,0.0,0.0,0.0,0.0,0.0,0.0,0.0,0.0,0.0,0.0,0.0,0.0,0.0,0.0,0.0,0.0,0.0,0.0,0.0,0.0,0.0,0.0,0.0,0.0,0.0,0.0,0.0,0.0,0.0,0.0,0.0,0.0,0.0,0.0,0.0,0.0,0.0,0.0,0.0,0.0,0.0,0.0,0.0,0.0,0.0,0.0,0.0,0.0,0.0,0.0,0.0,0.0,0.0,0.0,0.0,0.0,0.0,0.0,0.0,0.0,-2.6606,0.0,-2.7838,-2.6909,-2.5254,-2.2936,0.0,0.0,0.0,0.0,0.0,0.0,0.0,0.0,0.0,0.0,0.0,0.0,0.0,0.0,0.0,0.0,0.0,0.0,0.0,0.0,0.0,0.0,0.0,0.0,0.0,0.0,0.0,0.0,0.0,0.0,0.0,0.0,0.0,0.0,0.0,0.0,0.0,0.0,0.0,0.0,0.0,0.0,0.0,0.0,0.0,0.0,0.0,0.0,0.0,0.0,0.0,0.0,0.0,0.0,0.0,0.0,0.0,0.0,0.0,0.0,0.0,0.0,0.0,0.0,0.0,0.0,0.0,0.0,0.0,0.0,0.0,0.0,0.0,0.0,0.0,0.0,0.0,0.0,0.0,0.0,0.0,0.0,0.0,0.0,0.0,0.0,0.0,0.0,0.0,0.0,0.0,0.0,0.0,0.0,0.0,0.0,0.0,0.0,0.0,0.0,0.0,0.0,0.0,0.0,0.0,0.0,0.0,0.0,0.0,-2.6577,-2.6236,-2.789,-2.8549,-2.6991,0.0,0.0,0.0,0.0,0.0,0.0,0.0,0.0,0.0,0.0,0.0,0.0,0.0,0.0,0.0,0.0,0.0,0.0,0.0,0.0,0.0,0.0,0.0,0.0,0.0,0.0,0.0,0.0,0.0,0.0,0.0,0.0,0.0,0.0,0.0,0.0,0.0,0.0,0.0,0.0,0.0,0.0,0.0,0.0,0.0,0.0,0.0,0.0,0.0,0.0,0.0,0.0,0.0,0.0,0.0,0.0,0.0,0.0,0.0,0.0,0.0,0.0,0.0,0.0,0.0,0.0,0.0,0.0,0.0,0.0,0.0,0.0,0.0,0.0,0.0,0.0,0.0,0.0,0.0,0.0,0.0,0.0,0.0,0.0,0.0,0.0,0.0,0.0,0.0,0.0,0.0,0.0,0.0,0.0,0.0,0.0,0.0,0.0,0.0,0.0,0.0,0.0,0.0,0.0,0.0,0.0,0.0,0.0,0.0,-2.4178,-2.4923,-2.6654,-2.9269,-2.6645,-2.4356,0.0,0.0,0.0,0.0,0.0,0.0,0.0,0.0,0.0,0.0,0.0,0.0,0.0,0.0,0.0,0.0,0.0,0.0,0.0,0.0,0.0,0.0,0.0,0.0,0.0,0.0,0.0,0.0,0.0,0.0,0.0,0.0,0.0,0.0,0.0,0.0,0.0,0.0,0.0,0.0,0.0,0.0,0.0,0.0,0.0,0.0,0.0,0.0,0.0,0.0,0.0,0.0,0.0,0.0,0.0,0.0,0.0,0.0,0.0,0.0,0.0,0.0,0.0,0.0,0.0,0.0,0.0,0.0,0.0,0.0,0.0,0.0,0.0,0.0,0.0,0.0,0.0,0.0,0.0,0.0,0.0,0.0,0.0,0.0,0.0,0.0,0.0,0.0,0.0,0.0,0.0,0.0,0.0,0.0,0.0,0.0,0.0,0.0,0.0,0.0,0.0,0.0,0.0,0.0,0.0,0.0,0.0,0.0,0.0,-2.2769,0.0,-2.7558,0.0,-2.5423,-2.2831,0.0,0.0,0.0,0.0,0.0,0.0,0.0,0.0,0.0,0.0,0.0,0.0,0.0,0.0,0.0,0.0,0.0,0.0,0.0,0.0,0.0,0.0,0.0,0.0,0.0,0.0,0.0,0.0,0.0,0.0,0.0,0.0,0.0,0.0,0.0,0.0,0.0,0.0,0.0,0.0,0.0,0.0,0.0,0.0,0.0,0.0,0.0,0.0,0.0,0.0,0.0,0.0,0.0,0.0,0.0,0.0,0.0,0.0,0.0,0.0,0.0,0.0,0.0,0.0,0.0,0.0,0.0,0.0,0.0,0.0,0.0,0.0,0.0,0.0,0.0,0.0,0.0,0.0,0.0,0.0,0.0,0.0,0.0,0.0,0.0,0.0,0.0,0.0,0.0,0.0,0.0,0.0,0.0,0.0,0.0,0.0,0.0,0.0,0.0,0.0,0.0,0.0,0.0,0.0,0.0,0.0,0.0,0.0,-2.1966,-2.5192,-2.8404,-2.8558,-2.5534,-2.5212,-2.2846,0.0,0.0,0.0,0.0,0.0,0.0,0.0,0.0,0.0,0.0,0.0,0.0,0.0,0.0,0.0,0.0,0.0,0.0,0.0,0.0,0.0,0.0,0.0,0.0,0.0,0.0,0.0,0.0,0.0,0.0,0.0,0.0,0.0,0.0,0.0,0.0,0.0,0.0,0.0,0.0,0.0,0.0,0.0,0.0,0.0,0.0,0.0,0.0,0.0,0.0,0.0,0.0,0.0,0.0,0.0,0.0,0.0,0.0,0.0,0.0,0.0,0.0,0.0,0.0,0.0,0.0,0.0,0.0,0.0,0.0,0.0,0.0,0.0,0.0,0.0,0.0,0.0,0.0,0.0,0.0,0.0,0.0,0.0,0.0,0.0,0.0,0.0,0.0,0.0,0.0,0.0,0.0,0.0,0.0,0.0,0.0,0.0,0.0,0.0,0.0,0.0,0.0,0.0,0.0,0.0,0.0,0.0,0.0,0.0,-2.4452,-2.5491,-2.6664,-2.7717,-2.3966,-2.1658,0.0,0.0,0.0,0.0,0.0,0.0,0.0,0.0,0.0,0.0,0.0,0.0,0.0,0.0,0.0,0.0,0.0,0.0,0.0,0.0,0.0,0.0,0.0,0.0,0.0,0.0,0.0,0.0,0.0,0.0,0.0,0.0,0.0,0.0,0.0,0.0,0.0,0.0,0.0,0.0,0.0,0.0,0.0,0.0,0.0,0.0,0.0,0.0,0.0,0.0,0.0,0.0,0.0,0.0,0.0,0.0,0.0,0.0,0.0,0.0,0.0,0.0,0.0,0.0,0.0,0.0,0.0,0.0,0.0,0.0,0.0,0.0,0.0,0.0,0.0,0.0,0.0,0.0,0.0,0.0,0.0,0.0,0.0,0.0,0.0,0.0,0.0,0.0,0.0,0.0,0.0,0.0,0.0,0.0,0.0,0.0,0.0,0.0,0.0,0.0,0.0,0.0,0.0,0.0,0.0,0.0,0.0,0.0,0.0,-2.4822,-2.557,-2.6664,-2.8145,-2.3971,-2.1754,-2.1793,0.0,0.0,0.0,0.0,0.0,0.0,0.0,0.0,0.0,0.0,0.0,0.0,0.0,0.0,0.0,0.0,0.0,0.0,0.0,0.0,0.0,0.0,0.0,0.0,0.0,0.0,0.0,0.0,0.0,0.0,0.0,0.0,0.0,0.0,0.0,0.0,0.0,0.0,0.0,0.0,0.0,0.0,0.0,0.0,0.0,0.0,0.0,0.0,0.0,0.0,0.0,0.0,0.0,0.0,0.0,0.0,0.0,0.0,0.0,0.0,0.0,0.0,0.0,0.0,0.0,0.0,0.0,0.0,0.0,0.0,0.0,0.0,0.0,0.0,0.0,0.0,0.0,0.0,0.0,0.0,0.0,0.0,0.0,0.0,0.0,0.0,0.0,0.0,0.0,0.0,0.0,0.0,0.0,0.0,0.0,0.0,0.0,0.0,0.0,0.0,0.0,0.0,0.0,0.0,0.0,0.0,0.0,0.0,-2.6061,-2.8039,-2.833,-2.6893,-2.5096,-2.3009,0.0,0.0,0.0,0.0,0.0,0.0,0.0,0.0,0.0,0.0,0.0,0.0,0.0,0.0,0.0,0.0,0.0,0.0,0.0,0.0,0.0,0.0,0.0,0.0,0.0,0.0,0.0,0.0,0.0,0.0,0.0,0.0,0.0,0.0,0.0,0.0,0.0,0.0,0.0,0.0,0.0,0.0,0.0,0.0,0.0,0.0,0.0,0.0,0.0,0.0,0.0,0.0,0.0,0.0,0.0,0.0,0.0,0.0,0.0,0.0,0.0,0.0,0.0,0.0,0.0,0.0,0.0,0.0,0.0,0.0,0.0,0.0,0.0,0.0,0.0,0.0,0.0,0.0,0.0,0.0,0.0,0.0,0.0,0.0,0.0,0.0,0.0,0.0,0.0,0.0,0.0,0.0,0.0,0.0,0.0,0.0,0.0,0.0,0.0,0.0,0.0,0.0,0.0,0.0,0.0,0.0,0.0,0.0,0.0,-2.6819,-2.8006,-2.8752,-2.902,-2.6417,-2.4409,0.0,0.0,0.0,0.0,0.0,0.0,0.0,0.0,0.0,0.0,0.0,0.0,0.0,0.0,0.0,0.0,0.0,0.0,0.0,0.0,0.0,0.0,0.0,0.0,0.0,0.0,0.0,0.0,0.0,0.0,0.0,0.0,0.0,0.0,0.0,0.0,0.0,0.0,0.0,0.0,0.0,0.0,0.0,0.0,0.0,0.0,0.0,0.0,0.0,0.0,0.0,0.0,0.0,0.0,0.0,0.0,0.0,0.0,0.0,0.0,0.0,0.0,0.0,0.0,0.0,0.0,0.0,0.0,0.0,0.0,0.0,0.0,0.0,0.0,0.0,0.0,0.0,0.0,0.0,0.0,0.0,0.0,0.0,0.0,0.0,0.0,0.0,0.0,0.0,0.0,0.0,0.0,0.0,0.0,0.0,0.0,0.0,0.0,0.0,0.0,0.0,0.0,0.0,0.0,0.0,0.0,0.0,0.0,-2.5233,-2.6915,-2.8263,-2.9204,-2.9738,-2.7388,-2.5398,0.0,0.0,0.0,0.0,0.0,0.0,0.0,0.0,0.0,0.0,0.0,0.0,0.0,0.0,0.0,0.0,0.0,0.0,0.0,0.0,0.0,0.0,0.0,0.0,0.0,0.0,0.0,0.0,0.0,0.0,0.0,0.0,0.0,0.0,0.0,0.0,0.0,0.0,0.0,0.0,0.0,0.0,0.0,0.0,0.0,0.0,0.0,0.0,0.0,0.0,0.0,0.0,0.0,0.0,0.0,0.0,0.0,0.0,0.0,0.0,0.0,0.0,0.0,0.0,0.0,0.0,0.0,0.0,0.0,0.0,0.0,0.0,0.0,0.0,0.0,0.0,0.0,0.0,0.0,0.0,0.0,0.0,0.0,0.0,0.0,0.0,0.0,0.0,0.0,0.0,0.0,0.0,0.0,0.0,0.0,0.0,0.0,0.0,0.0,0.0,0.0,0.0,0.0,0.0,0.0,0.0,0.0,0.0,-2.5968,-2.6623,-2.8586,-2.9542,-2.9326,-2.7949,-2.609,0.0,0.0,0.0,0.0,0.0,0.0,0.0,0.0,0.0,0.0,0.0,0.0,0.0,0.0,0.0,0.0,0.0,0.0,0.0,0.0,0.0,0.0,0.0,0.0,0.0,0.0,0.0,0.0,0.0,0.0,0.0,0.0,0.0,0.0,0.0,0.0,0.0,0.0,0.0,0.0,0.0,0.0,0.0,0.0,0.0,0.0,0.0,0.0,0.0,0.0,0.0,0.0,0.0,0.0,0.0,0.0,0.0,0.0,0.0,0.0,0.0,0.0,0.0,0.0,0.0,0.0,0.0,0.0,0.0,0.0,0.0,0.0,0.0,0.0,0.0,0.0,0.0,0.0,0.0,0.0,0.0,0.0,0.0,0.0,0.0,0.0,0.0,0.0,0.0,0.0,0.0,0.0,0.0,0.0,0.0,0.0,0.0,0.0,0.0,0.0,0.0,0.0,0.0,0.0,0.0,0.0,0.0,0.0,-2.5821,-2.6612,-2.8264,-2.9127,-2.9071,-2.7867,-2.6348,0.0,0.0,0.0,0.0,0.0,0.0,0.0,0.0,0.0,0.0,0.0,0.0,0.0,0.0,0.0,0.0,0.0,0.0,0.0,0.0,0.0,0.0,0.0,0.0,0.0,0.0,0.0,0.0,0.0,0.0,0.0,0.0,0.0,0.0,0.0,0.0,0.0,0.0,0.0,0.0,0.0,0.0,0.0,0.0,0.0,0.0,0.0,0.0,-1.9334,0.0,0.0,0.0,0.0,0.0,0.0,0.0,0.0,0.0,0.0,0.0,0.0,0.0,0.0,0.0,0.0,0.0,0.0,0.0,0.0,0.0,0.0,0.0,0.0,0.0,0.0,0.0,0.0,0.0,0.0,0.0,0.0,0.0,0.0,0.0,0.0,0.0,0.0,0.0,0.0,0.0,0.0,0.0,0.0,0.0,0.0,0.0,0.0,0.0,0.0,0.0,0.0,0.0,0.0,0.0,0.0,0.0,0.0,0.0,-2.6172,-2.662,-2.818,-2.8822,-2.8429,-2.7461,-2.6179,0.0,0.0,0.0,0.0,0.0,0.0,0.0,0.0,0.0,0.0,0.0,0.0,0.0,0.0,0.0,0.0,0.0,0.0,0.0,0.0,0.0,0.0,0.0,0.0,0.0,0.0,0.0,0.0,0.0,0.0,0.0,0.0,0.0,0.0,0.0,0.0,0.0,0.0,0.0,0.0,0.0,0.0,0.0,0.0,0.0,0.0,0.0,0.0,0.0,0.0,0.0,0.0,0.0,0.0,0.0,0.0,0.0,0.0,0.0,0.0,0.0,0.0,0.0,0.0,0.0,0.0,0.0,0.0,0.0,0.0,0.0,0.0,0.0,0.0,0.0,0.0,0.0,0.0,0.0,0.0,0.0,0.0,0.0,0.0,0.0,0.0,0.0,0.0,0.0,0.0,0.0,0.0,0.0,0.0,0.0,0.0,0.0,0.0,0.0,0.0,0.0,0.0,0.0,0.0,0.0,0.0,0.0,-2.3896,-2.6161,-2.6455,-2.7868,-2.8308,-2.7633,-2.6833,-2.5603,-2.3859,0.0,0.0,0.0,0.0,0.0,0.0,0.0,0.0,0.0,0.0,0.0,0.0,0.0,0.0,0.0,0.0,0.0,0.0,0.0,0.0,0.0,0.0,0.0,0.0,0.0,0.0,0.0,0.0,0.0,0.0,0.0,0.0,0.0,0.0,0.0,0.0,0.0,0.0,-1.7263,-1.9035,0.0,0.0,0.0,0.0,0.0,0.0,0.0,0.0,-2.1004,0.0,0.0,0.0,0.0,0.0,0.0,0.0,0.0,0.0,0.0,0.0,0.0,0.0,0.0,0.0,0.0,0.0,0.0,0.0,0.0,0.0,0.0,0.0,0.0,0.0,0.0,0.0,0.0,0.0,0.0,0.0,0.0,0.0,0.0,0.0,0.0,0.0,0.0,0.0,0.0,0.0,0.0,0.0,0.0,0.0,0.0,0.0,0.0,0.0,0.0,0.0,0.0,0.0,0.0,0.0,0.0,-2.1372,-2.285,-2.4226,-2.5576,-2.6521,-2.6932,-2.6778,-2.6025,-2.453,-2.2253,0.0,0.0,0.0,0.0,0.0,0.0,0.0,0.0,0.0,0.0,0.0,0.0,0.0,0.0,0.0,0.0,0.0,0.0,0.0,0.0,0.0,0.0,0.0,0.0,0.0,0.0,0.0,0.0,0.0,0.0,0.0,0.0,0.0,0.0,0.0,0.0,0.0,0.0,0.0,-2.0224,-2.0682,0.0,0.0,0.0,0.0,0.0,0.0,0.0,0.0,-2.0317,0.0,0.0,0.0,0.0,0.0,0.0,0.0,0.0,0.0,0.0,0.0,0.0,0.0,0.0,0.0,0.0,0.0,0.0,0.0,0.0,0.0,0.0,0.0,0.0,0.0,0.0,0.0,0.0,0.0,0.0,0.0,0.0,0.0,0.0,0.0,0.0,0.0,0.0,0.0,0.0,0.0,0.0,0.0,0.0,0.0,0.0,0.0,0.0,0.0,0.0,0.0,0.0,0.0,0.0,0.0,-2.0509,-2.296,-2.464,-2.5384,-2.619,-2.641,-2.5952,-2.4777,-2.3217,0.0,0.0,0.0,0.0,0.0,0.0,0.0,0.0,0.0,0.0,0.0,0.0,0.0,0.0,0.0,0.0,0.0,0.0,0.0,0.0,0.0,0.0,0.0,0.0,0.0,0.0,0.0,0.0,0.0,0.0,0.0,0.0,0.0,0.0,0.0,0.0,0.0,0.0,0.0,0.0,-2.046,-2.072,-2.1121,0.0,0.0,0.0,0.0,0.0,0.0,-2.0555,-2.0494,0.0,0.0,0.0,0.0,0.0,0.0,0.0,0.0,0.0,0.0,0.0,0.0,0.0,0.0,0.0,0.0,0.0,0.0,0.0,0.0,0.0,0.0,0.0,0.0,0.0,0.0,0.0,0.0,0.0,0.0,0.0,0.0,0.0,0.0,0.0,0.0,0.0,0.0,0.0,0.0,0.0,0.0,0.0,0.0,0.0,0.0,0.0,0.0,0.0,0.0,0.0,0.0,0.0,0.0,0.0,-1.9285,-2.2675,-2.4626,-2.4965,-2.5575,-2.5611,-2.4947,-2.3568,-2.1981,0.0,0.0,0.0,0.0,0.0,0.0,0.0,0.0,0.0,0.0,0.0,0.0,0.0,0.0,0.0,0.0,0.0,0.0,0.0,0.0,0.0,0.0,0.0,0.0,0.0,0.0,0.0,0.0,0.0,0.0,0.0,0.0,0.0,0.0,0.0,0.0,0.0,0.0,0.0,0.0,0.0,-2.096,-2.1373,-2.0963,0.0,0.0,0.0,0.0,-2.1768,-2.1464,0.0,0.0,0.0,0.0,0.0,0.0,0.0,0.0,0.0,0.0,0.0,0.0,0.0,0.0,0.0,0.0,0.0,0.0,0.0,0.0,0.0,0.0,0.0,0.0,0.0,0.0,0.0,0.0,0.0,0.0,0.0,0.0,0.0,0.0,0.0,0.0,0.0,0.0,0.0,0.0,0.0,0.0,0.0,0.0,0.0,0.0,0.0,0.0,0.0,0.0,0.0,0.0,0.0,0.0,0.0,0.0,-1.8904,-2.0532,-2.2023,-2.3359,-2.3566,-2.3548,-2.3459,-2.2652,-2.1228,0.0,0.0,0.0,0.0,0.0,0.0,0.0,0.0,0.0,0.0,0.0,0.0,0.0,0.0,0.0,0.0,0.0,0.0,0.0,0.0,0.0,0.0,0.0,0.0,0.0,0.0,0.0,0.0,0.0,0.0,0.0,0.0,0.0,0.0,0.0,0.0,0.0,0.0,0.0,0.0,0.0,-2.1861,-2.1298,-2.1314,-2.1322,0.0,0.0,-2.2212,-2.1433,-2.1772,0.0,0.0,0.0,0.0,0.0,0.0,0.0,0.0,0.0,0.0,0.0,0.0,0.0,0.0,0.0,0.0,0.0,0.0,0.0,0.0,0.0,0.0,0.0,0.0,0.0,0.0,0.0,0.0,0.0,0.0,0.0,0.0,0.0,0.0,0.0,0.0,0.0,0.0,0.0,0.0,0.0,0.0,0.0,0.0,0.0,0.0,0.0,0.0,0.0,0.0,0.0,0.0,0.0,0.0,0.0,-1.6264,-1.8689,-2.059,-2.208,-2.3136,-2.3189,-2.3189,-2.3189,-2.1596,-1.9901,0.0,0.0,0.0,0.0,0.0,0.0,0.0,0.0,0.0,0.0,0.0,0.0,0.0,0.0,0.0,0.0,0.0,0.0,0.0,0.0,0.0,0.0,0.0,0.0,0.0,0.0,0.0,0.0,0.0,0.0,0.0,0.0,0.0,0.0,0.0,0.0,0.0,0.0,0.0,0.0,0.0,0.0,-2.2375,-2.2167,0.0,0.0,0.0,-2.2463,-2.2457,0.0,0.0,0.0,0.0,0.0,0.0,0.0,0.0,0.0,0.0,0.0,0.0,0.0,0.0,0.0,0.0,0.0,0.0,0.0,0.0,0.0,0.0,0.0,0.0,0.0,0.0,0.0,0.0,0.0,0.0,0.0,0.0,0.0,0.0,0.0,0.0,0.0,0.0,0.0,0.0,0.0,0.0,0.0,0.0,0.0,0.0,0.0,0.0,0.0,0.0,0.0,0.0,0.0,0.0,0.0,0.0,0.0,-1.8452,-2.0896,-2.2416,-2.2965,-2.2982,-2.2982,-2.293,-2.0899,0.0,0.0,0.0,0.0,0.0,0.0,0.0,0.0,0.0,0.0,0.0,0.0,0.0,0.0,0.0,0.0,0.0,0.0,0.0,0.0,0.0,0.0,0.0,0.0,0.0,0.0,0.0,-0.9761,0.0,0.0,0.0,0.0,0.0,0.0,0.0,0.0,0.0,0.0,0.0,0.0,0.0,0.0,-2.2155,-2.3257,-2.3088,-2.3241,0.0,0.0,-2.297,-2.3325,-2.2936,-2.206,0.0,0.0,0.0,0.0,0.0,0.0,0.0,0.0,0.0,0.0,0.0,0.0,0.0,0.0,0.0,0.0,0.0,0.0,0.0,0.0,0.0,0.0,0.0,0.0,0.0,0.0,0.0,0.0,0.0,0.0,0.0,0.0,0.0,0.0,0.0,0.0,0.0,0.0,0.0,0.0,0.0,0.0,0.0,0.0,0.0,0.0,0.0,0.0,0.0,0.0,0.0,0.0,0.0,0.0,0.0,-1.8166,-2.0871,-2.2295,-2.238,-2.2363,-2.2349,-2.2329,-2.0823,-1.9063,0.0,0.0,0.0,0.0,0.0,0.0,0.0,0.0,0.0,0.0,0.0,0.0,0.0,0.0,0.0,0.0,0.0,0.0,0.0,0.0,0.0,0.0,0.0,0.0,0.0,0.0,0.0,0.0,0.0,0.0,0.0,0.0,0.0,0.0,0.0,0.0,0.0,0.0,0.0,0.0,0.0,-2.3274,-2.3393,-2.3949,-2.4372,0.0,0.0,-2.4118,-2.3509,-2.3374,-2.2818,-2.136,0.0,0.0,0.0,0.0,0.0,0.0,0.0,0.0,0.0,0.0,0.0,0.0,0.0,0.0,0.0,0.0,0.0,0.0,0.0,0.0,0.0,0.0,0.0,0.0,0.0,0.0,0.0,0.0,0.0,0.0,0.0,0.0,0.0,0.0,0.0,0.0,0.0,0.0,0.0,0.0,0.0,0.0,0.0,0.0,0.0,0.0,0.0,0.0,0.0,0.0,0.0,0.0,0.0,-1.5923,-1.7905,-2.0365,-2.1837,-2.2279,-2.2313,-2.2313,-2.2313,-2.0812,-1.9222,0.0,0.0,0.0,0.0,0.0,0.0,0.0,0.0,0.0,0.0,0.0,0.0,0.0,0.0,0.0,0.0,0.0,0.0,0.0,0.0,0.0,0.0,0.0,0.0,0.0,0.0,0.0,0.0,-1.3971,-1.4749,-1.4759,0.0,0.0,0.0,0.0,0.0,0.0,0.0,0.0,0.0,0.0,-2.3714,-2.4628,-2.5,0.0,0.0,-2.5456,-2.4932,-2.4203,-2.4085,-2.3424,-2.1525,-2.0699,0.0,0.0,0.0,0.0,0.0,0.0,0.0,0.0,0.0,0.0,0.0,0.0,0.0,0.0,0.0,0.0,0.0,0.0,0.0,0.0,0.0,0.0,0.0,0.0,0.0,0.0,0.0,0.0,0.0,0.0,0.0,0.0,0.0,0.0,0.0,0.0,0.0,0.0,0.0,0.0,0.0,0.0,0.0,0.0,0.0,0.0,0.0,0.0,0.0,0.0,0.0,0.0,-1.5815,-1.7783,-2.0264,-2.1786,-2.2279,-2.2313,-2.2313,-2.2279,-2.1045,-1.9541,0.0,0.0,0.0,0.0,0.0,0.0,0.0,0.0,0.0,0.0,0.0,0.0,0.0,0.0,0.0,0.0,0.0,0.0,0.0,0.0,0.0,0.0,0.0,0.0,0.0,0.0,0.0,0.0,-1.4817,-1.5257,-1.5274,0.0,0.0,0.0,0.0,0.0,0.0,0.0,0.0,0.0,0.0,-2.4526,-2.5761,-2.593,-2.6116,-2.664,-2.5879,-2.5084,-2.4575,-2.4321,-2.3661,-2.2104,0.0,0.0,0.0,0.0,0.0,0.0,0.0,0.0,0.0,0.0,0.0,0.0,0.0,0.0,0.0,0.0,0.0,0.0,0.0,0.0,0.0,0.0,0.0,0.0,0.0,0.0,0.0,0.0,0.0,0.0,-0.848,0.0,0.0,0.0,0.0,0.0,0.0,0.0,0.0,0.0,0.0,0.0,0.0,0.0,0.0,0.0,0.0,0.0,0.0,0.0,0.0,0.0,0.0,0.0,-1.7817,-2.0715,-2.2248,-2.2282,-2.2296,-2.2282,-2.2251,-2.1549,-2.0094,-1.7856,0.0,0.0,0.0,0.0,0.0,0.0,0.0,0.0,0.0,0.0,0.0,0.0,0.0,0.0,0.0,0.0,0.0,0.0,0.0,0.0,0.0,0.0,0.0,0.0,0.0,0.0,-1.3481,-1.409,-1.4562,0.0,0.0,0.0,0.0,0.0,0.0,0.0,0.0,0.0,0.0,-2.4612,-2.5828,-2.6539,-2.6674,-2.6624,-2.6691,-2.5473,-2.4543,-2.4494,-2.3917,-2.3424,0.0,0.0,0.0,0.0,0.0,0.0,0.0,0.0,0.0,0.0,0.0,0.0,0.0,0.0,0.0,0.0,0.0,0.0,0.0,0.0,0.0,0.0,0.0,0.0,0.0,0.0,0.0,-1.3304,-1.2556,0.0,0.0,0.0,0.0,0.0,0.0,0.0,0.0,0.0,0.0,0.0,-1.5782,-1.6487,0.0,0.0,0.0,0.0,0.0,0.0,0.0,0.0,0.0,0.0,0.0,0.0,-1.6657,-1.8153,-2.0309,-2.1415,-2.1447,-2.1431,-2.1431,-2.1431,-2.0715,-1.9274,-1.7009,0.0,0.0,0.0,0.0,0.0,0.0,0.0,0.0,0.0,0.0,0.0,0.0,0.0,0.0,0.0,0.0,0.0,0.0,0.0,0.0,0.0,0.0,0.0,0.0,0.0,-1.4072,0.0,0.0,0.0,0.0,0.0,0.0,0.0,0.0,0.0,0.0,0.0,-2.1837,-2.405,-2.4763,-2.5344,-2.611,-2.6244,-2.6228,0.0,0.0,0.0,0.0,0.0,0.0,0.0,0.0,0.0,0.0,0.0,0.0,0.0,0.0,-2.4112,-2.076,-2.0395,-2.0477,-1.9998,0.0,0.0,0.0,0.0,0.0,0.0,0.0,0.0,0.0,0.0,0.0,0.0,0.0,0.0,-1.4746,0.0,-1.3124,0.0,0.0,0.0,0.0,0.0,0.0,0.0,0.0,-1.6757,-1.7395,-1.7636,-1.8342,-1.8174,0.0,-1.7007,-1.5756,0.0,0.0,0.0,0.0,0.0,0.0,0.0,0.0,-1.6917,-1.8169,-2.0025,-2.1007,-2.1007,-2.1007,-2.1007,-2.0991,-2.0288,-1.9132,-1.7556,-1.6683,-1.5565,0.0,0.0,0.0,0.0,0.0,0.0,0.0,0.0,0.0,0.0,0.0,0.0,0.0,0.0,0.0,0.0,0.0,0.0,0.0,0.0,0.0,0.0,0.0,-1.4602,0.0,0.0,0.0,0.0,0.0,0.0,0.0,0.0,0.0,-2.1294,-2.1778,-2.2816,-2.4924,-2.5064,-2.5214,-2.5947,0.0,0.0,0.0,0.0,0.0,0.0,0.0,-2.4541,-2.4598,-2.4595,-2.4656,-2.4984,-2.5493,-2.5846,-2.5764,0.0,0.0,-2.2783,-2.2497,-2.2669,-2.2393,-2.3031,-2.3852,-2.4828,-2.5179,-2.5698,0.0,0.0,0.0,0.0,0.0,0.0,0.0,0.0,-1.6593,-1.6097,0.0,-1.5219,0.0,0.0,0.0,0.0,0.0,-1.5238,0.0,0.0,-1.8989,-1.9678,-1.9663,-1.9663,-1.9348,-1.8792,-1.9333,-1.8765,-1.7057,-1.4693,0.0,0.0,0.0,0.0,0.0,0.0,-1.7109,-1.7916,-1.9906,-2.0943,-2.0943,-2.0943,-2.0958,-2.0926,-2.0257,-1.972,-1.9386,-1.8231,-1.6858,-1.5152,-1.4082,0.0,0.0,0.0,0.0,0.0,0.0,0.0,0.0,0.0,0.0,0.0,0.0,0.0,0.0,0.0,0.0,0.0,0.0,0.0,0.0,-1.4713,0.0,0.0,0.0,0.0,0.0,0.0,0.0,0.0,0.0,0.0,-2.1944,-2.3195,-2.457,-2.5782,0.0,0.0,0.0,0.0,-2.5499,-2.6106,-2.5572,-2.5326,-2.5869,-2.5968,-2.5953,-2.5996,0.0,0.0,-2.5509,-2.5546,-2.5665,-2.5415,-2.5652,-2.5993,-2.693,-2.5882,-2.525,-2.5719,-2.4881,-2.456,-2.5747,-2.6523,-2.7128,-1.9169,0.0,0.0,0.0,0.0,-1.7364,-1.7895,-1.8744,-1.8274,-1.7651,-1.6955,-1.6473,0.0,0.0,0.0,0.0,0.0,0.0,-1.7145,-1.8401,-1.8807,-1.9226,-1.9708,-1.9723,-1.9603,-1.9438,-1.9618,-1.9444,-1.8912,-1.7739,-1.6385,-1.4908,0.0,0.0,0.0,0.0,-1.8067,-1.8796,-1.9651,-2.0085,-2.0085,-2.0085,-2.0052,-2.0067,-1.9867,-1.9723,-1.9602,-1.882,-1.7939,-1.6954,-1.5337,0.0,0.0,0.0,0.0,0.0,0.0,0.0,0.0,0.0,0.0,0.0,0.0,0.0,0.0,0.0,0.0,0.0,0.0,0.0,-1.4148,-1.4778,-1.5301,0.0,0.0,0.0,0.0,0.0,0.0,0.0,0.0,0.0,-2.4338,-2.4465,-2.4735,0.0,0.0,-2.5961,-2.568,-2.5868,-2.6133,-2.6314,-2.5841,0.0,0.0,-2.5601,-2.571,-2.6337,-2.6903,-2.7185,-2.698,-2.6994,-2.698,-2.6941,-2.6994,-2.7139,-2.7339,-2.6709,-2.6131,-2.623,-2.6241,-2.6559,-2.7418,-2.7806,-2.8125,-2.0888,-1.9057,-1.9147,-1.9055,-1.8864,-1.8595,-1.8957,-1.9663,-1.9256,-1.8882,-1.8478,-1.8072,-1.716,-1.5949,-1.5666,0.0,0.0,0.0,-1.8072,-1.9091,-1.9091,-1.9301,-1.9693,-1.9723,-1.9723,-1.9723,-1.9723,-1.9723,-1.9675,-1.9286,-1.8299,-1.6821,0.0,0.0,-1.7122,-1.7914,-1.8549,-1.9008,-1.9469,-1.9723,-1.9723,-1.9723,-1.9723,-1.9723,-1.9723,-1.9723,-1.9708,-1.9301,-1.8792,-1.8117,-1.6727,-1.5231,0.0,0.0,0.0,0.0,0.0,0.0,0.0,0.0,0.0,0.0,0.0,-1.075,0.0,0.0,0.0,0.0,-1.2162,-1.3836,-1.5812,-1.6118,0.0,0.0,0.0,0.0,0.0,0.0,0.0,-2.2649,-2.387,-2.4926,-2.5863,-2.5884,-2.5912,-2.623,-2.6169,-2.6031,-2.5894,0.0,-2.6169,-2.6443,-2.6225,-2.6093,-2.6333,-2.6294,-2.6403,-2.69,-2.7315,-2.7585,-2.7585,-2.7585,-2.7585,-2.7585,-2.7585,-2.7585,-2.7585,-2.7204,-2.6871,-2.6855,-2.6918,-2.7191,-2.7898,-2.8206,-2.8507,-2.2362,-2.1784,-2.101,-2.0701,-2.0628,-2.0034,-1.9738,-1.9723,-1.9708,-1.9723,-1.969,-1.9639,-1.8914,-1.7718,-1.714,0.0,-1.8656,-1.8691,-1.9004,-1.9566,-1.9566,-1.9566,-1.9566,-1.9603,-1.9639,-1.9621,-1.9675,-1.9675,-1.9654,-1.969,-1.9375,-1.8725,-1.8145,-1.7848,-1.7818,-1.8431,-1.8777,-1.8792,-1.9393,-1.9723,-1.9723,-1.9723,-1.9723,-1.9723,-1.9648,-1.9633,-1.9618,-1.9555,-1.9241,-1.864,-1.7983,-1.6772,-1.496,0.0,0.0,0.0,0.0,0.0,0.0,0.0,0.0,0.0,0.0,0.0,0.0,0.0,0.0,0.0,-1.523,0.0,-1.8538,-1.8192,0.0,0.0,0.0,-1.975,-2.1784,-2.2508,-2.3362,-2.4619,0.0,0.0,-2.6686,-2.7225,-2.7585,-2.7585,-2.6551,-2.5974,-2.6527,-2.6147,-2.5989,-2.6636,-2.6686,-2.6911,-2.736,-2.7475,-2.746,-2.751,-2.7585,-2.7585,-2.7585,-2.7585,-2.7585,-2.7585,-2.7585,-2.7585,-2.7585,-2.755,-2.7585,-2.755,-2.7115,-2.689,-2.749,-2.8046,-2.8369,-2.2871,-2.3001,-2.1427,-2.0765,-2.0688,-2.0524,-2.0168,-1.9723,-1.9723,-1.9723,-1.9672,-1.9262,-1.8682,-1.8007,-1.827,-1.8333,-1.8252,-1.8662,-1.8711,-1.8482,-1.8477,-1.8477,-1.8496,-1.8912,-1.908,-1.9099,-1.9497,-1.9479,-1.9118,-1.9512,-1.9405,-1.8881,-1.9093,-1.8972,-1.8491,-1.9121,-1.9468,-1.9468,-1.9618,-1.9723,-1.9723,-1.9723,-1.9723,-1.969,-1.9211,-1.8942,-1.8927,-1.8446,-1.8102,-1.7938,-1.7294,-1.6502,-1.5589,-1.3658,0.0,0.0,0.0,0.0,0.0,0.0,0.0,0.0,0.0,-1.4397,-1.1775,0.0,-1.5651,0.0,-1.6967,-1.8208,-1.8657,-1.9001,0.0,0.0,-2.14,-2.1949,-2.4403,-2.435,-2.4657,-2.5974,-2.6408,-2.6806,-2.73,-2.7495,-2.7585,-2.7585,-2.733,-2.7001,-2.6701,-2.6941,-2.7156,-2.7315,-2.733,-2.742,-2.7555,-2.7585,-2.7585,-2.7585,-2.7585,-2.7585,-2.7585,-2.7585,-2.7585,-2.7585,-2.7585,-2.7585,-2.7585,-2.7585,-2.7585,-2.7585,-2.7465,-2.739,-2.757,-2.771,-2.7835,-2.2446,-2.2667,-2.1643,-2.1002,-2.0699,-2.0122,-1.9681,-1.9334,-1.9084,-1.8987,-1.8968,-1.8684,-1.838,-1.8131,-1.8419,-1.84,-1.8112,-1.84,-1.84,-1.8092,-1.8092,-1.8092,-1.8112,-1.84,-1.8535,-1.8554,-1.8855,-1.8836,-1.8574,-1.8822,-1.8855,-1.8568,-1.8855,-1.8813,-1.8495,-1.9298,-1.9723,-1.9723,-1.9723,-1.9723,-1.9723,-1.9723,-1.9573,-1.9256,-1.9199,-1.8765,-1.8015,-1.7912,-1.7749,-1.7453,-1.7083,-1.6808,-1.6607,-1.4827,-1.3458,0.0,0.0,0.0,0.0,0.0,0.0,0.0,0.0,0.0,0.0,0.0,-1.7579,-1.7551,-1.8792,-1.9839,-2.0423,-2.0797,-2.1695,-2.337,-2.3199,-2.3804,-2.5824,-2.5719,-2.5899,-2.6926,-2.7046,-2.718,-2.754,-2.7585,-2.7585,-2.7585,-2.7585,-2.7465,-2.7165,-2.7375,-2.7585,-2.7585,-2.7585,-2.7585,-2.7585,-2.7585,-2.7585,-2.7585,-2.7585,-2.7585,-2.7585,-2.7585,-2.7585,-2.7585,-2.7585,-2.7585,-2.7585,-2.7585,-2.7585,-2.7585,-2.7585,-2.7585,-2.7585,-2.7585,-2.7585,-2.1625,-2.1697,-2.153,-2.1195,-2.0685,-1.944,-1.8965,-1.8982,-1.8535,-1.8225,-1.8097,-1.8014,-1.7967,-1.7894,-1.7953,-1.7933,-1.7907,-1.7953,-1.7953,-1.7894,-1.7907,-1.7907,-1.7907,-1.7953,-1.8007,-1.8007,-1.8066,-1.8066,-1.7993,-1.8052,-1.8066,-1.7993,-1.8052,-1.8092,-1.8131,-1.9024,-1.9479,-1.9493,-1.9566,-1.9603,-1.9603,-1.9603,-1.9316,-1.878,-1.9087,-1.8552,-1.7095,-1.7485,-1.7485,-1.6917,-1.6929,-1.7122,-1.744,-1.5915,-1.4992,0.0,-1.3372,0.0,0.0,0.0,0.0,0.0,0.0,0.0,0.0,-1.8106,-1.9227,-1.9775,-2.0446,-2.1352,-2.2578,-2.2778,-2.3381,-2.4694,-2.4844,-2.5352,-2.6542,-2.6746,-2.6956,-2.7525,-2.7585,-2.7585,-2.7585,-2.7585,-2.7585,-2.7585,-2.7585,-2.757,-2.7585,-2.7585,-2.7585,-2.7585,-2.7585,-2.7585,-2.7585,-2.7585,-2.7585,-2.7585,-2.7585,-2.7585,-2.7585,-2.7585,-2.7585,-2.7585,-2.7585,-2.7585,-2.7585,-2.7585,-2.7585,-2.7585,-2.7585,-2.7585,-2.7585,-2.7585,-2.7585,-2.1259,-2.1578,-2.0582,-2.0407,-2.0707,-1.9494,-1.9229,-1.9612,-1.951,-1.8981,-1.8161,-1.7655,-1.7209,-1.6845,-1.725,-1.7209,-1.685,-1.725,-1.7229,-1.6816,-1.6816,-1.6816,-1.6837,-1.725,-1.7456,-1.7463,-1.7921,-1.7887,-1.7463,-1.7874,-1.7887,-1.7476,-1.7874,-1.8092,-1.8112,0.0,0.0,0.0,-1.8836,-1.9043,-1.9058,-1.9043,-1.8985,-1.8836,-1.7612,0.0,-1.647,-1.6055,-1.5774,-1.5674,-1.6052,0.0,0.0,0.0,0.0,0.0,0.0,0.0,0.0,0.0,0.0,0.0,-1.7873,-1.7868,-1.7079,-1.9071,-2.0429,-2.0512,-2.1117,-2.1838,-2.2605,-2.3217,-2.4227,-2.5962,-2.6213,-2.6542,-2.73,-2.738,-2.748,-2.757,-2.7585,-2.7585,-2.7585,-2.7585,-2.7585,-2.7585,-2.7585,-2.7585,-2.7585,-2.7585,-2.7585,-2.7585,-2.7585,-2.7585,-2.7585,-2.7585,-2.7585,-2.7585,-2.7585,-2.7585,-2.7585,-2.7585,-2.7585,-2.7585,-2.7585,-2.7585,-2.7585,-2.7585,-2.7585,-2.7585,-2.7585,-2.7585,-2.7585,-2.7585,-2.7585,-2.0913,0.0,-2.0182,-1.9991,0.0,-1.9649,-1.9544,-1.9766,-1.9225,-1.8561,-1.781,-1.7749,-1.7288,-1.6534,-1.7102,-1.7054,-1.6522,-1.6795,-1.6752,-1.65,-1.6513,-1.6513,-1.6509,-1.6774,-1.6888,-1.6921,-1.718,-1.7167,-1.693,-1.7188,-1.7167,-1.6909,-1.7167,-1.7312,-1.7312,-1.7312,-1.7565,-1.8092,-1.8361,-1.8511,-1.8496,-1.8511,-1.8355,-1.7993,0.0,0.0,0.0,0.0,0.0,0.0,0.0,0.0,0.0,0.0,0.0,-1.5736,-1.5477,-1.5341,-1.5367,-1.6186,-1.699,-1.7663,-1.8423,-1.8883,-1.8863,-2.0075,-2.0908,-2.1187,-2.1782,-2.2263,-2.2615,-2.3188,-2.407,-2.5362,-2.5835,-2.63,-2.6953,-2.7367,-2.7585,-2.7585,-2.7585,-2.7585,-2.7585,-2.7585,-2.7585,-2.7585,-2.7585,-2.7585,-2.7585,-2.7585,-2.7585,-2.7585,-2.7585,-2.7585,-2.7585,-2.7585,-2.7585,-2.7585,-2.7585,-2.7585,-2.7585,-2.7585,-2.7585,-2.7585,-2.7585,-2.7585,-2.7585,-2.7585,-2.7585,-2.7585,-2.7585,-2.7585,-2.7585,-2.7585,-2.7585,-2.0691,-2.0641,-2.0063,-1.9798,-1.9798,-1.9798,-1.9798,-1.9736,0.0,0.0,0.0,-1.8053,-1.7666,-1.6861,-1.7225,-1.7124,-1.6672,-1.655,-1.6513,-1.6513,-1.6513,-1.6513,-1.6513,-1.6513,-1.6513,-1.6513,-1.6513,-1.6513,-1.6513,-1.6513,-1.6513,-1.6513,-1.6513,-1.6513,-1.6513,-1.6513,-1.6942,-1.7787,-1.7913,-1.7953,-1.7953,-1.7953,-1.7701,-1.7145,-1.7493,-1.7001,-1.5619,-1.6068,-1.6094,-1.5574,-1.562,-1.6073,-1.6931,-1.6573,-1.6582,-1.7086,-1.6752,-1.6538,-1.6672,-1.72,-1.7637,-1.7825,-1.8643,-1.9574,-2.0593,-2.0652,-2.0914,-2.163,-2.2027,-2.2369,-2.2727,-2.3113,-2.3725,-2.4502,-2.5129,-2.5712,-2.625,-2.6811,-2.7188,-2.7357,-2.7357,-2.7473,-2.756,-2.7585,-2.7585,-2.7585,-2.7585,-2.7585,-2.7585,-2.7585,-2.7585,-2.7585,-2.7585,-2.7585,-2.7585,-2.7585,-2.7585,-2.7585,-2.7585,-2.7585,-2.7585,-2.7585,-2.7585,-2.7585,-2.7585,-2.7585,-2.7585,-2.7585,-2.7585,-2.7585,-2.7585,-2.7585,-2.7585,-2.7585,-2.7585,-2.0691,-2.0654,-2.0037,-1.9798,-1.9798,-1.9798,-1.9798,-1.9748,-1.9146,-1.8845,-1.8744,-1.838,-1.8116,-1.7953,-1.7586,-1.7373,-1.7247,-1.6748,-1.6513,-1.6513,-1.6513,-1.6513,-1.6513,-1.6513,-1.6513,-1.6513,-1.6513,-1.6513,-1.6513,-1.6513,-1.6513,-1.6513,-1.6513,-1.6513,-1.6513,-1.6513,-1.6573,-1.6731,-1.7167,-1.7415,-1.7401,-1.7415,-1.7375,-1.7262,-1.6475,-1.5947,-1.5694,-1.5777,-1.5777,-1.5694,-1.6103,-1.6448,-1.6574,-1.6498,-1.6506,-1.6603,-1.6531,-1.6735,-1.7225,-1.779,-1.848,-1.9359,-1.961,-1.9812,-2.0075,-2.002,-2.0411,-2.1455,-2.1264,-2.1637,-2.3027,-2.3335,-2.3863,-2.497,-2.5315,-2.5453,-2.5563,-2.5701,-2.6027,-2.6575,-2.6642,-2.6904,-2.7357,-2.7484,-2.7458,-2.7534,-2.7357,-2.7534,-2.7509,-2.7585,-2.7585,-2.7585,-2.7585,-2.7585,-2.7585,-2.7585,-2.7585,-2.7585,-2.7585,-2.7585,-2.7585,-2.7585,-2.7585,-2.7585,-2.7585,-2.7585,-2.7585,-2.7585,-2.7585,-2.7585,-2.7585,-2.7585,-2.7585,-2.7585,-2.7585,-2.1556,-2.1455,-2.0627,-2.0275,-2.025,-1.9936,-1.9798,-1.9786,-1.9522,-1.9246,-1.902,-1.902,-1.8593,-1.7802,-1.7802,-1.7488,-1.6898,-1.6613,-1.6513,-1.6513,-1.6513,-1.6513,-1.6513,-1.6513,-1.6513,-1.6513,-1.6513,-1.6513,-1.6513,-1.6513,-1.6513,-1.6513,-1.6513,-1.6513,-1.6513,-1.6513,-1.6513,-1.6522,-1.6731,-1.6845,-1.6866,-1.6866,-1.6866,-1.6845,-1.6384,-1.6145,-1.6132,-1.6132,-1.6145,-1.6145,-1.6384,-1.6513,-1.6513,-1.6513,-1.666,-1.6961,-1.6986,-1.7225,-1.7802,-1.8342,-1.8958,-1.9736,-1.9798,-1.9826,-1.9898,-1.9826,-2.0167,-2.1014,-2.1105,-2.1569,-2.2683,-2.3071,-2.3486,-2.4095,-2.4538,-2.4781,-2.4838,-2.5175,-2.5536,-2.5837,-2.5906,-2.6041,-2.6349,-2.6402,-2.6402,-2.6388,-2.6402,-2.6534,-2.6916,-2.668,-2.6733,-2.7393,-2.7585,-2.7585,-2.7585,-2.7585,-2.7585,-2.7585,-2.7585,-2.7585,-2.7585,-2.756,-2.756,-2.7585,-2.756,-2.7585,-2.756,-2.7585,-2.7585,-2.7585,-2.7585,-2.7585,-2.7585,-2.7585,-2.7585,-2.2322,-2.2221,-2.1295,-2.0817,-2.0654,-2.0075,-1.9798,-1.9798,-1.9798,-1.9585,-1.9271,-1.9635,-1.9095,-1.8016,-1.8141,-1.7727,-1.6914,-1.66,-1.6513,-1.6513,-1.6513,-1.6513,-1.6513,-1.6513,-1.6513,-1.6513,-1.6513,-1.6513,-1.6513,-1.6513,-1.6513,-1.6513,-1.6513,-1.6513,-1.6513,-1.6513,-1.6513,-1.6513,-1.6513,-1.6513,-1.6513,-1.6513,-1.6513,-1.6513,-1.65,-1.6513,-1.6513,-1.6513,-1.6513,-1.6513,-1.6513,-1.6538,-1.671,-1.671,-1.6961,-1.7488,-1.7576,-1.7815,-1.8355,-1.8882,-1.9346,-1.9773,-1.9924,-1.9999,-2.0012,-2.0112,-2.0363,-2.0855,-2.1395,-2.1907,-2.2476,-2.2862,-2.3095,-2.3125,-2.3619,-2.4002,-2.4089,-2.4525,-2.4979,-2.5091,-2.5161,-2.5203,-2.5342,-2.5398,-2.5453,-2.5481,-2.5398,-2.5646,-2.6068,-2.5728,-2.5973,-2.6666,-2.7111,-2.7137,-2.7291,-2.7331,-2.7306,-2.7357,-2.7331,-2.7265,-2.7265,-2.7214,-2.7229,-2.7188,-2.7137,-2.6993,-2.706,-2.7229,-2.728,-2.728,-2.7571,-2.7869,-2.7884,-2.7884,-2.775,-2.2322,-2.2234,-2.1669,-2.1144,-2.0641,-2.0049,-1.9798,-1.9798,-1.9798,-1.9786,-1.971,-1.9773,-1.971,-1.9459,-1.8606,-1.8129,-1.7915,-1.6951,-1.6525,-1.6525,-1.6513,-1.6513,-1.6513,-1.6513,-1.6513,-1.6513,-1.6513,-1.6513,-1.6513,-1.6466,-1.6513,-1.6513,-1.6513,-1.65,-1.6513,-1.6513,-1.6513,-1.6513,-1.6513,-1.6513,-1.6513,-1.6513,-1.6513,-1.6513,-1.6513,-1.6513,-1.6513,-1.6513,-1.6513,-1.6513,-1.6513,-1.6738,-1.7234,-1.731,-1.7574,-1.8078,-1.8141,-1.8367,-1.8882,-1.9409,-1.9736,-1.9836,-2.0302,-2.0578,-2.0616,-2.1029,-2.1343,-2.1493,-2.1907,-2.2393,-2.2932,-2.307,-2.3095,-2.3095,-2.3215,-2.3228,-2.3275,-2.3288,-2.359,-2.4321,-2.4394,-2.461,-2.5091,-2.5203,-2.5287,-2.5287,-2.5147,-2.5231,-2.5439,-2.5369,-2.5258,-2.5522,-2.5591,-2.5947,-2.6404,-2.659,-2.6616,-2.6616,-2.6616,-2.6616,-2.6522,-2.6162,-2.5783,-2.6469,-2.6135,-2.585,-2.5905,-2.6081,-2.659,-2.6741,-2.7378,-2.8364,-2.8461,-2.8297,-2.8036,-2.2769,-2.2719,-2.2209,-2.1496,-2.0666,-2.0049,-1.9798,-1.9798,-1.9798,-1.9798,-1.9747,-1.9345,-1.9211,-1.9296,-1.8857,-1.8494,-1.8154,-1.7388,-1.7036,-1.6986,-1.6663,-1.6513,-1.6513,-1.6513,-1.6513,-1.6513,-1.6513,-1.6513,-1.6436,-1.6151,-1.6139,-1.6423,-1.6173,-1.6139,-1.6479,-1.6513,-1.6513,-1.6513,-1.6513,-1.6513,-1.6513,-1.6513,-1.6513,-1.6513,-1.6513,-1.6513,-1.6513,-1.6513,-1.6513,-1.6513,-1.6513,-1.6785,-1.7373,-1.7398,-1.7777,-1.8581,-1.8982,-1.9246,-1.9459,-1.9698,-1.9798,-1.9798,-2.0365,-2.0691,-2.0729,-2.1496,-2.1983,-2.2008,-2.2184,-2.2535,-2.3007,-2.3095,-2.3095,-2.3095,-2.3095,-2.3095,-2.3095,-2.3095,-2.3245,-2.3543,-2.3603,-2.3708,-2.3959,-2.4034,-2.4237,-2.4496,-2.4423,-2.4279,-2.4637,-2.4657,-2.4429,-2.4178,-2.4321,-2.4929,-2.5633,-2.5851,-2.5851,-2.5837,-2.5837,-2.5837,-2.5797,-2.5673,-2.5536,-2.5824,-2.5481,-2.5315,-2.5467,-2.5563,-2.5851,-2.6101,-2.6398,-2.7184,-2.7198,-2.7198,-2.7137,-2.3095,-2.2965,-2.2168,-2.1336,-2.0543,-1.9574,-1.9176,-1.9202,-1.9214,-1.9176,-1.915,-1.8635,-1.8472,-1.8589,-1.8457,-1.819,-1.7764,-1.7118,-1.6814,-1.6753,-1.6242,-1.5998,-1.602,-1.6008,-1.602,-1.5998,-1.5976,-1.5998,-1.5954,-1.5599,-1.5577,-1.5876,-1.5577,-1.5577,-1.5942,-1.5998,-1.602,-1.5998,-1.602,-1.5998,-1.5998,-1.6173,-1.6337,-1.6479,-1.6513,-1.6513,-1.6513,-1.6513,-1.6575,-1.6748,-1.6748,-1.7087,-1.7777,-1.784,-1.8254,-1.9108,-1.9585,-1.9798,-1.9798,-1.9798,-1.9798,-1.9861,-2.0451,-2.0918,-2.1106,-2.1907,-2.2456,-2.2506,-2.2518,-2.2719,-2.3007,-2.3095,-2.3095,-2.3095,-2.3095,-2.3095,-2.3095,-2.3095,-2.3095,-2.3095,-2.3185,-2.3095,-2.3095,-2.3185,-2.3424,-2.3783,-2.3514,-2.3258,-2.3857,-2.3973,-2.384,-2.3233,-2.3627,-2.4257,-2.4944,-2.5091,-2.5091,-2.5091,-2.5091,-2.5091,-2.5035,-2.4979,-2.4965,-2.4922,-2.4866,-2.4753,-2.4553,-2.4696,-2.5341,-2.566,-2.5977,-2.6348,-2.6744,-2.6529,-2.6731,-2.3095,-2.2825,-2.1183,-2.0459,-2.0287,-1.8534,-1.7743,-1.7852,-1.7797,-1.7743,-1.7825,-1.7688,-1.7665,-1.7614,-1.7182,-1.692,-1.6789,-1.6018,-1.5614,-1.5546,-1.5095,-1.4801,-1.4778,-1.4778,-1.4823,-1.4926,-1.496,-1.4903,-1.4869,-1.4766,-1.4744,-1.4812,-1.4778,-1.4766,-1.488,-1.4903,-1.4823,-1.4903,-1.4903,-1.4835,-1.488,-1.5377,-1.5898,-1.6337,-1.65,-1.6513,-1.6513,-1.6513,-1.676,-1.7335,-1.7338,-1.7815,-1.8757,-1.8907,-1.9146,-1.9685,-1.9773,-1.9798,-1.9798,-1.9798,-1.9823,-1.9962,-2.083,-2.1471,-2.1534,-2.2397,-2.2945,-2.3045,-2.2995,-2.3045,-2.3083,-2.3095,-2.3095,-2.3095,-2.3095,-2.3095,-2.3095,-2.3095,-2.3095,-2.3095,-2.3095,-2.3095,-2.3095,-2.3095,-2.3125,-2.3215,-2.3125,-2.3155,-2.3316,-2.3658,-2.374,-2.3434,-2.3608,-2.4111,-2.4305,-2.4337,-2.4337,-2.435,-2.4308,-2.4337,-2.4076,-2.3914,-2.3989,-2.3959,-2.3796,-2.3619,-2.3484,-2.3903,-2.4778,-2.5339,-2.5811,-2.621,-2.6266,-2.6889,-2.7063,-2.151,-2.1409,-2.0385,-1.9824,-1.9458,-1.8469,-1.7896,-1.7617,-1.7605,-1.7605,-1.7523,-1.7118,-1.6905,-1.6866,-1.6192,-1.6415,-1.7189,-1.658,-1.6123,-1.5836,-1.532,-1.4954,-1.472,-1.4709,-1.4709,-1.4709,-1.4709,-1.4709,-1.4663,-1.4329,-1.434,-1.456,-1.4306,-1.4306,-1.464,-1.4709,-1.4709,-1.4709,-1.4709,-1.4709,-1.4675,-1.4926,-1.513,-1.5389,-1.6107,-1.6513,-1.6513,-1.6861,-1.7197,-1.7398,-1.7702,-1.8254,-1.8933,-1.9321,-1.9597,-1.9773,-1.9798,-1.9798,-1.9798,-1.9798,-2.0,-2.039,-2.1041,-2.16,-2.2058,-2.2656,-2.3095,-2.3095,-2.3095,-2.3095,-2.3095,-2.3095,-2.3095,-2.3095,-2.3095,-2.3095,-2.3095,-2.3095,-2.3095,-2.3095,-2.3095,-2.3095,-2.3095,-2.3095,-2.3095,-2.3095,-2.3095,-2.3095,-2.3258,-2.386,-2.4161,-2.3521,-2.3879,-2.4299,-2.3526,-2.3514,-2.3514,-2.3543,-2.3531,-2.356,-2.3424,-2.3424,-2.3501,-2.356,-2.3228,-2.3168,-2.3245,-2.3348,-2.4197,-2.4367,-2.4919,-2.558,-2.5608,-2.6219,-2.6529,-2.059,-2.0469,-1.9697,-1.9188,-1.8816,-1.7978,-1.7409,-1.7098,-1.6976,-1.6884,-1.6782,-1.6368,-1.6151,-1.6065,-1.5613,-1.5882,-1.6774,-1.6374,-1.5988,-1.5682,-1.5171,-1.4786,-1.4529,-1.451,-1.451,-1.4521,-1.451,-1.4446,-1.4262,-1.3903,-1.3865,-1.4059,-1.3695,-1.3718,-1.4071,-1.4118,-1.4107,-1.4107,-1.4118,-1.4095,-1.4131,-1.4317,-1.4422,-1.4593,-1.5507,-1.6046,-1.5923,-1.6431,-1.6842,-1.7048,-1.7497,-1.798,-1.8526,-1.8889,-1.9097,-1.9097,-1.9071,-1.9097,-1.9133,-1.9228,-1.9494,-1.9909,-2.0536,-2.1088,-2.148,-2.1952,-2.2366,-2.261,-2.2732,-2.2763,-2.3035,-2.3095,-2.3095,-2.3095,-2.3095,-2.3095,-2.3095,-2.3095,-2.3095,-2.3095,-2.3095,-2.3095,-2.3095,-2.3095,-2.3095,-2.3095,-2.3095,-2.3095,-2.3233,-2.401,-2.4399,-2.3471,-2.4073,-2.4098,-2.3568,-2.3258,-2.3283,-2.3283,-2.3245,-2.3155,-2.3095,-2.3095,-2.3095,-2.3095,-2.3095,-2.3095,-2.3108,-2.3108,-2.3221,-2.3384,-2.4019,-2.4833,-2.5077,-2.5466,-2.5985,-2.0526,-2.0267,-1.9158,-1.8617,-1.8343,-1.7042,-1.6225,-1.6217,-1.5772,-1.5731,-1.5751,-1.5488,-1.5526,-1.5439,-1.5439,-1.5468,-1.5515,-1.5264,-1.5018,-1.4889,-1.4478,-1.4208,-1.4146,-1.4169,-1.4169,-1.4152,-1.4135,-1.3929,-1.3669,-1.3623,-1.3456,-1.3096,-1.3145,-1.3209,-1.3027,-1.3164,-1.3032,-1.309,-1.3119,-1.3036,-1.2978,-1.3525,-1.3844,-1.3965,-1.4788,-1.5096,-1.4787,-1.5247,-1.5849,-1.6302,-1.6725,-1.7102,-1.7635,-1.7786,-1.7688,-1.7797,-1.7704,-1.7688,-1.7767,-1.8194,-1.8487,-1.8804,-1.9321,-1.9949,-2.0211,-2.0574,-2.1132,-2.1721,-2.1908,-2.2168,-2.2763,-2.2854,-2.2944,-2.3095,-2.3095,-2.3095,-2.3095,-2.3095,-2.3095,-2.3095,-2.3095,-2.3095,-2.3095,-2.3095,-2.3095,-2.3095,-2.3095,-2.3095,-2.3183,-2.3998,-2.4148,-2.3634,-2.3885,-2.4123,-2.3609,-2.3133,-2.317,-2.3183,-2.3163,-2.3095,-2.3095,-2.3095,-2.3095,-2.3095,-2.3095,-2.312,-2.3384,-2.3421,-2.3622,-2.381,-2.418,-2.4556,-2.5084,-2.5611,-2.5959,-1.8821,-1.8767,-1.8388,-1.8005,-1.7745,-1.7199,-1.6807,-1.6484,-1.6045,-1.5889,-1.5801,-1.5547,-1.542,-1.542,-1.542,-1.542,-1.54,-1.5254,-1.5068,-1.4805,-1.4648,-1.4424,-1.4172,-1.4124,-1.4114,-1.4114,-1.4114,-1.4046,-1.3938,-1.3909,-1.3821,-1.376,-1.3721,-1.3714,-1.3691,-1.3467,-1.3311,-1.3281,-1.3027,-1.3042,-1.3242,-1.3238,-1.3421,-1.3941,-1.4059,-1.4109,-1.4338,-1.5592,-1.6399,-1.6592,-1.7087,-1.7422,-1.7544,-1.7605,-1.7605,-1.7605,-1.7605,-1.7757,-1.8047,-1.8202,-1.8551,-1.9126,-1.9571,-1.9934,-2.0268,-2.0426,-2.0655,-2.0974,-2.1005,-2.1164,-2.1322,-2.1385,-2.1896,-2.2975,-2.3095,-2.3035,-2.3035,-2.3065,-2.3095,-2.3095,-2.3095,-2.3095,-2.3095,-2.3095,-2.3095,-2.3095,-2.3095,-2.3095,-2.3221,-2.376,-2.3966,-2.3346,-2.3879,-2.4305,-2.3954,-2.3753,-2.3803,-2.3722,-2.3597,-2.3471,-2.3396,-2.3233,-2.3208,-2.3195,-2.3183,-2.3321,-2.3602,-2.3753,-2.3929,-2.4393,-2.4833,-2.5197,-2.5536,-2.5896,-2.6223,-1.8008,-1.8008,-1.8008,-1.7861,-1.7598,-1.7494,-1.7227,-1.6924,-1.6504,-1.6251,-1.6056,-1.5781,-1.5557,-1.5439,-1.542,-1.542,-1.542,-1.542,-1.5273,-1.5049,-1.5019,-1.4853,-1.4591,-1.4582,-1.4572,-1.4572,-1.4582,-1.4494,-1.4348,-1.4365,-1.4287,-1.4133,-1.4114,-1.4094,-1.4094,-1.386,-1.3724,-1.3675,-1.3486,-1.3467,-1.3607,-1.3486,-1.3594,-1.4016,-1.4033,-1.4121,-1.4439,-1.5628,-1.6222,-1.6169,-1.6526,-1.6789,-1.681,-1.6771,-1.6771,-1.6771,-1.6803,-1.6945,-1.7421,-1.7537,-1.8,-1.8701,-1.902,-1.9233,-1.9564,-1.9628,-1.9716,-2.0074,-2.0107,-2.0268,-2.0526,-2.0623,-2.1132,-2.199,-2.2113,-2.231,-2.2537,-2.2671,-2.2854,-2.2975,-2.3095,-2.3095,-2.3095,-2.3095,-2.3095,-2.3095,-2.3095,-2.3095,-2.3221,-2.3627,-2.3577,-2.3634,-2.4086,-2.4343,-2.4356,-2.4356,-2.4443,-2.4356,-2.423,-2.4098,-2.3998,-2.3697,-2.3577,-2.3572,-2.3559,-2.3835,-2.4104,-2.3966,-2.4054,-2.472,-2.5423,-2.5624,-2.5908,-2.6172,-2.6436,-1.8008,-1.8008,-1.8008,-1.7998,-1.793,-1.7598,-1.7451,-1.7353,-1.6953,-1.6562,-1.6281,-1.6095,-1.585,-1.5518,-1.5459,-1.542,-1.542,-1.542,-1.541,-1.5361,-1.5361,-1.5303,-1.5264,-1.5254,-1.5254,-1.5264,-1.5284,-1.5156,-1.4834,-1.4814,-1.4591,-1.4319,-1.4309,-1.4211,-1.428,-1.4182,-1.4153,-1.4133,-1.4075,-1.4046,-1.4114,-1.4065,-1.4133,-1.4241,-1.4541,-1.4754,-1.4891,-1.5279,-1.531,-1.4998,-1.5416,-1.5633,-1.5497,-1.541,-1.5546,-1.5623,-1.5488,-1.5861,-1.6185,-1.6782,-1.7187,-1.7707,-1.8012,-1.8008,-1.8259,-1.8361,-1.8596,-1.9133,-1.9233,-1.9529,-2.0107,-2.0236,-2.0333,-2.043,-2.0719,-2.1144,-2.1721,-2.1815,-2.2063,-2.2598,-2.2914,-2.2914,-2.275,-2.2811,-2.2884,-2.2811,-2.2884,-2.3078,-2.3056,-2.3337,-2.3873,-2.413,-2.4311,-2.4669,-2.4757,-2.4858,-2.4983,-2.5222,-2.5021,-2.4808,-2.4537,-2.4199,-2.4029,-2.4042,-2.4079,-2.4356,-2.4556,-2.4494,-2.4732,-2.541,-2.5837,-2.6009,-2.6185,-2.6399,-2.6487,-1.8008,-1.8008,-1.8008,-1.8008,-1.7998,-1.7881,-1.7842,-1.7793,-1.7393,-1.7129,-1.6936,-1.6369,-1.6046,-1.5899,-1.5547,-1.542,-1.542,-1.542,-1.542,-1.542,-1.542,-1.542,-1.542,-1.542,-1.542,-1.542,-1.541,-1.5352,-1.5254,-1.5215,-1.5156,-1.5059,-1.4981,-1.5011,-1.502,-1.4746,-1.4619,-1.4551,-1.425,-1.4299,-1.4531,-1.428,-1.4436,-1.4991,-1.4893,-1.4971,-1.5205,-1.5352,-1.5381,-1.5273,-1.5342,-1.542,-1.542,-1.543,-1.5459,-1.5488,-1.5742,-1.6084,-1.6523,-1.6943,-1.7383,-1.7783,-1.792,-1.8008,-1.8008,-1.8008,-1.8144,-1.8327,-1.8337,-1.8462,-1.8687,-1.8754,-1.8754,-1.8854,-1.9737,-2.0558,-2.0878,-2.0942,-2.1037,-2.1227,-2.1322,-2.1385,-2.151,-2.1834,-2.2002,-2.1741,-2.2187,-2.2903,-2.2776,-2.3232,-2.3772,-2.4117,-2.4399,-2.4908,-2.5222,-2.5335,-2.5573,-2.6034,-2.5921,-2.5569,-2.5172,-2.4675,-2.4619,-2.4607,-2.4594,-2.4795,-2.5121,-2.5272,-2.5749,-2.6021,-2.6197,-2.6298,-2.6336,-2.6487,-2.6487,-1.8008,-1.8008,-1.8008,-1.8008,-1.8008,-1.8008,-1.8008,-1.7969,-1.7764,-1.7529,-1.7256,-1.666,-1.6271,-1.6065,-1.5615,-1.542,-1.542,-1.542,-1.542,-1.542,-1.542,-1.542,-1.542,-1.542,-1.542,-1.542,-1.542,-1.541,-1.541,-1.542,-1.542,-1.5381,-1.542,-1.542,-1.5361,-1.5195,-1.5049,-1.501,-1.4795,-1.4786,-1.5,-1.4786,-1.4884,-1.5312,-1.5166,-1.5195,-1.5352,-1.542,-1.542,-1.541,-1.542,-1.542,-1.5439,-1.5596,-1.5684,-1.5713,-1.6103,-1.6533,-1.6934,-1.7256,-1.7559,-1.79,-1.8008,-1.8008,-1.8008,-1.8008,-1.8008,-1.8042,-1.8008,-1.8008,-1.8008,-1.8008,-1.8096,-1.8394,-1.9024,-1.9671,-1.9977,-2.0042,-2.0225,-2.0451,-2.059,-2.059,-2.059,-2.108,-2.1049,-2.0942,-2.1353,-2.1945,-2.2348,-2.304,-2.3641,-2.3928,-2.4157,-2.4499,-2.475,-2.4848,-2.5044,-2.5597,-2.6143,-2.5902,-2.5586,-2.5123,-2.5259,-2.5247,-2.5184,-2.5259,-2.5598,-2.5824,-2.5875,-2.6122,-2.6373,-2.6487,-2.6487,-2.6487,-2.6487,-1.8008,-1.8008,-1.8008,-1.8008,-1.8008,-1.8008,-1.8008,-1.7974,-1.7799,-1.7639,-1.7366,-1.6864,-1.6464,-1.6212,-1.582,-1.5508,-1.5498,-1.5449,-1.542,-1.542,-1.542,-1.542,-1.542,-1.542,-1.542,-1.542,-1.542,-1.542,-1.542,-1.542,-1.542,-1.542,-1.542,-1.542,-1.541,-1.5381,-1.541,-1.5371,-1.5303,-1.5273,-1.5332,-1.5283,-1.5322,-1.5352,-1.5391,-1.5352,-1.542,-1.5469,-1.5527,-1.5498,-1.5478,-1.5527,-1.5566,-1.5928,-1.6134,-1.6242,-1.6543,-1.6973,-1.7295,-1.7455,-1.7607,-1.7939,-1.8008,-1.8008,-1.8008,-1.8008,-1.8008,-1.8008,-1.8008,-1.8047,-1.8135,-1.8105,-1.832,-1.8564,-1.8483,-1.8618,-1.9044,-1.9248,-1.9517,-2.0204,-2.0313,-2.0444,-2.0355,-2.0431,-2.0432,-1.9857,-2.042,-2.1168,-2.1724,-2.2278,-2.3015,-2.3671,-2.3838,-2.3933,-2.4118,-2.4255,-2.4483,-2.4874,-2.5627,-2.5805,-2.5688,-2.5542,-2.5832,-2.5933,-2.5808,-2.5896,-2.6172,-2.626,-2.616,-2.621,-2.6449,-2.6487,-2.6487,-2.6487,-2.6487,-1.8008,-1.8008,-1.8008,-1.8008,-1.8008,-1.8008,-1.7974,-1.7862,-1.7182,-1.7185,-1.7451,-1.657,-1.6435,-1.698,-1.6116,-1.5958,-1.5719,-1.5467,-1.542,-1.542,-1.542,-1.541,-1.5352,-1.5294,-1.5352,-1.5381,-1.542,-1.542,-1.542,-1.542,-1.542,-1.542,-1.542,-1.542,-1.542,-1.542,-1.542,-1.542,-1.542,-1.542,-1.542,-1.542,-1.542,-1.542,-1.542,-1.542,-1.5498,-1.5742,-1.5948,-1.5958,-1.5977,-1.6007,-1.6046,-1.6348,-1.6562,-1.668,-1.6992,-1.7305,-1.7422,-1.7676,-1.79,-1.7978,-1.8008,-1.8008,-1.8008,-1.8008,-1.8008,-1.8018,-1.8018,-1.8149,-1.8422,-1.8471,-1.8685,-1.8984,-1.9023,-1.9017,-1.9195,-1.9018,-1.8897,-1.8859,-1.9276,-1.9339,-1.8816,-1.9708,-1.9588,-1.9014,-1.9502,-2.0369,-2.1074,-2.1666,-2.2341,-2.3125,-2.3315,-2.3315,-2.3139,-2.3368,-2.3818,-2.4145,-2.4886,-2.5581,-2.5469,-2.5674,-2.5893,-2.6161,-2.6348,-2.6461,-2.6487,-2.6474,-2.6336,-2.6436,-2.6487,-2.6487,-2.6487,-2.6487,-2.6487,-1.8008,-1.793,-1.7545,-1.7354,-1.7285,-1.6862,-1.6689,-1.6576,-1.6184,-1.6219,-1.6391,-1.5599,-1.5578,-1.5978,-1.5377,-1.5047,-1.4957,-1.4673,-1.4375,-1.4258,-1.4243,-1.4264,-1.4293,-1.4392,-1.4569,-1.5206,-1.542,-1.542,-1.542,-1.5381,-1.542,-1.542,-1.5391,-1.542,-1.542,-1.542,-1.542,-1.542,-1.542,-1.542,-1.542,-1.542,-1.542,-1.542,-1.543,-1.5478,-1.5742,-1.5948,-1.6183,-1.6388,-1.6584,-1.6604,-1.6506,-1.6777,-1.7012,-1.71,-1.7432,-1.7666,-1.7764,-1.7861,-1.7998,-1.8008,-1.8008,-1.8008,-1.8008,-1.8008,-1.8125,-1.8252,-1.835,-1.8477,-1.8841,-1.8945,-1.915,-1.9424,-1.9414,-1.9375,-1.9463,-1.9209,-1.8877,-1.8721,-1.9092,-1.9102,-1.9106,-1.9419,-1.9409,-1.9139,-1.9159,-1.9993,-2.1024,-2.1609,-2.1858,-2.2364,-2.2629,-2.2584,-2.2221,-2.2451,-2.3036,-2.3478,-2.4036,-2.4707,-2.5087,-2.5451,-2.5849,-2.6082,-2.6324,-2.6474,-2.6487,-2.6487,-2.6487,-2.6487,-2.6487,-2.6487,-2.6487,-2.6487,-2.6487,-1.7579,-1.751,-1.6715,-1.6393,-1.6245,-1.5587,-1.5305,-1.5269,-1.5021,-1.5128,-1.5086,-1.4651,-1.462,-1.4601,-1.4338,-1.4032,-1.3901,-1.3761,-1.366,-1.3381,-1.3386,-1.3358,-1.3285,-1.3364,-1.3756,-1.4952,-1.4864,-1.4874,-1.4874,-1.5021,-1.4746,-1.4962,-1.5177,-1.5079,-1.5177,-1.5381,-1.542,-1.542,-1.542,-1.542,-1.5459,-1.5498,-1.5596,-1.5732,-1.5742,-1.5869,-1.6133,-1.6339,-1.6506,-1.6785,-1.7236,-1.7236,-1.7139,-1.7227,-1.7513,-1.7523,-1.7793,-1.791,-1.793,-1.7988,-1.8008,-1.8008,-1.8008,-1.8008,-1.8008,-1.8115,-1.8266,-1.8481,-1.8646,-1.8906,-1.9307,-1.9375,-1.959,-1.9853,-1.9687,-1.9687,-1.9844,-1.9678,-1.9492,-1.9258,-1.9443,-1.9578,-1.9365,-1.943,-1.936,-1.9353,-1.9363,-1.9644,-2.0687,-2.1282,-2.1391,-2.153,-2.1738,-2.18,-2.1479,-2.1489,-2.2075,-2.2515,-2.3036,-2.3635,-2.4301,-2.4624,-2.4992,-2.5873,-2.6198,-2.6267,-2.6349,-2.6349,-2.6383,-2.6452,-2.6487,-2.6487,-2.6487,-2.6487,-2.6487,-1.5658,-1.5658,-1.5482,-1.5438,-1.5411,-1.5234,-1.5092,-1.5057,-1.4235,-1.4458,-1.4969,-1.4244,-1.4269,-1.4649,-1.4555,-1.421,-1.3732,-1.3547,-1.3445,-1.3187,-1.3123,-1.3034,-1.2849,-1.2802,-1.3114,-1.3282,-1.3445,-1.348,-1.3554,-1.3394,-1.3696,-1.3636,-1.4121,-1.4428,-1.4616,-1.501,-1.5331,-1.534,-1.5291,-1.5252,-1.5458,-1.5571,-1.581,-1.6019,-1.5997,-1.6174,-1.6483,-1.6879,-1.723,-1.7305,-1.7686,-1.7769,-1.7677,-1.7745,-1.7852,-1.7871,-1.793,-1.8008,-1.8008,-1.8008,-1.8008,-1.8008,-1.8008,-1.8008,-1.8076,-1.8286,-1.851,-1.8744,-1.9072,-1.9375,-1.9756,-1.9814,-2.0019,-2.0273,-2.039,-2.0341,-2.04,-2.0312,-2.0028,-1.96,-1.9911,-2.0145,-1.9853,-1.9687,-1.9697,-1.9705,-1.9656,-1.9754,-2.0327,-2.0597,-2.0591,-2.0705,-2.0798,-2.0818,-2.0741,-2.0828,-2.1088,-2.1375,-2.1849,-2.2366,-2.2925,-2.3404,-2.3988,-2.4696,-2.5429,-2.5791,-2.5908,-2.606,-2.6314,-2.6418,-2.6452,-2.6452,-2.6418,-2.6383,-2.6383,-1.5328,-1.5136,-1.4629,-1.4422,-1.435,-1.3875,-1.3694,-1.3629,-1.32,-1.3237,-1.3455,-1.32,-1.32,-1.3548,-1.3481,-1.3179,-1.2984,-1.2876,-1.2657,-1.2413,-1.234,-1.2328,-1.2208,-1.2201,-1.2191,-1.2198,-1.2191,-1.2538,-1.295,-1.3039,-1.295,-1.315,-1.3565,-1.3768,-1.3898,-1.4311,-1.4905,-1.5118,-1.4923,-1.4901,-1.521,-1.5223,-1.5145,-1.5221,-1.5352,-1.5373,-1.5596,-1.5713,-1.5997,-1.6278,-1.6899,-1.7198,-1.7398,-1.7681,-1.7974,-1.794,-1.7974,-1.7974,-1.8008,-1.8008,-1.8008,-1.8008,-1.7983,-1.8008,-1.8115,-1.8344,-1.8802,-1.9241,-1.9678,-2.0067,-2.0234,-2.0234,-2.0361,-2.0537,-2.0615,-2.0615,-2.0615,-2.0615,-2.0321,-1.9969,-2.0224,-2.0361,-2.0263,-2.0117,-2.0117,-2.0087,-1.9979,-2.0077,-2.0185,-2.0244,-2.0321,-2.0429,-2.0605,-2.0605,-2.0605,-2.0605,-2.0615,-2.075,-2.0934,-2.1441,-2.1849,-2.244,-2.2776,-2.3184,-2.3952,-2.4696,-2.5323,-2.5406,-2.5873,-2.6198,-2.5908,-2.5721,-2.6094,-2.6267,-2.6164,-1.4867,-1.4557,-1.3774,-1.3419,-1.3273,-1.2622,-1.2342,-1.2305,-1.2342,-1.2378,-1.2305,-1.2342,-1.2342,-1.2335,-1.2345,-1.2231,-1.1993,-1.2065,-1.1925,-1.173,-1.1675,-1.1565,-1.1423,-1.143,-1.1506,-1.1614,-1.1574,-1.1829,-1.2377,-1.2531,-1.2633,-1.2696,-1.298,-1.3268,-1.3357,-1.3794,-1.4385,-1.4509,-1.4378,-1.4362,-1.4725,-1.4454,-1.408,-1.4162,-1.4179,-1.447,-1.4847,-1.4931,-1.5099,-1.5442,-1.5895,-1.6324,-1.6428,-1.7001,-1.7398,-1.7476,-1.7613,-1.7681,-1.7647,-1.7329,-1.7148,-1.7123,-1.764,-1.7781,-1.8058,-1.8463,-1.9221,-1.9922,-2.0321,-2.0527,-2.0537,-2.0586,-2.0595,-2.0595,-2.0615,-2.0615,-2.0615,-2.0615,-2.0615,-2.0488,-2.0615,-2.0546,-2.0429,-2.0419,-2.038,-2.038,-2.0282,-2.0312,-2.0449,-2.0478,-2.0517,-2.0546,-2.0605,-2.0605,-2.0605,-2.0605,-2.0615,-2.0644,-2.075,-2.1001,-2.1298,-2.1669,-2.1859,-2.2048,-2.2264,-2.2999,-2.3854,-2.4636,-2.4886,-2.4957,-2.4886,-2.4886,-2.5028,-2.5394,-2.5546,-1.2941,-1.2629,-1.2512,-1.2482,-1.2482,-1.2372,-1.2305,-1.2305,-1.2305,-1.2305,-1.2305,-1.2305,-1.2305,-1.2305,-1.2305,-1.2278,-1.2245,-1.2191,-1.2064,-1.1837,-1.1846,-1.1703,-1.1496,-1.143,-1.1489,-1.1515,-1.151,-1.1437,-1.1795,-1.1822,-1.1674,-1.1841,-1.2424,-1.2755,-1.2829,-1.3354,-1.395,-1.4049,-1.3958,-1.4104,-1.4401,-1.4322,-1.4441,-1.4681,-1.4755,-1.4684,-1.4627,-1.4635,-1.4814,-1.4953,-1.5199,-1.5376,-1.5384,-1.5419,-1.5517,-1.5763,-1.6184,-1.6749,-1.6636,-1.6219,-1.5921,-1.6166,-1.6661,-1.7134,-1.7641,-1.8635,-1.9637,-2.0429,-2.0586,-2.0605,-2.0615,-2.0615,-2.0615,-2.0615,-2.0615,-2.0615,-2.0615,-2.0615,-2.0615,-2.0615,-2.0615,-2.0615,-2.0556,-2.0576,-2.0595,-2.0605,-2.0615,-2.0615,-2.0615,-2.0615,-2.0615,-2.0615,-2.0615,-2.0615,-2.0615,-2.0615,-2.0615,-2.0615,-2.0644,-2.0673,-2.0895,-2.1116,-2.0944,-2.1088,-2.127,-2.1565,-2.2376,-2.3084,-2.3562,-2.3854,-2.3916,-2.3843,-2.3734,-2.4181,-2.4671,-1.271,-1.2583,-1.2371,-1.2305,-1.2305,-1.2305,-1.2305,-1.2305,-1.2305,-1.2305,-1.2305,-1.2305,-1.2305,-1.2305,-1.2305,-1.2305,-1.2305,-1.2305,-1.2251,-1.2131,-1.2091,-1.2031,-1.1964,-1.1924,-1.1882,-1.1848,-1.1924,-1.1964,-1.185,-1.159,-1.143,-1.1538,-1.1943,-1.2228,-1.236,-1.2782,-1.3269,-1.3615,-1.3754,-1.3562,-1.3349,-1.3279,-1.3373,-1.3585,-1.3622,-1.3622,-1.3629,-1.3557,-1.3557,-1.3665,-1.3947,-1.435,-1.453,-1.4843,-1.5234,-1.5242,-1.4985,-1.5226,-1.5623,-1.5349,-1.5243,-1.5408,-1.5979,-1.6411,-1.7021,-1.8136,-1.9209,-1.9631,-2.0274,-2.0489,-2.0489,-2.0615,-2.0615,-2.0605,-2.0527,-2.0615,-2.0615,-2.0615,-2.0615,-2.0615,-2.0615,-2.0615,-2.0615,-2.0615,-2.0615,-2.0615,-2.0615,-2.0615,-2.0615,-2.0615,-2.0615,-2.0615,-2.0615,-2.0615,-2.0615,-2.0615,-2.0615,-2.0615,-2.0615,-2.0644,-2.0605,-2.0644,-2.0615,-2.0615,-2.0828,-2.1088,-2.1308,-2.1897,-2.2702,-2.2925,-2.3025,-2.2962,-2.2888,-2.2846,-2.3567,-1.2784,-1.2757,-1.2425,-1.2305,-1.2305,-1.2305,-1.2305,-1.2305,-1.2305,-1.2305,-1.2305,-1.2305,-1.2305,-1.2305,-1.2305,-1.2305,-1.2305,-1.2305,-1.2305,-1.2305,-1.2305,-1.2285,-1.2231,-1.2265,-1.2265,-1.2305,-1.2218,-1.2231,-1.2124,-1.1895,-1.171,-1.165,-1.1955,-1.2072,-1.2067,-1.2306,-1.2722,-1.3194,-1.3237,-1.2968,-1.2528,-1.2395,-1.2395,-1.2378,-1.2305,-1.2305,-1.2305,-1.2378,-1.2409,-1.2549,-1.2981,-1.3346,-1.3455,-1.3952,-1.4333,-1.4306,-1.3999,-1.4052,-1.4442,-1.4493,-1.4759,-1.4985,-1.5576,-1.5996,-1.6882,-1.7687,-1.8157,-1.8541,-1.9067,-1.9511,-1.9795,-1.9883,-2.005,-2.0167,-2.0372,-2.0489,-2.0566,-2.0489,-2.0527,-2.0615,-2.0615,-2.0615,-2.0615,-2.0615,-2.0615,-2.0615,-2.0615,-2.0615,-2.0615,-2.0615,-2.0615,-2.0615,-2.0615,-2.0615,-2.0615,-2.0615,-2.0615,-2.0615,-2.0615,-2.0615,-2.0615,-2.0615,-2.0615,-2.0615,-2.0644,-2.0722,-2.0972,-2.1413,-2.1811,-2.1849,-2.1924,-2.2113,-2.2124,-2.2073,-2.2713,-1.2784,-1.2757,-1.2462,-1.2305,-1.2305,-1.2305,-1.2305,-1.2305,-1.2305,-1.2305,-1.2305,-1.2305,-1.2305,-1.2305,-1.2305,-1.2305,-1.2305,-1.2305,-1.2305,-1.2305,-1.2305,-1.2305,-1.2305,-1.2305,-1.2305,-1.2305,-1.2305,-1.2305,-1.2298,-1.2211,-1.2164,-1.2251,-1.2178,-1.2231,-1.2251,-1.2301,-1.2342,-1.2629,-1.2592,-1.2556,-1.2342,-1.2305,-1.2305,-1.2305,-1.2305,-1.2305,-1.2305,-1.2305,-1.2305,-1.2298,-1.2482,-1.2647,-1.2843,-1.3131,-1.3409,-1.3379,-1.3418,-1.3491,-1.3659,-1.355,-1.3271,-1.3676,-1.4497,-1.561,-1.6451,-1.7057,-1.7407,-1.7447,-1.7931,-1.794,-1.8141,-1.835,-1.8997,-1.9195,-1.9441,-1.9678,-1.9883,-2.0245,-2.0284,-2.0527,-2.0615,-2.0615,-2.0615,-2.0615,-2.0615,-2.0615,-2.0615,-2.0615,-2.0615,-2.0615,-2.0615,-2.0615,-2.0615,-2.0615,-2.0615,-2.0615,-2.0615,-2.0615,-2.0615,-2.0615,-2.0615,-2.0615,-2.0615,-2.0742,-2.0742,-2.0693,-2.0693,-2.1261,-2.1468,-2.0927,-2.0906,-2.1462,-2.1857,-2.1961,-2.2766,-1.2472,-1.2465,-1.2351,-1.2305,-1.2305,-1.2305,-1.2305,-1.2305,-1.2305,-1.2305,-1.2305,-1.2305,-1.2305,-1.2305,-1.2305,-1.2305,-1.2305,-1.2305,-1.2305,-1.2305,-1.2305,-1.2305,-1.2305,-1.2305,-1.2305,-1.2305,-1.2305,-1.2305,-1.2305,-1.2305,-1.2305,-1.2305,-1.2305,-1.2305,-1.2305,-1.2305,-1.2305,-1.2305,-1.2305,-1.2305,-1.2305,-1.2305,-1.2305,-1.2305,-1.2305,-1.2305,-1.2305,-1.2305,-1.2305,-1.2311,-1.2318,-1.2418,-1.2603,-1.2764,-1.2911,-1.3013,-1.3193,-1.328,-1.3373,-1.324,-1.318,-1.3487,-1.4172,-1.4849,-1.5587,-1.591,-1.6239,-1.6478,-1.6846,-1.6976,-1.7383,-1.7698,-1.798,-1.8069,-1.835,-1.8709,-1.8997,-1.9353,-1.9559,-1.9559,-2.0167,-2.0615,-2.0615,-2.0615,-2.0615,-2.0615,-2.0615,-2.0615,-2.0615,-2.0615,-2.0615,-2.0615,-2.0615,-2.0615,-2.0615,-2.0615,-2.0615,-2.0615,-2.0615,-2.0615,-2.0615,-2.0615,-2.0644,-2.0762,-2.0996,-2.1084,-2.1191,-2.1328,-2.1279,-2.1104,-2.1085,-2.1252,-2.157,-2.1889,-2.2713,-1.2305,-1.2305,-1.2305,-1.2305,-1.2305,-1.2305,-1.2305,-1.2305,-1.2305,-1.2305,-1.2305,-1.2305,-1.2305,-1.2305,-1.2305,-1.2305,-1.2305,-1.2305,-1.2305,-1.2305,-1.2305,-1.2305,-1.2305,-1.2305,-1.2305,-1.2305,-1.2305,-1.2305,-1.2305,-1.2305,-1.2305,-1.2305,-1.2305,-1.2305,-1.2305,-1.2305,-1.2305,-1.2305,-1.2305,-1.2305,-1.2305,-1.2305,-1.2305,-1.2305,-1.2305,-1.2305,-1.2305,-1.2311,-1.2378,-1.2425,-1.2529,-1.265,-1.2837,-1.3025,-1.3126,-1.328,-1.344,-1.3527,-1.3647,-1.3641,-1.3567,-1.3822,-1.3915,-1.4126,-1.4328,-1.4817,-1.5186,-1.5262,-1.5918,-1.6404,-1.6445,-1.6527,-1.6764,-1.6927,-1.7545,-1.7908,-1.798,-1.8221,-1.839,-1.851,-1.9116,-1.952,-2.0245,-2.0245,-2.0615,-2.0615,-2.0615,-2.0615,-2.0615,-2.0615,-2.0615,-2.0615,-2.0615,-2.0615,-2.0615,-2.0615,-2.0615,-2.0615,-2.0615,-2.0615,-2.0615,-2.0654,-2.0762,-2.0996,-2.126,-2.1533,-2.1641,-2.166,-2.1592,-2.1484,-2.1514,-2.1572,-2.1691,-2.2053,-2.2486,-1.2305,-1.2305,-1.2305,-1.2305,-1.2305,-1.2305,-1.2305,-1.2305,-1.2305,-1.2305,-1.2305,-1.2305,-1.2305,-1.2305,-1.2305,-1.2305,-1.2305,-1.2305,-1.2305,-1.2305,-1.2305,-1.2305,-1.2305,-1.2305,-1.2305,-1.2305,-1.2305,-1.2305,-1.2305,-1.2305,-1.2305,-1.2305,-1.2305,-1.2305,-1.2305,-1.2305,-1.2305,-1.2305,-1.2305,-1.2305,-1.2305,-1.2305,-1.2305,-1.2305,-1.2371,-1.2392,-1.2398,-1.2472,-1.2579,-1.2744,-1.2777,-1.2899,-1.316,-1.3394,-1.3493,-1.358,-1.3874,-1.4008,-1.4048,-1.4048,-1.4015,-1.4001,-1.4062,-1.4082,-1.4088,-1.425,-1.4377,-1.4573,-1.4615,-1.4496,-1.4699,-1.5103,-1.5545,-1.5869,-1.6445,-1.669,-1.6731,-1.7131,-1.7293,-1.7496,-1.7585,-1.7868,-1.8997,-1.9844,-2.0411,-2.0615,-2.0615,-2.0615,-2.0576,-2.0615,-2.0615,-2.0615,-2.0615,-2.0615,-2.0615,-2.0615,-2.0615,-2.0615,-2.0635,-2.0654,-2.0752,-2.0898,-2.1074,-2.1249,-2.1561,-2.1953,-2.1963,-2.1934,-2.2002,-2.209,-2.2002,-2.2021,-2.208,-2.2239,-2.2673,-1.2305,-1.2305,-1.2305,-1.2305,-1.2305,-1.2305,-1.2305,-1.2305,-1.2305,-1.2305,-1.2305,-1.2305,-1.2305,-1.2305,-1.2305,-1.2305,-1.2305,-1.2305,-1.2305,-1.2305,-1.2305,-1.2305,-1.2305,-1.2305,-1.2305,-1.2305,-1.2305,-1.2305,-1.2305,-1.2305,-1.2305,-1.2305,-1.2305,-1.2305,-1.2305,-1.2305,-1.2305,-1.2305,-1.2305,-1.2305,-1.2305,-1.2305,-1.2311,-1.2318,-1.2522,-1.2616,-1.265,-1.2732,-1.2906,-1.3026,-1.3053,-1.32,-1.344,-1.362,-1.37,-1.3861,-1.4075,-1.4082,-1.4088,-1.4075,-1.4082,-1.4088,-1.4088,-1.4088,-1.4088,-1.4088,-1.4088,-1.4088,-1.4088,-1.4088,-1.4328,-1.4412,-1.4657,-1.465,-1.4943,-1.4985,-1.5144,-1.5827,-1.6265,-1.656,-1.6683,-1.7536,-1.855,-1.9288,-1.9853,-2.0134,-2.0085,-2.0449,-2.0547,-2.0576,-2.0615,-2.0615,-2.0615,-2.0615,-2.0625,-2.0713,-2.0791,-2.084,-2.0801,-2.0723,-2.0898,-2.1171,-2.1512,-2.1814,-2.2119,-2.2363,-2.2422,-2.25,-2.2623,-2.2682,-2.2568,-2.2529,-2.2607,-2.2715,-2.2924,-1.1248,-1.1248,-1.1248,-1.1248,-1.1397,-1.2003,-1.2305,-1.2305,-1.2305,-1.2305,-1.2305,-1.2305,-1.2305,-1.2305,-1.2305,-1.2305,-1.2305,-1.2305,-1.2305,-1.2305,-1.2305,-1.2305,-1.2305,-1.2305,-1.2305,-1.2305,-1.2305,-1.2305,-1.2305,-1.2305,-1.2305,-1.2305,-1.2311,-1.2305,-1.2305,-1.2305,-1.2305,-1.2305,-1.2305,-1.2305,-1.2305,-1.2318,-1.2395,-1.2516,-1.267,-1.2824,-1.2965,-1.3093,-1.3273,-1.328,-1.3353,-1.35,-1.3694,-1.3821,-1.3901,-1.4035,-1.4088,-1.4088,-1.4088,-1.4088,-1.4088,-1.4088,-1.4088,-1.4088,-1.4088,-1.4088,-1.4088,-1.4088,-1.4088,-1.4088,-1.4088,-1.4088,-1.4088,-1.4124,-1.4124,-1.4208,-1.437,-1.5095,-1.5269,-1.556,-1.5937,-1.6935,-1.7921,-1.8711,-1.9286,-1.9421,-1.9562,-1.9974,-2.04,-2.0517,-2.0527,-2.0576,-2.0664,-2.0781,-2.0801,-2.0879,-2.0957,-2.1055,-2.1035,-2.1055,-2.1348,-2.1709,-2.207,-2.2383,-2.2568,-2.2764,-2.2925,-2.3042,-2.2974,-2.2974,-2.2955,-2.2974,-2.3091,-2.3101,-2.3101,-0.9334,-0.9296,-0.9296,-0.941,-0.9674,-1.1285,-1.2046,-1.2157,-1.2194,-1.2157,-1.212,-1.212,-1.2194,-1.2181,-1.2224,-1.2305,-1.2305,-1.2305,-1.2305,-1.2305,-1.2305,-1.2305,-1.2305,-1.2305,-1.2305,-1.2305,-1.2318,-1.2338,-1.2331,-1.2478,-1.2472,-1.2418,-1.2492,-1.2498,-1.2485,-1.2485,-1.2458,-1.2432,-1.2492,-1.2512,-1.2538,-1.2458,-1.2592,-1.2777,-1.2918,-1.3039,-1.318,-1.3327,-1.3474,-1.3533,-1.362,-1.3828,-1.3975,-1.4075,-1.4088,-1.4088,-1.4088,-1.4088,-1.4088,-1.4088,-1.4088,-1.4088,-1.4088,-1.4088,-1.4088,-1.4088,-1.4088,-1.4088,-1.4088,-1.4088,-1.4088,-1.4088,-1.4088,-1.4088,-1.4088,-1.413,-1.413,-1.4299,-1.4362,-1.4522,-1.4845,-1.5634,-1.664,-1.7495,-1.8641,-1.8688,-1.8868,-1.9229,-1.9688,-2.0372,-2.0412,-2.0512,-2.065,-2.0957,-2.1045,-2.1171,-2.1309,-2.1456,-2.1562,-2.1631,-2.1934,-2.2139,-2.2383,-2.2594,-2.2867,-2.3042,-2.3081,-2.3101,-2.3081,-2.3101,-2.3101,-2.3101,-2.3101,-2.3101,-2.3101,-0.9296,-0.9296,-0.9296,-0.9296,-0.9372,-0.9895,-1.0164,-1.0239,-1.0864,-1.0901,-1.0233,-1.17,-1.1774,-1.1316,-1.1959,-1.2194,-1.2268,-1.2305,-1.2305,-1.2268,-1.2194,-1.2268,-1.2238,-1.217,-1.2238,-1.2251,-1.2234,-1.2353,-1.2607,-1.2741,-1.2906,-1.2959,-1.2859,-1.2886,-1.2899,-1.2939,-1.2806,-1.2764,-1.2806,-1.2839,-1.2879,-1.2866,-1.2979,-1.306,-1.3233,-1.338,-1.3453,-1.3694,-1.3841,-1.3908,-1.3948,-1.4041,-1.4055,-1.4088,-1.4088,-1.4088,-1.4088,-1.4088,-1.4088,-1.4088,-1.4088,-1.4088,-1.4088,-1.4088,-1.4088,-1.4088,-1.4088,-1.4088,-1.4088,-1.4088,-1.4088,-1.4088,-1.4088,-1.4088,-1.4088,-1.4088,-1.4102,-1.4155,-1.4195,-1.4495,-1.4729,-1.5266,-1.6189,-1.6988,-1.801,-1.8018,-1.8081,-1.8396,-1.8853,-1.9472,-1.9925,-2.0029,-2.0379,-2.0599,-2.13,-2.1557,-2.1707,-2.1867,-2.1992,-2.2139,-2.2305,-2.249,-2.2623,-2.2808,-2.2994,-2.3071,-2.3091,-2.3101,-2.3101,-2.3101,-2.3101,-2.3101,-2.3101,-2.3101,-2.3101,-0.8127,-0.8122,-0.8084,-0.8122,-0.8122,-0.8122,-0.8122,-0.8347,-0.9588,-0.982,-0.948,-1.0533,-1.0795,-1.0458,-1.1168,-1.1657,-1.1694,-1.2114,-1.2305,-1.2231,-1.1848,-1.1694,-1.1669,-1.1409,-1.1073,-1.1306,-1.1752,-1.201,-1.2395,-1.2949,-1.3186,-1.3173,-1.3206,-1.3174,-1.3213,-1.3214,-1.3234,-1.318,-1.316,-1.3206,-1.3227,-1.324,-1.3273,-1.3407,-1.3553,-1.3633,-1.3766,-1.4028,-1.4068,-1.4088,-1.4088,-1.4088,-1.4088,-1.4088,-1.4088,-1.4088,-1.4088,-1.4088,-1.4088,-1.4088,-1.4088,-1.4088,-1.4088,-1.4088,-1.4088,-1.4088,-1.4088,-1.4088,-1.4088,-1.4088,-1.4088,-1.4088,-1.4088,-1.4088,-1.4088,-1.4088,-1.4142,-1.4208,-1.4459,-1.4764,-1.5178,-1.5651,-1.6299,-1.6959,-1.7145,-1.6765,-1.6669,-1.6914,-1.7546,-1.8341,-1.8812,-1.9107,-1.9658,-2.0135,-2.0899,-2.1499,-2.1669,-2.1901,-2.2519,-2.2656,-2.2691,-2.274,-2.2814,-2.2911,-2.3071,-2.3101,-2.3101,-2.3101,-2.3101,-2.3101,-2.3101,-2.3101,-2.3101,-2.3101,-2.3101,-0.6335,-0.6374,-0.63,-0.6451,-0.63,-0.6451,-0.6451,-0.649,-0.8271,-0.9031,-0.896,-0.9263,-0.941,-0.9448,-1.019,-1.064,-1.0832,-1.1285,-1.1515,-1.2003,-1.1056,-1.072,-1.044,-0.9996,-1.0061,-1.0144,-1.0509,-1.1191,-1.165,-1.2116,-1.2553,-1.2988,-1.2806,-1.2656,-1.2578,-1.3044,-1.3123,-1.3138,-1.3272,-1.3427,-1.338,-1.3353,-1.34,-1.3586,-1.3693,-1.3794,-1.3995,-1.4082,-1.4088,-1.4088,-1.4088,-1.4088,-1.4088,-1.4088,-1.4088,-1.4088,-1.4088,-1.4088,-1.4088,-1.4088,-1.4088,-1.4088,-1.4088,-1.4088,-1.4088,-1.4088,-1.4088,-1.4088,-1.4088,-1.4088,-1.4088,-1.4088,-1.4088,-1.4135,-1.4168,-1.4202,-1.4269,-1.4449,-1.479,-1.5075,-1.5347,-1.5769,-1.5828,-1.6384,-1.6532,-1.5755,-1.5684,-1.5949,-1.6373,-1.7257,-1.7793,-1.8256,-1.9149,-1.9748,-2.0184,-2.0771,-2.13,-2.1789,-2.2242,-2.2218,-2.1634,-2.2105,-2.2931,-2.3047,-2.3101,-2.3101,-2.3101,-2.3101,-2.3101,-2.3101,-2.3101,-2.3101,-2.3101,-2.3101,-2.3101,-0.63,-0.63,-0.63,-0.63,-0.63,-0.63,-0.63,-0.63,-0.6756,-0.7103,-0.7292,-0.847,-0.8803,-0.8347,-0.9216,-0.9664,-0.9782,-1.0158,-1.0051,-1.0164,-0.9782,-0.9669,-0.9604,-0.9244,-0.9223,-0.9545,-0.9908,-1.0272,-1.079,-1.1129,-1.1292,-1.1286,-1.1391,-1.1483,-1.1567,-1.2114,-1.2584,-1.2572,-1.3073,-1.3348,-1.3396,-1.3717,-1.3941,-1.3968,-1.3988,-1.3975,-1.4088,-1.4088,-1.4088,-1.4088,-1.4088,-1.4088,-1.4088,-1.4088,-1.4088,-1.4088,-1.4088,-1.4088,-1.4088,-1.4088,-1.4088,-1.4088,-1.4088,-1.4088,-1.4088,-1.4088,-1.4088,-1.4088,-1.4088,-1.4088,-1.4088,-1.4088,-1.4095,-1.4175,-1.4282,-1.4342,-1.4409,-1.4776,-1.515,-1.5371,-1.5571,-1.5611,-1.5611,-1.5645,-1.5712,-1.5712,-1.5745,-1.5853,-1.588,-1.6455,-1.7004,-1.7599,-1.881,-1.9442,-1.9684,-1.9847,-2.0257,-2.0435,-2.0703,-2.0603,-2.0539,-2.14,-2.2262,-2.2862,-2.3101,-2.3101,-2.3101,-2.3101,-2.3101,-2.3101,-2.3101,-2.3101,-2.3101,-2.3101,-2.3101,-0.63,-0.63,-0.63,-0.63,-0.63,-0.63,-0.63,-0.63,-0.63,-0.6337,-0.645,-0.7405,-0.7633,-0.733,-0.8199,-0.8627,-0.8742,-0.9183,-0.9448,-0.9334,-0.877,-0.8656,-0.856,-0.8347,-0.8036,-0.8258,-0.906,-0.9582,-1.0074,-1.0504,-1.0677,-1.0481,-1.0481,-1.0481,-1.0605,-1.1252,-1.1558,-1.159,-1.2339,-1.2601,-1.2869,-1.3343,-1.3997,-1.4088,-1.4088,-1.4046,-1.4088,-1.4088,-1.4088,-1.4088,-1.4088,-1.4088,-1.4088,-1.4088,-1.4088,-1.4088,-1.4088,-1.4088,-1.4082,-1.4088,-1.4088,-1.4088,-1.4088,-1.4088,-1.4088,-1.4088,-1.4088,-1.4088,-1.4088,-1.4088,-1.4088,-1.4088,-1.4088,-1.4135,-1.4369,-1.4536,-1.4776,-1.5124,-1.5404,-1.5605,-1.5732,-1.5738,-1.5738,-1.5738,-1.5785,-1.5785,-1.5825,-1.5825,-1.5825,-1.5825,-1.6292,-1.6803,-1.7848,-1.8495,-1.8586,-1.8754,-1.9045,-1.9169,-1.9222,-1.9633,-1.9988,-2.08,-2.1569,-2.2173,-2.2721,-2.3101,-2.3101,-2.295,-2.3047,-2.3101,-2.3101,-2.3101,-2.3101,-2.3101,-2.3101,-0.63,-0.63,-0.63,-0.63,-0.63,-0.63,-0.63,-0.6303,-0.6323,-0.6395,-0.6487,-0.6488,-0.6361,-0.6702,-0.7169,-0.7435,-0.7774,-0.814,-0.8585,-0.8466,-0.7936,-0.7706,-0.7374,-0.6988,-0.7016,-0.7349,-0.8032,-0.8888,-0.962,-0.9701,-0.9701,-1.0086,-1.0178,-1.0135,-1.0178,-1.0351,-1.0394,-1.0481,-1.0788,-1.0783,-1.152,-1.2473,-1.3082,-1.3519,-1.3779,-1.3864,-1.3864,-1.4039,-1.4039,-1.3646,-1.3428,-1.3215,-1.3167,-1.3082,-1.3215,-1.3167,-1.347,-1.3555,-1.373,-1.3913,-1.4039,-1.4088,-1.4088,-1.4088,-1.4095,-1.4102,-1.4102,-1.4102,-1.4102,-1.4135,-1.4135,-1.4168,-1.4168,-1.4282,-1.4556,-1.4785,-1.5157,-1.5438,-1.5618,-1.5805,-1.5812,-1.5825,-1.5825,-1.5825,-1.5825,-1.5825,-1.5825,-1.5825,-1.5825,-1.5825,-1.6015,-1.615,-1.6608,-1.7077,-1.7412,-1.7638,-1.7855,-1.7894,-1.8025,-1.8718,-1.9314,-1.967,-2.035,-2.148,-2.1987,-2.2403,-2.2589,-2.2492,-2.2677,-2.2721,-2.2589,-2.2492,-2.3101,-2.3101,-2.3101,-0.63,-0.63,-0.63,-0.63,-0.63,-0.63,-0.63,-0.632,-0.6419,-0.6494,-0.6495,-0.6593,-0.6617,-0.661,-0.6635,-0.6813,-0.7006,-0.7254,-0.6961,-0.6718,-0.6907,-0.6756,-0.6641,-0.6613,-0.6565,-0.6905,-0.7261,-0.7494,-0.8424,-0.8181,-0.7878,-0.8009,-0.7965,-0.7965,-0.8053,-0.8444,-0.9235,-0.9362,-0.9874,-1.0178,-1.0351,-1.0956,-1.1085,-1.1601,-1.2157,-1.2456,-1.2851,-1.3646,-1.3379,-1.2723,-1.1943,-1.1692,-1.1649,-1.1692,-1.1735,-1.1997,-1.2339,-1.2595,-1.2772,-1.3428,-1.3646,-1.387,-1.3919,-1.4122,-1.4142,-1.4168,-1.4168,-1.4155,-1.4188,-1.4289,-1.4329,-1.4416,-1.4462,-1.4743,-1.5017,-1.5284,-1.5578,-1.5665,-1.5758,-1.5818,-1.5825,-1.5825,-1.5825,-1.5825,-1.5825,-1.5825,-1.5825,-1.5825,-1.5825,-1.5825,-1.5825,-1.5825,-1.5825,-1.5825,-1.6197,-1.6433,-1.6608,-1.6608,-1.6788,-1.7436,-1.7855,-1.8048,-1.8864,-2.0124,-2.098,-2.1471,-2.1614,-2.1667,-2.1614,-2.1569,-2.1623,-2.18,-2.2545,-2.3101,-2.3101]},{"header":{"parameterUnit":"m.s-1","parameterCategory":1,"la1":31.0,"la2":29.5877,"lo1":-88.7671,"lo2":-86.6584,"dy":0.0162,"dx":0.0185,"nx":115,"ny":88,"refTime":"2024-09-22T00:00:00:Z","depth":0,"parameterNumber":3,"parameterNumberName":"V-component_of_WINDS"},"data":[0.0,0.0,0.0,0.0,0.0,0.0,0.0,0.0,0.0,0.0,0.0,0.0,0.0,0.0,0.0,0.0,0.0,0.0,0.0,0.0,0.0,0.0,0.0,0.0,0.0,0.0,0.0,0.0,0.0,0.0,0.0,0.0,0.0,0.0,0.0,0.0,0.0,0.0,0.0,0.0,0.0,0.0,0.0,0.0,0.0,0.0,0.0,0.0,0.0,0.0,0.0,0.0,0.0,0.0,0.0,0.0,0.0,0.0,0.0,0.0,0.0,0.0,0.0,0.0,0.0,0.0,0.0,0.0,0.0,0.0,0.0,0.0,0.0,0.0,0.0,0.0,0.0,0.0,0.0,0.0,0.0,0.0,0.0,0.0,0.0,0.0,0.0,0.0,0.0,0.0,0.0,0.0,0.0,0.0,0.0,0.0,0.0,0.0,0.0,0.0,0.0,0.0,0.0,0.0,0.0,0.0,0.0,0.0,0.0,0.0,0.0,0.0,0.0,0.0,0.0,0.0,0.0,0.0,0.0,0.0,0.0,0.0,0.0,0.0,0.0,0.0,0.0,0.0,0.0,0.0,0.0,0.0,0.0,0.0,0.0,0.0,0.0,0.0,0.0,0.0,0.0,0.0,0.0,0.0,0.0,0.0,0.0,0.0,0.0,0.0,0.0,0.0,0.0,0.0,0.0,0.0,0.0,0.0,0.0,0.0,0.0,0.0,0.0,0.0,0.0,0.0,0.0,0.0,0.0,0.0,0.0,0.0,0.0,0.0,0.0,0.0,0.0,0.0,0.0,0.0,0.0,0.0,0.0,0.0,0.0,0.0,0.0,0.0,0.0,0.0,0.0,0.0,0.0,0.0,0.0,0.0,0.0,0.0,0.0,0.0,0.0,0.0,0.0,0.0,0.0,0.0,0.0,0.0,0.0,0.0,0.0,0.0,0.0,0.0,0.0,0.0,0.0,0.0,0.0,0.0,0.0,0.0,0.0,0.0,0.0,0.0,0.0,0.0,0.0,0.0,0.0,0.0,0.0,0.0,0.0,0.0,0.0,0.0,0.0,0.0,0.0,0.0,0.0,0.0,0.0,0.0,0.0,0.0,0.0,0.0,0.0,0.0,0.0,0.0,0.0,0.0,0.0,0.0,0.0,0.0,0.0,0.0,0.0,0.0,0.0,0.0,0.0,0.0,0.0,0.0,0.0,0.0,0.0,0.0,0.0,0.0,0.0,0.0,0.0,0.0,0.0,0.0,0.0,0.0,0.0,0.0,0.0,0.0,0.0,0.0,0.0,0.0,0.0,0.0,0.0,0.0,0.0,0.0,0.0,0.0,0.0,0.0,0.0,0.0,0.0,0.0,0.0,0.0,0.0,0.0,0.0,0.0,0.0,0.0,0.0,0.0,0.0,0.0,0.0,0.0,0.0,0.0,0.0,0.0,0.0,0.0,0.0,0.0,0.0,0.0,0.0,0.0,0.0,0.0,0.0,0.0,0.0,0.0,0.0,0.0,0.0,0.0,0.0,0.0,0.0,0.0,0.0,0.0,0.0,0.0,0.0,0.0,0.0,0.0,0.0,0.0,0.0,0.0,0.0,0.0,0.0,0.0,0.0,0.0,0.0,0.0,0.0,0.0,0.0,0.0,0.0,0.0,0.0,0.0,0.0,0.0,0.0,0.0,0.0,0.0,0.0,0.0,0.0,0.0,0.0,0.0,0.0,0.0,0.0,0.0,0.0,0.0,0.0,0.0,0.0,0.0,0.0,0.0,0.0,0.0,0.0,0.0,0.0,0.0,0.0,0.0,0.0,0.0,0.0,0.0,0.0,0.0,0.0,0.0,0.0,0.0,0.0,0.0,0.0,0.0,0.0,0.0,0.0,0.0,0.0,0.0,0.0,0.0,0.0,0.0,0.0,0.0,0.0,0.0,0.0,0.0,0.0,0.0,0.0,0.0,0.0,0.0,0.0,0.0,0.0,0.0,0.0,0.0,0.0,0.0,0.0,0.0,0.0,0.0,0.0,0.0,0.0,0.0,0.0,0.0,0.0,0.0,0.0,0.0,0.0,0.0,0.0,0.0,0.0,0.0,0.0,0.0,0.0,0.0,0.0,0.0,0.0,0.0,0.0,0.0,0.0,0.0,0.0,0.0,0.0,0.0,0.0,0.0,0.0,0.0,0.0,0.0,0.0,0.0,0.0,0.0,0.0,0.0,0.0,0.0,0.0,0.0,0.0,0.0,0.0,0.0,0.0,0.0,0.0,0.0,0.0,0.0,0.0,0.0,0.0,0.0,0.0,0.0,0.0,0.0,0.0,0.0,0.0,0.0,0.0,0.0,0.0,0.0,0.0,0.0,0.0,0.0,0.0,0.0,0.0,0.0,0.0,0.0,0.0,0.0,0.0,0.0,0.0,0.0,0.0,0.0,0.0,0.0,0.0,0.0,0.0,0.0,0.0,0.0,0.0,0.0,0.0,0.0,0.0,0.0,0.0,0.0,0.0,0.0,0.0,0.0,0.0,0.0,0.0,0.0,0.0,0.0,0.0,0.0,0.0,0.0,0.0,0.0,0.0,0.0,0.0,0.0,0.0,0.0,0.0,0.0,0.0,0.0,0.0,0.0,0.0,0.0,0.0,0.0,0.0,0.0,0.0,0.0,0.0,0.0,0.0,0.0,0.0,0.0,0.0,0.0,0.0,0.0,0.0,0.0,0.0,0.0,0.0,0.0,0.0,0.0,0.0,0.0,0.0,0.0,0.0,0.0,0.0,0.0,0.0,0.0,0.0,0.0,0.0,0.0,0.0,0.0,0.0,0.0,0.0,0.0,0.0,0.0,0.0,0.0,0.0,0.0,0.0,0.0,0.0,0.0,0.0,0.0,0.0,0.0,0.0,0.0,0.0,0.0,0.0,0.0,0.0,0.0,0.0,0.0,0.0,0.0,0.0,0.0,0.0,0.0,0.0,0.0,0.0,0.0,0.0,0.0,0.0,0.0,0.0,0.0,0.0,0.0,0.0,0.0,0.0,0.0,0.0,0.0,0.0,0.0,0.0,0.0,0.0,0.0,0.0,0.0,0.0,0.0,0.0,0.0,0.0,0.0,0.0,0.0,0.0,0.0,0.0,0.0,0.0,0.0,0.0,0.0,0.0,0.0,0.0,0.0,0.0,0.0,0.0,0.0,0.0,0.0,0.0,0.0,0.0,0.0,0.0,0.0,0.0,0.0,0.0,0.0,0.0,0.0,0.0,0.0,0.0,0.0,0.0,0.0,0.0,0.0,0.0,0.0,0.0,0.0,0.0,0.0,0.0,0.0,0.0,0.0,0.0,0.0,0.0,0.0,0.0,0.0,0.0,0.0,0.0,0.0,0.0,0.0,0.0,0.0,0.0,0.0,0.0,0.0,0.0,0.0,0.0,0.0,0.0,0.0,0.0,0.0,0.0,0.0,0.0,0.0,0.0,0.0,0.0,0.0,0.0,0.0,0.0,0.0,0.0,0.0,0.0,0.0,0.0,0.0,0.0,0.0,0.0,0.0,0.0,0.0,0.0,0.0,0.0,0.0,0.0,0.0,0.0,0.0,0.0,0.0,0.0,0.0,0.0,0.0,0.0,0.0,0.0,0.0,0.0,0.0,0.0,0.0,0.0,0.0,0.0,0.0,0.0,0.0,0.0,0.0,0.0,0.0,0.0,0.0,0.0,0.0,0.0,0.0,0.0,0.0,0.0,0.0,0.0,0.0,0.0,0.0,0.0,0.0,0.0,0.0,0.0,0.0,0.0,0.0,0.0,0.0,0.0,0.0,0.0,0.0,0.0,0.0,0.0,0.0,0.0,0.0,0.0,0.0,0.0,0.0,0.0,0.0,0.0,0.0,0.0,0.0,0.0,0.0,0.0,0.0,0.0,0.0,0.0,0.0,0.0,0.0,0.0,0.0,0.0,0.0,0.0,0.0,0.0,0.0,0.0,0.0,0.0,0.0,0.0,0.0,0.0,0.0,0.0,0.0,0.0,0.0,0.0,0.0,0.0,0.0,0.0,0.0,0.0,0.0,0.0,0.0,0.0,0.0,0.0,0.0,0.0,0.0,0.0,0.0,0.0,0.0,0.0,0.0,0.0,0.0,0.0,0.0,0.0,0.0,0.0,0.0,0.0,0.0,0.0,0.0,0.0,0.0,0.0,0.0,0.0,0.0,0.0,0.0,0.0,0.0,0.0,0.0,0.0,0.0,0.0,0.0,0.0,0.0,0.0,0.0,0.0,0.0,0.0,0.0,0.0,0.0,0.0,0.0,0.0,0.0,0.0,0.0,0.0,0.0,0.0,0.0,0.0,0.0,0.0,0.0,0.0,0.0,0.0,0.0,0.0,0.0,0.0,0.0,0.0,0.0,0.0,0.0,0.0,0.0,0.0,0.0,0.0,0.0,0.0,0.0,0.0,0.0,0.0,0.0,0.0,0.0,0.0,0.0,0.0,0.0,0.0,0.0,0.0,0.0,0.0,0.0,0.0,0.0,0.0,0.0,0.0,0.0,0.0,0.0,0.0,0.0,0.0,0.0,0.0,0.0,0.0,0.0,0.0,0.0,0.0,0.0,0.0,0.0,0.0,0.0,0.0,0.0,0.0,0.0,0.0,0.0,0.0,0.0,0.0,0.0,0.0,0.0,0.0,0.0,0.0,0.0,0.0,0.0,0.0,0.0,0.0,0.0,0.0,0.0,0.0,0.0,0.0,0.0,0.0,0.0,0.0,0.0,0.0,0.0,0.0,0.0,0.0,0.0,0.0,0.2232,0.2286,0.1898,0.1512,0.1091,0.0,0.0,0.0,0.0,0.0,0.0,0.0,0.0,0.0,0.0,0.0,0.0,0.0,0.0,0.0,0.0,0.0,0.0,0.0,0.0,0.0,0.0,0.0,0.0,0.0,0.0,0.0,0.0,0.0,0.0,0.0,0.0,0.0,0.0,0.0,0.0,0.0,0.0,0.0,0.0,0.0,0.0,0.0,0.0,0.0,0.0,0.0,0.0,0.0,0.0,0.0,0.0,0.0,0.0,0.0,0.0,0.0,0.0,0.0,0.0,0.0,0.0,0.0,0.0,0.0,0.0,0.0,0.0,0.0,0.0,0.0,0.0,0.0,0.0,0.0,0.0,0.0,0.0,0.0,0.0,0.0,0.0,0.0,0.0,0.0,0.0,0.0,0.0,0.0,0.0,0.0,0.0,0.0,0.0,0.0,0.0,0.0,0.0,0.0,0.0,0.0,0.0,0.0,0.0,0.0,0.0,0.0,0.0,0.0,0.0,0.0,0.0,0.288,0.2408,0.2125,0.0,0.0,0.0,0.0,0.0,0.0,0.0,0.0,0.0,0.0,0.0,0.0,0.0,0.0,0.0,0.0,0.0,0.0,0.0,0.0,0.0,0.0,0.0,0.0,0.0,0.0,0.0,0.0,0.0,0.0,0.0,0.0,0.0,0.0,0.0,0.0,0.0,0.0,0.0,0.0,0.0,0.0,0.0,0.0,0.0,0.0,0.0,0.0,0.0,0.0,0.0,0.0,0.0,0.0,0.0,0.0,0.0,0.0,0.0,0.0,0.0,0.0,0.0,0.0,0.0,0.0,0.0,0.0,0.0,0.0,0.0,0.0,0.0,0.0,0.0,0.0,0.0,0.0,0.0,0.0,0.0,0.0,0.0,0.0,0.0,0.0,0.0,0.0,0.0,0.0,0.0,0.0,0.0,0.0,0.0,0.0,0.0,0.0,0.0,0.0,0.0,0.0,0.0,0.0,0.0,0.0,0.0,0.0,0.0,0.0,0.4131,0.3772,0.3681,0.0,0.2538,0.0,0.0,0.0,0.0,0.0,0.0,0.0,0.0,0.0,0.0,0.0,0.0,0.0,0.0,0.0,0.0,0.0,0.0,0.0,0.0,0.0,0.0,0.0,0.0,0.0,0.0,0.0,0.0,0.0,0.0,0.0,0.0,0.0,0.0,0.0,0.0,0.0,0.0,0.0,0.0,0.0,0.0,0.0,0.0,0.0,0.0,0.0,0.0,0.0,0.0,0.0,0.0,0.0,0.0,0.0,0.0,0.0,0.0,0.0,0.0,0.0,0.0,0.0,0.0,0.0,0.0,0.0,0.0,0.0,0.0,0.0,0.0,0.0,0.0,0.0,0.0,0.0,0.0,0.0,0.0,0.0,0.0,0.0,0.0,0.0,0.0,0.0,0.0,0.0,0.0,0.0,0.0,0.0,0.0,0.0,0.0,0.0,0.0,0.0,0.0,0.0,0.0,0.0,0.0,0.0,0.0,0.0,0.0,0.0,0.0,0.0,0.4455,0.4298,0.3803,0.0,0.0,0.0,0.0,0.0,0.0,0.0,0.0,0.0,0.0,0.0,0.0,0.0,0.0,0.0,0.0,0.0,0.0,0.0,0.0,0.0,0.0,0.0,0.0,0.0,0.0,0.0,0.0,0.0,0.0,0.0,0.0,0.0,0.0,0.0,0.0,0.0,0.0,0.0,0.0,0.0,0.0,0.0,0.0,0.0,0.0,0.0,0.0,0.0,0.0,0.0,0.0,0.0,0.0,0.0,0.0,0.0,0.0,0.0,0.0,0.0,0.0,0.0,0.0,0.0,0.0,0.0,0.0,0.0,0.0,0.0,0.0,0.0,0.0,0.0,0.0,0.0,0.0,0.0,0.0,0.0,0.0,0.0,0.0,0.0,0.0,0.0,0.0,0.0,0.0,0.0,0.0,0.0,0.0,0.0,0.0,0.0,0.0,0.0,0.0,0.0,0.0,0.0,0.0,0.0,0.0,0.0,0.0,0.0,0.0,0.4662,0.0,0.4877,0.4745,0.4226,0.3377,0.0,0.0,0.0,0.0,0.0,0.0,0.0,0.0,0.0,0.0,0.0,0.0,0.0,0.0,0.0,0.0,0.0,0.0,0.0,0.0,0.0,0.0,0.0,0.0,0.0,0.0,0.0,0.0,0.0,0.0,0.0,0.0,0.0,0.0,0.0,0.0,0.0,0.0,0.0,0.0,0.0,0.0,0.0,0.0,0.0,0.0,0.0,0.0,0.0,0.0,0.0,0.0,0.0,0.0,0.0,0.0,0.0,0.0,0.0,0.0,0.0,0.0,0.0,0.0,0.0,0.0,0.0,0.0,0.0,0.0,0.0,0.0,0.0,0.0,0.0,0.0,0.0,0.0,0.0,0.0,0.0,0.0,0.0,0.0,0.0,0.0,0.0,0.0,0.0,0.0,0.0,0.0,0.0,0.0,0.0,0.0,0.0,0.0,0.0,0.0,0.0,0.0,0.0,0.0,0.0,0.0,0.0,0.0,0.0,0.4716,0.4626,0.4918,0.5002,0.4729,0.0,0.0,0.0,0.0,0.0,0.0,0.0,0.0,0.0,0.0,0.0,0.0,0.0,0.0,0.0,0.0,0.0,0.0,0.0,0.0,0.0,0.0,0.0,0.0,0.0,0.0,0.0,0.0,0.0,0.0,0.0,0.0,0.0,0.0,0.0,0.0,0.0,0.0,0.0,0.0,0.0,0.0,0.0,0.0,0.0,0.0,0.0,0.0,0.0,0.0,0.0,0.0,0.0,0.0,0.0,0.0,0.0,0.0,0.0,0.0,0.0,0.0,0.0,0.0,0.0,0.0,0.0,0.0,0.0,0.0,0.0,0.0,0.0,0.0,0.0,0.0,0.0,0.0,0.0,0.0,0.0,0.0,0.0,0.0,0.0,0.0,0.0,0.0,0.0,0.0,0.0,0.0,0.0,0.0,0.0,0.0,0.0,0.0,0.0,0.0,0.0,0.0,0.0,0.0,0.0,0.0,0.0,0.0,0.0,0.4263,0.4423,0.473,0.5194,0.4668,0.4267,0.0,0.0,0.0,0.0,0.0,0.0,0.0,0.0,0.0,0.0,0.0,0.0,0.0,0.0,0.0,0.0,0.0,0.0,0.0,0.0,0.0,0.0,0.0,0.0,0.0,0.0,0.0,0.0,0.0,0.0,0.0,0.0,0.0,0.0,0.0,0.0,0.0,0.0,0.0,0.0,0.0,0.0,0.0,0.0,0.0,0.0,0.0,0.0,0.0,0.0,0.0,0.0,0.0,0.0,0.0,0.0,0.0,0.0,0.0,0.0,0.0,0.0,0.0,0.0,0.0,0.0,0.0,0.0,0.0,0.0,0.0,0.0,0.0,0.0,0.0,0.0,0.0,0.0,0.0,0.0,0.0,0.0,0.0,0.0,0.0,0.0,0.0,0.0,0.0,0.0,0.0,0.0,0.0,0.0,0.0,0.0,0.0,0.0,0.0,0.0,0.0,0.0,0.0,0.0,0.0,0.0,0.0,0.0,0.0,0.404,0.0,0.489,0.0,0.4511,0.4026,0.0,0.0,0.0,0.0,0.0,0.0,0.0,0.0,0.0,0.0,0.0,0.0,0.0,0.0,0.0,0.0,0.0,0.0,0.0,0.0,0.0,0.0,0.0,0.0,0.0,0.0,0.0,0.0,0.0,0.0,0.0,0.0,0.0,0.0,0.0,0.0,0.0,0.0,0.0,0.0,0.0,0.0,0.0,0.0,0.0,0.0,0.0,0.0,0.0,0.0,0.0,0.0,0.0,0.0,0.0,0.0,0.0,0.0,0.0,0.0,0.0,0.0,0.0,0.0,0.0,0.0,0.0,0.0,0.0,0.0,0.0,0.0,0.0,0.0,0.0,0.0,0.0,0.0,0.0,0.0,0.0,0.0,0.0,0.0,0.0,0.0,0.0,0.0,0.0,0.0,0.0,0.0,0.0,0.0,0.0,0.0,0.0,0.0,0.0,0.0,0.0,0.0,0.0,0.0,0.0,0.0,0.0,0.0,0.3873,0.447,0.504,0.5068,0.456,0.4474,0.4054,0.0,0.0,0.0,0.0,0.0,0.0,0.0,0.0,0.0,0.0,0.0,0.0,0.0,0.0,0.0,0.0,0.0,0.0,0.0,0.0,0.0,0.0,0.0,0.0,0.0,0.0,0.0,0.0,0.0,0.0,0.0,0.0,0.0,0.0,0.0,0.0,0.0,0.0,0.0,0.0,0.0,0.0,0.0,0.0,0.0,0.0,0.0,0.0,0.0,0.0,0.0,0.0,0.0,0.0,0.0,0.0,0.0,0.0,0.0,0.0,0.0,0.0,0.0,0.0,0.0,0.0,0.0,0.0,0.0,0.0,0.0,0.0,0.0,0.0,0.0,0.0,0.0,0.0,0.0,0.0,0.0,0.0,0.0,0.0,0.0,0.0,0.0,0.0,0.0,0.0,0.0,0.0,0.0,0.0,0.0,0.0,0.0,0.0,0.0,0.0,0.0,0.0,0.0,0.0,0.0,0.0,0.0,0.0,0.0,0.4284,0.4466,0.4672,0.4887,0.4226,0.3819,0.0,0.0,0.0,0.0,0.0,0.0,0.0,0.0,0.0,0.0,0.0,0.0,0.0,0.0,0.0,0.0,0.0,0.0,0.0,0.0,0.0,0.0,0.0,0.0,0.0,0.0,0.0,0.0,0.0,0.0,0.0,0.0,0.0,0.0,0.0,0.0,0.0,0.0,0.0,0.0,0.0,0.0,0.0,0.0,0.0,0.0,0.0,0.0,0.0,0.0,0.0,0.0,0.0,0.0,0.0,0.0,0.0,0.0,0.0,0.0,0.0,0.0,0.0,0.0,0.0,0.0,0.0,0.0,0.0,0.0,0.0,0.0,0.0,0.0,0.0,0.0,0.0,0.0,0.0,0.0,0.0,0.0,0.0,0.0,0.0,0.0,0.0,0.0,0.0,0.0,0.0,0.0,0.0,0.0,0.0,0.0,0.0,0.0,0.0,0.0,0.0,0.0,0.0,0.0,0.0,0.0,0.0,0.0,0.0,0.5248,0.4797,0.4672,0.4931,0.42,0.3836,0.3843,0.0,0.0,0.0,0.0,0.0,0.0,0.0,0.0,0.0,0.0,0.0,0.0,0.0,0.0,0.0,0.0,0.0,0.0,0.0,0.0,0.0,0.0,0.0,0.0,0.0,0.0,0.0,0.0,0.0,0.0,0.0,0.0,0.0,0.0,0.0,0.0,0.0,0.0,0.0,0.0,0.0,0.0,0.0,0.0,0.0,0.0,0.0,0.0,0.0,0.0,0.0,0.0,0.0,0.0,0.0,0.0,0.0,0.0,0.0,0.0,0.0,0.0,0.0,0.0,0.0,0.0,0.0,0.0,0.0,0.0,0.0,0.0,0.0,0.0,0.0,0.0,0.0,0.0,0.0,0.0,0.0,0.0,0.0,0.0,0.0,0.0,0.0,0.0,0.0,0.0,0.0,0.0,0.0,0.0,0.0,0.0,0.0,0.0,0.0,0.0,0.0,0.0,0.0,0.0,0.0,0.0,0.0,0.0,0.7105,0.5896,0.5123,0.4833,0.4453,0.4031,0.0,0.0,0.0,0.0,0.0,0.0,0.0,0.0,0.0,0.0,0.0,0.0,0.0,0.0,0.0,0.0,0.0,0.0,0.0,0.0,0.0,0.0,0.0,0.0,0.0,0.0,0.0,0.0,0.0,0.0,0.0,0.0,0.0,0.0,0.0,0.0,0.0,0.0,0.0,0.0,0.0,0.0,0.0,0.0,0.0,0.0,0.0,0.0,0.0,0.0,0.0,0.0,0.0,0.0,0.0,0.0,0.0,0.0,0.0,0.0,0.0,0.0,0.0,0.0,0.0,0.0,0.0,0.0,0.0,0.0,0.0,0.0,0.0,0.0,0.0,0.0,0.0,0.0,0.0,0.0,0.0,0.0,0.0,0.0,0.0,0.0,0.0,0.0,0.0,0.0,0.0,0.0,0.0,0.0,0.0,0.0,0.0,0.0,0.0,0.0,0.0,0.0,0.0,0.0,0.0,0.0,0.0,0.0,0.0,0.7218,0.708,0.6737,0.6168,0.5045,0.4304,0.0,0.0,0.0,0.0,0.0,0.0,0.0,0.0,0.0,0.0,0.0,0.0,0.0,0.0,0.0,0.0,0.0,0.0,0.0,0.0,0.0,0.0,0.0,0.0,0.0,0.0,0.0,0.0,0.0,0.0,0.0,0.0,0.0,0.0,0.0,0.0,0.0,0.0,0.0,0.0,0.0,0.0,0.0,0.0,0.0,0.0,0.0,0.0,0.0,0.0,0.0,0.0,0.0,0.0,0.0,0.0,0.0,0.0,0.0,0.0,0.0,0.0,0.0,0.0,0.0,0.0,0.0,0.0,0.0,0.0,0.0,0.0,0.0,0.0,0.0,0.0,0.0,0.0,0.0,0.0,0.0,0.0,0.0,0.0,0.0,0.0,0.0,0.0,0.0,0.0,0.0,0.0,0.0,0.0,0.0,0.0,0.0,0.0,0.0,0.0,0.0,0.0,0.0,0.0,0.0,0.0,0.0,0.0,0.7445,0.8293,0.8004,0.7825,0.7795,0.6481,0.5543,0.0,0.0,0.0,0.0,0.0,0.0,0.0,0.0,0.0,0.0,0.0,0.0,0.0,0.0,0.0,0.0,0.0,0.0,0.0,0.0,0.0,0.0,0.0,0.0,0.0,0.0,0.0,0.0,0.0,0.0,0.0,0.0,0.0,0.0,0.0,0.0,0.0,0.0,0.0,0.0,0.0,0.0,0.0,0.0,0.0,0.0,0.0,0.0,0.0,0.0,0.0,0.0,0.0,0.0,0.0,0.0,0.0,0.0,0.0,0.0,0.0,0.0,0.0,0.0,0.0,0.0,0.0,0.0,0.0,0.0,0.0,0.0,0.0,0.0,0.0,0.0,0.0,0.0,0.0,0.0,0.0,0.0,0.0,0.0,0.0,0.0,0.0,0.0,0.0,0.0,0.0,0.0,0.0,0.0,0.0,0.0,0.0,0.0,0.0,0.0,0.0,0.0,0.0,0.0,0.0,0.0,0.0,0.0,0.8563,0.9657,0.8774,0.8646,0.9352,0.8179,0.7144,0.0,0.0,0.0,0.0,0.0,0.0,0.0,0.0,0.0,0.0,0.0,0.0,0.0,0.0,0.0,0.0,0.0,0.0,0.0,0.0,0.0,0.0,0.0,0.0,0.0,0.0,0.0,0.0,0.0,0.0,0.0,0.0,0.0,0.0,0.0,0.0,0.0,0.0,0.0,0.0,0.0,0.0,0.0,0.0,0.0,0.0,0.0,0.0,0.0,0.0,0.0,0.0,0.0,0.0,0.0,0.0,0.0,0.0,0.0,0.0,0.0,0.0,0.0,0.0,0.0,0.0,0.0,0.0,0.0,0.0,0.0,0.0,0.0,0.0,0.0,0.0,0.0,0.0,0.0,0.0,0.0,0.0,0.0,0.0,0.0,0.0,0.0,0.0,0.0,0.0,0.0,0.0,0.0,0.0,0.0,0.0,0.0,0.0,0.0,0.0,0.0,0.0,0.0,0.0,0.0,0.0,0.0,0.0,0.9175,0.9686,0.994,1.0136,1.0295,0.8387,0.7091,0.0,0.0,0.0,0.0,0.0,0.0,0.0,0.0,0.0,0.0,0.0,0.0,0.0,0.0,0.0,0.0,0.0,0.0,0.0,0.0,0.0,0.0,0.0,0.0,0.0,0.0,0.0,0.0,0.0,0.0,0.0,0.0,0.0,0.0,0.0,0.0,0.0,0.0,0.0,0.0,0.0,0.0,0.0,0.0,0.0,0.0,0.0,0.0,0.7013,0.0,0.0,0.0,0.0,0.0,0.0,0.0,0.0,0.0,0.0,0.0,0.0,0.0,0.0,0.0,0.0,0.0,0.0,0.0,0.0,0.0,0.0,0.0,0.0,0.0,0.0,0.0,0.0,0.0,0.0,0.0,0.0,0.0,0.0,0.0,0.0,0.0,0.0,0.0,0.0,0.0,0.0,0.0,0.0,0.0,0.0,0.0,0.0,0.0,0.0,0.0,0.0,0.0,0.0,0.0,0.0,0.0,0.0,0.0,0.9526,0.9722,1.0291,1.0526,1.0347,0.9088,0.816,0.0,0.0,0.0,0.0,0.0,0.0,0.0,0.0,0.0,0.0,0.0,0.0,0.0,0.0,0.0,0.0,0.0,0.0,0.0,0.0,0.0,0.0,0.0,0.0,0.0,0.0,0.0,0.0,0.0,0.0,0.0,0.0,0.0,0.0,0.0,0.0,0.0,0.0,0.0,0.0,0.0,0.0,0.0,0.0,0.0,0.0,0.0,0.0,0.0,0.0,0.0,0.0,0.0,0.0,0.0,0.0,0.0,0.0,0.0,0.0,0.0,0.0,0.0,0.0,0.0,0.0,0.0,0.0,0.0,0.0,0.0,0.0,0.0,0.0,0.0,0.0,0.0,0.0,0.0,0.0,0.0,0.0,0.0,0.0,0.0,0.0,0.0,0.0,0.0,0.0,0.0,0.0,0.0,0.0,0.0,0.0,0.0,0.0,0.0,0.0,0.0,0.0,0.0,0.0,0.0,0.0,0.0,0.8697,0.9554,0.9662,1.0177,1.0338,1.0023,0.9766,0.9319,0.8684,0.0,0.0,0.0,0.0,0.0,0.0,0.0,0.0,0.0,0.0,0.0,0.0,0.0,0.0,0.0,0.0,0.0,0.0,0.0,0.0,0.0,0.0,0.0,0.0,0.0,0.0,0.0,0.0,0.0,0.0,0.0,0.0,0.0,0.0,0.0,0.0,0.0,0.0,0.6476,0.7787,0.0,0.0,0.0,0.0,0.0,0.0,0.0,0.0,0.7958,0.0,0.0,0.0,0.0,0.0,0.0,0.0,0.0,0.0,0.0,0.0,0.0,0.0,0.0,0.0,0.0,0.0,0.0,0.0,0.0,0.0,0.0,0.0,0.0,0.0,0.0,0.0,0.0,0.0,0.0,0.0,0.0,0.0,0.0,0.0,0.0,0.0,0.0,0.0,0.0,0.0,0.0,0.0,0.0,0.0,0.0,0.0,0.0,0.0,0.0,0.0,0.0,0.0,0.0,0.0,0.0,0.7752,0.8317,0.8818,0.9277,0.9653,0.9836,0.9746,0.9472,0.8898,0.8072,0.0,0.0,0.0,0.0,0.0,0.0,0.0,0.0,0.0,0.0,0.0,0.0,0.0,0.0,0.0,0.0,0.0,0.0,0.0,0.0,0.0,0.0,0.0,0.0,0.0,0.0,0.0,0.0,0.0,0.0,0.0,0.0,0.0,0.0,0.0,0.0,0.0,0.0,0.0,0.9031,0.9672,0.0,0.0,0.0,0.0,0.0,0.0,0.0,0.0,0.8966,0.0,0.0,0.0,0.0,0.0,0.0,0.0,0.0,0.0,0.0,0.0,0.0,0.0,0.0,0.0,0.0,0.0,0.0,0.0,0.0,0.0,0.0,0.0,0.0,0.0,0.0,0.0,0.0,0.0,0.0,0.0,0.0,0.0,0.0,0.0,0.0,0.0,0.0,0.0,0.0,0.0,0.0,0.0,0.0,0.0,0.0,0.0,0.0,0.0,0.0,0.0,0.0,0.0,0.0,0.0,0.7439,0.8357,0.8938,0.9176,0.9532,0.9613,0.9446,0.9018,0.845,0.0,0.0,0.0,0.0,0.0,0.0,0.0,0.0,0.0,0.0,0.0,0.0,0.0,0.0,0.0,0.0,0.0,0.0,0.0,0.0,0.0,0.0,0.0,0.0,0.0,0.0,0.0,0.0,0.0,0.0,0.0,0.0,0.0,0.0,0.0,0.0,0.0,0.0,0.0,0.0,1.009,1.0444,1.0646,0.0,0.0,0.0,0.0,0.0,0.0,0.9667,0.9475,0.0,0.0,0.0,0.0,0.0,0.0,0.0,0.0,0.0,0.0,0.0,0.0,0.0,0.0,0.0,0.0,0.0,0.0,0.0,0.0,0.0,0.0,0.0,0.0,0.0,0.0,0.0,0.0,0.0,0.0,0.0,0.0,0.0,0.0,0.0,0.0,0.0,0.0,0.0,0.0,0.0,0.0,0.0,0.0,0.0,0.0,0.0,0.0,0.0,0.0,0.0,0.0,0.0,0.0,0.0,0.7258,0.8619,0.9422,0.9521,0.9785,0.9799,0.9514,0.9017,0.841,0.0,0.0,0.0,0.0,0.0,0.0,0.0,0.0,0.0,0.0,0.0,0.0,0.0,0.0,0.0,0.0,0.0,0.0,0.0,0.0,0.0,0.0,0.0,0.0,0.0,0.0,0.0,0.0,0.0,0.0,0.0,0.0,0.0,0.0,0.0,0.0,0.0,0.0,0.0,0.0,0.0,1.1292,1.1514,1.1205,0.0,0.0,0.0,0.0,1.0705,1.0527,0.0,0.0,0.0,0.0,0.0,0.0,0.0,0.0,0.0,0.0,0.0,0.0,0.0,0.0,0.0,0.0,0.0,0.0,0.0,0.0,0.0,0.0,0.0,0.0,0.0,0.0,0.0,0.0,0.0,0.0,0.0,0.0,0.0,0.0,0.0,0.0,0.0,0.0,0.0,0.0,0.0,0.0,0.0,0.0,0.0,0.0,0.0,0.0,0.0,0.0,0.0,0.0,0.0,0.0,0.0,0.0,0.8,0.9249,1.0124,1.0584,1.0647,1.0639,1.0598,1.0204,0.9368,0.0,0.0,0.0,0.0,0.0,0.0,0.0,0.0,0.0,0.0,0.0,0.0,0.0,0.0,0.0,0.0,0.0,0.0,0.0,0.0,0.0,0.0,0.0,0.0,0.0,0.0,0.0,0.0,0.0,0.0,0.0,0.0,0.0,0.0,0.0,0.0,0.0,0.0,0.0,0.0,0.0,1.2526,1.2173,1.1663,1.1486,0.0,0.0,1.181,1.1973,1.2287,0.0,0.0,0.0,0.0,0.0,0.0,0.0,0.0,0.0,0.0,0.0,0.0,0.0,0.0,0.0,0.0,0.0,0.0,0.0,0.0,0.0,0.0,0.0,0.0,0.0,0.0,0.0,0.0,0.0,0.0,0.0,0.0,0.0,0.0,0.0,0.0,0.0,0.0,0.0,0.0,0.0,0.0,0.0,0.0,0.0,0.0,0.0,0.0,0.0,0.0,0.0,0.0,0.0,0.0,0.0,0.7455,0.8443,0.9547,1.0325,1.0788,1.0813,1.0813,1.0813,1.007,0.9175,0.0,0.0,0.0,0.0,0.0,0.0,0.0,0.0,0.0,0.0,0.0,0.0,0.0,0.0,0.0,0.0,0.0,0.0,0.0,0.0,0.0,0.0,0.0,0.0,0.0,0.0,0.0,0.0,0.0,0.0,0.0,0.0,0.0,0.0,0.0,0.0,0.0,0.0,0.0,0.0,0.0,0.0,1.2886,1.2541,0.0,0.0,0.0,1.2612,1.29,0.0,0.0,0.0,0.0,0.0,0.0,0.0,0.0,0.0,0.0,0.0,0.0,0.0,0.0,0.0,0.0,0.0,0.0,0.0,0.0,0.0,0.0,0.0,0.0,0.0,0.0,0.0,0.0,0.0,0.0,0.0,0.0,0.0,0.0,0.0,0.0,0.0,0.0,0.0,0.0,0.0,0.0,0.0,0.0,0.0,0.0,0.0,0.0,0.0,0.0,0.0,0.0,0.0,0.0,0.0,0.0,0.0,0.895,1.022,1.1024,1.1325,1.1334,1.1334,1.1308,1.0391,0.0,0.0,0.0,0.0,0.0,0.0,0.0,0.0,0.0,0.0,0.0,0.0,0.0,0.0,0.0,0.0,0.0,0.0,0.0,0.0,0.0,0.0,0.0,0.0,0.0,0.0,0.0,0.5231,0.0,0.0,0.0,0.0,0.0,0.0,0.0,0.0,0.0,0.0,0.0,0.0,0.0,0.0,1.2759,1.3428,1.333,1.3418,0.0,0.0,1.3262,1.3467,1.3242,1.2768,0.0,0.0,0.0,0.0,0.0,0.0,0.0,0.0,0.0,0.0,0.0,0.0,0.0,0.0,0.0,0.0,0.0,0.0,0.0,0.0,0.0,0.0,0.0,0.0,0.0,0.0,0.0,0.0,0.0,0.0,0.0,0.0,0.0,0.0,0.0,0.0,0.0,0.0,0.0,0.0,0.0,0.0,0.0,0.0,0.0,0.0,0.0,0.0,0.0,0.0,0.0,0.0,0.0,0.0,0.0,0.9684,1.1658,1.2711,1.2759,1.2749,1.2774,1.273,1.1901,1.0649,0.0,0.0,0.0,0.0,0.0,0.0,0.0,0.0,0.0,0.0,0.0,0.0,0.0,0.0,0.0,0.0,0.0,0.0,0.0,0.0,0.0,0.0,0.0,0.0,0.0,0.0,0.0,0.0,0.0,0.0,0.0,0.0,0.0,0.0,0.0,0.0,0.0,0.0,0.0,0.0,0.0,1.3437,1.3506,1.3792,1.4036,0.0,0.0,1.389,1.3539,1.3461,1.3174,1.2301,0.0,0.0,0.0,0.0,0.0,0.0,0.0,0.0,0.0,0.0,0.0,0.0,0.0,0.0,0.0,0.0,0.0,0.0,0.0,0.0,0.0,0.0,0.0,0.0,0.0,0.0,0.0,0.0,0.0,0.0,0.0,0.0,0.0,0.0,0.0,0.0,0.0,0.0,0.0,0.0,0.0,0.0,0.0,0.0,0.0,0.0,0.0,0.0,0.0,0.0,0.0,0.0,0.0,0.9101,1.0079,1.164,1.2607,1.2895,1.2915,1.2915,1.2915,1.2077,1.1042,0.0,0.0,0.0,0.0,0.0,0.0,0.0,0.0,0.0,0.0,0.0,0.0,0.0,0.0,0.0,0.0,0.0,0.0,0.0,0.0,0.0,0.0,0.0,0.0,0.0,0.0,0.0,0.0,0.8066,0.8516,0.85,0.0,0.0,0.0,0.0,0.0,0.0,0.0,0.0,0.0,0.0,1.3691,1.4219,1.4434,0.0,0.0,1.4697,1.4394,1.3938,1.387,1.349,1.2365,1.1921,0.0,0.0,0.0,0.0,0.0,0.0,0.0,0.0,0.0,0.0,0.0,0.0,0.0,0.0,0.0,0.0,0.0,0.0,0.0,0.0,0.0,0.0,0.0,0.0,0.0,0.0,0.0,0.0,0.0,0.0,0.0,0.0,0.0,0.0,0.0,0.0,0.0,0.0,0.0,0.0,0.0,0.0,0.0,0.0,0.0,0.0,0.0,0.0,0.0,0.0,0.0,0.0,0.9131,1.0293,1.1699,1.2578,1.2895,1.2915,1.2915,1.2895,1.2181,1.131,0.0,0.0,0.0,0.0,0.0,0.0,0.0,0.0,0.0,0.0,0.0,0.0,0.0,0.0,0.0,0.0,0.0,0.0,0.0,0.0,0.0,0.0,0.0,0.0,0.0,0.0,0.0,0.0,0.8555,0.8809,0.8818,0.0,0.0,0.0,0.0,0.0,0.0,0.0,0.0,0.0,0.0,1.416,1.4873,1.4971,1.5078,1.5342,1.4941,1.4482,1.4153,1.4007,1.3627,1.273,0.0,0.0,0.0,0.0,0.0,0.0,0.0,0.0,0.0,0.0,0.0,0.0,0.0,0.0,0.0,0.0,0.0,0.0,0.0,0.0,0.0,0.0,0.0,0.0,0.0,0.0,0.0,0.0,0.0,0.0,0.5869,0.0,0.0,0.0,0.0,0.0,0.0,0.0,0.0,0.0,0.0,0.0,0.0,0.0,0.0,0.0,0.0,0.0,0.0,0.0,0.0,0.0,0.0,0.0,1.0312,1.205,1.291,1.2929,1.2905,1.2929,1.2944,1.2441,1.1602,1.0361,0.0,0.0,0.0,0.0,0.0,0.0,0.0,0.0,0.0,0.0,0.0,0.0,0.0,0.0,0.0,0.0,0.0,0.0,0.0,0.0,0.0,0.0,0.0,0.0,0.0,0.0,0.7783,0.8135,0.845,0.0,0.0,0.0,0.0,0.0,0.0,0.0,0.0,0.0,0.0,1.4246,1.4912,1.5361,1.54,1.541,1.5449,1.4707,1.417,1.4177,1.3809,1.349,0.0,0.0,0.0,0.0,0.0,0.0,0.0,0.0,0.0,0.0,0.0,0.0,0.0,0.0,0.0,0.0,0.0,0.0,0.0,0.0,0.0,0.0,0.0,0.0,0.0,0.0,0.0,0.9229,0.8731,0.0,0.0,0.0,0.0,0.0,0.0,0.0,0.0,0.0,0.0,0.0,1.1705,1.2651,0.0,0.0,0.0,0.0,0.0,0.0,0.0,0.0,0.0,0.0,0.0,0.0,1.0459,1.1344,1.3158,1.4107,1.4095,1.4084,1.4084,1.4084,1.3679,1.2848,1.1527,0.0,0.0,0.0,0.0,0.0,0.0,0.0,0.0,0.0,0.0,0.0,0.0,0.0,0.0,0.0,0.0,0.0,0.0,0.0,0.0,0.0,0.0,0.0,0.0,0.0,0.8623,0.0,0.0,0.0,0.0,0.0,0.0,0.0,0.0,0.0,0.0,0.0,1.4283,1.4992,1.5361,1.5684,1.6079,1.6122,1.6112,0.0,0.0,0.0,0.0,0.0,0.0,0.0,0.0,0.0,0.0,0.0,0.0,0.0,0.0,1.6225,1.4069,1.3277,1.2858,1.2557,0.0,0.0,0.0,0.0,0.0,0.0,0.0,0.0,0.0,0.0,0.0,0.0,0.0,0.0,1.0937,0.0,0.9845,0.0,0.0,0.0,0.0,0.0,0.0,0.0,0.0,1.3539,1.3961,1.3655,1.4622,1.4456,0.0,1.3287,1.2063,0.0,0.0,0.0,0.0,0.0,0.0,0.0,0.0,1.1384,1.2112,1.3795,1.4709,1.4709,1.4709,1.4709,1.4698,1.4305,1.3773,1.305,1.226,1.1439,0.0,0.0,0.0,0.0,0.0,0.0,0.0,0.0,0.0,0.0,0.0,0.0,0.0,0.0,0.0,0.0,0.0,0.0,0.0,0.0,0.0,0.0,0.0,0.9574,0.0,0.0,0.0,0.0,0.0,0.0,0.0,0.0,0.0,1.3468,1.469,1.5939,1.6732,1.6629,1.6649,1.7133,0.0,0.0,0.0,0.0,0.0,0.0,0.0,1.667,1.7546,1.7382,1.7465,1.8445,1.9167,1.9477,1.9064,0.0,0.0,1.6591,1.5679,1.529,1.5175,1.4956,1.4977,1.5552,1.5468,1.5479,0.0,0.0,0.0,0.0,0.0,0.0,0.0,0.0,1.225,1.213,0.0,1.1864,0.0,0.0,0.0,0.0,0.0,1.2589,0.0,0.0,1.5898,1.6475,1.6463,1.6463,1.6199,1.5768,1.6187,1.5434,1.3507,1.1299,0.0,0.0,0.0,0.0,0.0,0.0,1.2204,1.2721,1.4101,1.4766,1.4766,1.4766,1.4778,1.4789,1.4416,1.4426,1.4775,1.3583,1.2646,1.2106,1.0684,0.0,0.0,0.0,0.0,0.0,0.0,0.0,0.0,0.0,0.0,0.0,0.0,0.0,0.0,0.0,0.0,0.0,0.0,0.0,0.0,1.035,0.0,0.0,0.0,0.0,0.0,0.0,0.0,0.0,0.0,0.0,1.6017,1.6621,1.7485,1.8475,0.0,0.0,0.0,0.0,1.7896,1.8493,1.8198,1.8107,1.8623,1.8652,1.864,1.8714,0.0,0.0,1.9885,2.0779,2.1157,2.0036,2.0772,2.1096,1.9655,1.8504,1.8011,1.843,1.7788,1.7599,1.8323,1.789,1.7575,1.5214,0.0,0.0,0.0,0.0,1.4093,1.4523,1.5213,1.4831,1.4421,1.3976,1.3609,0.0,0.0,0.0,0.0,0.0,0.0,1.4419,1.5475,1.5781,1.6132,1.65,1.6513,1.6412,1.6274,1.6425,1.6207,1.5624,1.4591,1.3004,1.0981,0.0,0.0,0.0,0.0,1.3832,1.4358,1.5422,1.5976,1.5976,1.5976,1.5986,1.5998,1.5874,1.5865,1.6015,1.5274,1.4624,1.4069,1.2531,0.0,0.0,0.0,0.0,0.0,0.0,0.0,0.0,0.0,0.0,0.0,0.0,0.0,0.0,0.0,0.0,0.0,0.0,0.0,1.0661,1.1187,1.1661,0.0,0.0,0.0,0.0,0.0,0.0,0.0,0.0,0.0,1.9664,1.9724,1.9543,0.0,0.0,1.9519,1.9308,1.9448,1.9648,1.9829,2.0189,0.0,0.0,1.9957,1.9817,2.1043,2.1834,2.2261,2.2142,2.2401,2.2539,2.2159,2.2401,2.2471,2.204,2.0727,1.9781,1.9811,1.9241,1.8901,1.9377,1.9334,1.9285,1.7219,1.5261,1.5367,1.5604,1.5864,1.5638,1.5906,1.6463,1.6158,1.5844,1.5505,1.5198,1.4431,1.3383,1.3174,0.0,0.0,0.0,1.5198,1.6019,1.6019,1.6195,1.6488,1.6513,1.6513,1.6513,1.6513,1.6513,1.6509,1.6183,1.5017,1.3113,0.0,0.0,1.3138,1.425,1.4988,1.529,1.6085,1.6513,1.6513,1.6513,1.6513,1.6513,1.6513,1.6513,1.65,1.6195,1.5768,1.5236,1.4067,1.278,0.0,0.0,0.0,0.0,0.0,0.0,0.0,0.0,0.0,0.0,0.0,0.8667,0.0,0.0,0.0,0.0,0.9871,1.1031,1.2719,1.2994,0.0,0.0,0.0,0.0,0.0,0.0,0.0,1.892,1.9589,2.0365,2.1653,2.1719,2.1503,2.1052,2.0909,2.0799,2.0689,0.0,2.0909,2.1128,2.1522,2.1895,2.2096,2.1531,2.1428,2.2422,2.2869,2.3095,2.3095,2.3095,2.3095,2.3095,2.3095,2.3095,2.3095,2.2177,2.147,2.1458,2.0936,2.0677,2.107,2.0919,2.0807,1.8806,1.8279,1.7865,1.7564,1.7348,1.681,1.6525,1.6513,1.65,1.6513,1.6522,1.6552,1.6048,1.5133,1.4607,0.0,1.5899,1.5858,1.6123,1.6637,1.6637,1.6637,1.6637,1.6595,1.6552,1.6573,1.6509,1.6509,1.6565,1.6522,1.6258,1.5817,1.5293,1.5009,1.4984,1.55,1.5756,1.5768,1.6237,1.6513,1.6513,1.6513,1.6513,1.6513,1.645,1.6437,1.6425,1.6409,1.6145,1.5676,1.5123,1.4104,1.2526,0.0,0.0,0.0,0.0,0.0,0.0,0.0,0.0,0.0,0.0,0.0,0.0,0.0,0.0,0.0,1.2751,0.0,1.5555,1.5299,0.0,0.0,0.0,1.6572,1.8279,1.8845,1.9559,2.0704,0.0,0.0,2.2343,2.2794,2.3095,2.3095,2.223,2.1794,2.2259,2.1892,2.1807,2.2251,2.2343,2.2531,2.2907,2.2952,2.294,2.3032,2.3095,2.3095,2.3095,2.3095,2.3095,2.3095,2.3095,2.3095,2.3095,2.3015,2.3095,2.3015,2.2652,2.2464,2.2812,2.2408,2.1966,2.0013,1.9472,1.9894,1.9027,1.7398,1.726,1.6923,1.6513,1.6513,1.6513,1.6543,1.693,1.7194,1.7314,1.6778,1.691,1.751,1.7101,1.7221,1.7693,1.7727,1.7727,1.7706,1.7291,1.7105,1.7084,1.6689,1.671,1.7063,1.6701,1.6646,1.6889,1.6379,1.5919,1.555,1.6045,1.63,1.63,1.6425,1.6513,1.6513,1.6513,1.6513,1.6522,1.612,1.5894,1.5881,1.5512,1.5223,1.5085,1.4576,1.3909,1.3052,1.1435,0.0,0.0,0.0,0.0,0.0,0.0,0.0,0.0,0.0,1.2134,0.988,0.0,1.3162,0.0,1.4206,1.5279,1.5655,1.5944,0.0,0.0,1.7917,1.8417,2.0476,2.0478,2.069,2.1794,2.2159,2.2443,2.2857,2.302,2.3095,2.3095,2.2882,2.2606,2.2355,2.2556,2.2786,2.2869,2.2882,2.2957,2.307,2.3095,2.3095,2.3095,2.3095,2.3095,2.3095,2.3095,2.3095,2.3095,2.3095,2.3095,2.3095,2.3095,2.3095,2.3095,2.2995,2.2932,2.3083,2.2944,2.2793,2.0977,2.068,2.1084,2.037,1.8926,1.8398,1.7955,1.7639,1.7334,1.7209,1.7229,1.7537,1.7827,1.8052,1.7787,1.7807,1.8072,1.7807,1.7807,1.8092,1.8092,1.8092,1.8072,1.7807,1.7666,1.7646,1.7353,1.7374,1.7626,1.736,1.7353,1.7659,1.7353,1.7051,1.6763,1.6591,1.6513,1.6513,1.6513,1.6513,1.6513,1.6513,1.6387,1.6158,1.6074,1.5921,1.5626,1.5536,1.5395,1.5171,1.4882,1.4483,1.3966,1.2833,1.1906,0.0,0.0,0.0,0.0,0.0,0.0,0.0,0.0,0.0,0.0,0.0,1.4783,1.4695,1.5768,1.6647,1.7137,1.7451,1.8204,1.961,1.951,1.9974,2.1669,2.1581,2.1732,2.2543,2.2644,2.2757,2.3058,2.3095,2.3095,2.3095,2.3095,2.2995,2.2744,2.292,2.3095,2.3095,2.3095,2.3095,2.3095,2.3095,2.3095,2.3095,2.3095,2.3095,2.3095,2.3095,2.3095,2.3095,2.3095,2.3095,2.3095,2.3095,2.3095,2.3095,2.3095,2.3095,2.3095,2.3095,2.3095,2.1767,2.1697,2.1862,2.1616,2.1049,1.9999,1.9426,1.919,1.8616,1.8345,1.8335,1.8252,1.8243,1.8288,1.823,1.8249,1.8302,1.823,1.823,1.8288,1.8302,1.8302,1.8302,1.823,1.8204,1.8204,1.8145,1.8145,1.819,1.8131,1.8145,1.819,1.8131,1.8092,1.8052,1.7167,1.671,1.6723,1.6637,1.6595,1.6595,1.6595,1.6389,1.5934,1.6266,1.6198,1.5631,1.5987,1.5987,1.5536,1.5581,1.5485,1.5127,1.4519,1.4165,0.0,1.3667,0.0,0.0,0.0,0.0,0.0,0.0,0.0,0.0,1.567,1.6494,1.6815,1.7502,1.8276,1.9156,1.9283,1.9749,2.0767,2.0893,2.132,2.2272,2.2393,2.2569,2.3045,2.3095,2.3095,2.3095,2.3095,2.3095,2.3095,2.3095,2.3083,2.3095,2.3095,2.3095,2.3095,2.3095,2.3095,2.3095,2.3095,2.3095,2.3095,2.3095,2.3095,2.3095,2.3095,2.3095,2.3095,2.3095,2.3095,2.3095,2.3095,2.3095,2.3095,2.3095,2.3095,2.3095,2.3095,2.3095,2.2207,2.1815,2.2809,2.2914,2.2351,2.2131,2.1215,1.9913,1.9767,1.9655,1.9518,1.8974,1.8987,1.9336,1.8949,1.8987,1.9384,1.8949,1.8968,1.9387,1.9387,1.9387,1.9369,1.8949,1.876,1.8727,1.8316,1.8322,1.8727,1.8308,1.8322,1.8741,1.8308,1.8092,1.8072,0.0,0.0,0.0,1.7374,1.7146,1.716,1.7146,1.7094,1.6997,1.6567,0.0,1.6149,1.5847,1.5603,1.5538,1.6017,0.0,0.0,0.0,0.0,0.0,0.0,0.0,0.0,0.0,0.0,0.0,1.7951,1.7791,1.7005,1.8741,1.9557,1.8754,1.9996,2.0769,2.0488,2.0859,2.134,2.193,2.1995,2.2272,2.2857,2.2975,2.3007,2.3083,2.3095,2.3095,2.3095,2.3095,2.3095,2.3095,2.3095,2.3095,2.3095,2.3095,2.3095,2.3095,2.3095,2.3095,2.3095,2.3095,2.3095,2.3095,2.3095,2.3095,2.3095,2.3095,2.3095,2.3095,2.3095,2.3095,2.3095,2.3095,2.3095,2.3095,2.3095,2.3095,2.3095,2.3095,2.3095,2.3431,0.0,2.3474,2.3406,0.0,2.3159,2.2632,2.1809,2.1166,2.066,2.0308,2.0284,2.0064,1.9705,1.976,1.9749,1.969,1.9406,1.9442,1.9708,1.9723,1.9723,1.9675,1.9424,1.9299,1.9295,1.9039,1.9024,1.9262,1.9006,1.9024,1.9281,1.9024,1.8893,1.8893,1.8893,1.8631,1.8092,1.7847,1.772,1.7706,1.772,1.7571,1.73,0.0,0.0,0.0,0.0,0.0,0.0,0.0,0.0,0.0,0.0,0.0,1.6838,1.7077,1.7226,1.7255,1.8095,1.8869,1.9445,2.0416,2.0473,1.9279,2.0251,2.0772,2.046,2.1499,2.2069,2.1792,2.2295,2.2842,2.3291,2.3059,2.3064,2.3533,2.3322,2.3095,2.3095,2.3095,2.3095,2.3095,2.3095,2.3095,2.3095,2.3095,2.3095,2.3095,2.3095,2.3095,2.3095,2.3095,2.3095,2.3095,2.3095,2.3095,2.3095,2.3095,2.3095,2.3095,2.3095,2.3095,2.3095,2.3095,2.3095,2.3095,2.3095,2.3095,2.3095,2.3095,2.3095,2.3095,2.3095,2.3095,2.4605,2.4545,2.3857,2.3595,2.3595,2.3595,2.3595,2.352,0.0,0.0,0.0,2.1515,2.11,2.0094,2.0528,2.0408,1.9869,1.9768,1.9723,1.9723,1.9723,1.9723,1.9723,1.9723,1.9723,1.9723,1.9723,1.9723,1.9723,1.9723,1.9723,1.9723,1.9723,1.9723,1.9723,1.9723,1.9277,1.8419,1.8269,1.823,1.823,1.823,1.8012,1.76,1.7997,1.7955,1.7423,1.7806,1.7835,1.741,1.75,1.7617,1.7725,1.8166,1.8579,1.9018,1.9442,1.9753,1.9869,2.0498,2.0972,2.1196,2.2218,2.232,2.1139,2.1246,2.1563,2.201,2.266,2.3063,2.3178,2.3674,2.4196,2.4609,2.4109,2.3976,2.4372,2.393,2.3531,2.3365,2.3365,2.3258,2.3125,2.3095,2.3095,2.3095,2.3095,2.3095,2.3095,2.3095,2.3095,2.3095,2.3095,2.3095,2.3095,2.3095,2.3095,2.3095,2.3095,2.3095,2.3095,2.3095,2.3095,2.3095,2.3095,2.3095,2.3095,2.3095,2.3095,2.3095,2.3095,2.3095,2.3095,2.3095,2.3095,2.4605,2.456,2.3879,2.3595,2.3595,2.3595,2.3595,2.3535,2.2868,2.2508,2.2388,2.1904,2.159,2.1395,2.0912,2.0658,2.0509,1.9959,1.9723,1.9723,1.9723,1.9723,1.9723,1.9723,1.9723,1.9723,1.9723,1.9723,1.9723,1.9723,1.9723,1.9723,1.9723,1.9723,1.9723,1.9723,1.9621,1.946,1.9024,1.8798,1.8784,1.8798,1.8755,1.8674,1.8621,1.8589,1.8497,1.8554,1.8554,1.8497,1.9021,1.9343,1.9363,1.9403,1.9498,1.957,1.9657,1.9944,2.0528,2.1201,2.2024,2.3071,2.337,2.2942,2.1765,2.2578,2.3275,2.3414,2.3929,2.4564,2.502,2.5188,2.5256,2.5299,2.5205,2.5176,2.5231,2.5091,2.4753,2.4192,2.4147,2.3855,2.3365,2.3215,2.3245,2.3155,2.3365,2.3155,2.3185,2.3095,2.3095,2.3095,2.3095,2.3095,2.3095,2.3095,2.3095,2.3095,2.3095,2.3095,2.3095,2.3095,2.3095,2.3095,2.3095,2.3095,2.3095,2.3095,2.3095,2.3095,2.3095,2.3095,2.3095,2.3095,2.3095,2.5689,2.557,2.4582,2.4163,2.4133,2.3759,2.3595,2.358,2.3317,2.2987,2.2718,2.2718,2.2158,2.1216,2.1216,2.0842,2.0139,1.9842,1.9723,1.9723,1.9723,1.9723,1.9723,1.9723,1.9723,1.9723,1.9723,1.9723,1.9723,1.9723,1.9723,1.9723,1.9723,1.9723,1.9723,1.9723,1.9723,1.969,1.946,1.9336,1.9317,1.9317,1.9317,1.9336,1.9269,1.9241,1.9226,1.9226,1.9241,1.9241,1.9525,1.9723,1.9723,1.9723,1.9854,2.0213,2.0243,2.0528,2.1216,2.1859,2.2643,2.352,2.3595,2.3367,2.279,2.3264,2.3769,2.4174,2.4766,2.5422,2.6036,2.6423,2.6605,2.6584,2.6256,2.6,2.5946,2.5618,2.5259,2.4951,2.4908,2.4766,2.441,2.4352,2.4352,2.4339,2.4352,2.4208,2.3813,2.4076,2.4018,2.3292,2.3095,2.3095,2.3095,2.3095,2.3095,2.3095,2.3095,2.3095,2.3095,2.3125,2.3125,2.3095,2.3125,2.3095,2.3125,2.3095,2.3095,2.3095,2.3095,2.3095,2.3095,2.3095,2.3095,2.6602,2.6482,2.5322,2.4754,2.456,2.3872,2.3595,2.3595,2.3595,2.334,2.3017,2.34,2.2757,2.147,2.162,2.1126,2.0202,1.9828,1.9723,1.9723,1.9723,1.9723,1.9723,1.9723,1.9723,1.9723,1.9723,1.9723,1.9723,1.9723,1.9723,1.9723,1.9723,1.9723,1.9723,1.9723,1.9723,1.9723,1.9723,1.9723,1.9723,1.9723,1.9723,1.9723,1.9708,1.9723,1.9723,1.9723,1.9723,1.9723,1.9723,1.9753,1.9914,1.9914,2.0213,2.0842,2.0946,2.1231,2.1874,2.2553,2.3107,2.3565,2.3744,2.3834,2.3849,2.3969,2.4268,2.4799,2.5442,2.6108,2.6727,2.7245,2.7585,2.756,2.7111,2.6774,2.6695,2.6242,2.581,2.5701,2.566,2.5591,2.5453,2.5398,2.5342,2.5315,2.5398,2.5147,2.4738,2.5063,2.4809,2.4063,2.3619,2.359,2.3412,2.3395,2.3424,2.3365,2.3395,2.3442,2.3442,2.3501,2.3514,2.3531,2.359,2.3725,2.3679,2.3514,2.3454,2.3454,2.3444,2.3333,2.3346,2.3346,2.3233,2.6602,2.6497,2.5824,2.5143,2.4545,2.3894,2.3595,2.3595,2.3595,2.358,2.349,2.3565,2.349,2.3191,2.2173,2.1605,2.135,2.0247,1.9738,1.9738,1.9723,1.9723,1.9723,1.9723,1.9723,1.9723,1.9723,1.9723,1.9723,1.9711,1.9723,1.9723,1.9723,1.9708,1.9723,1.9723,1.9723,1.9723,1.9723,1.9723,1.9723,1.9723,1.9723,1.9723,1.9723,1.9723,1.9723,1.9723,1.9723,1.9723,1.9723,1.9992,2.0494,2.0583,2.0897,2.1545,2.162,2.1889,2.2553,2.3182,2.352,2.364,2.4141,2.447,2.4515,2.5061,2.5435,2.5615,2.6108,2.6746,2.739,2.7555,2.7585,2.7585,2.7484,2.7499,2.7433,2.7448,2.7137,2.6484,2.639,2.6162,2.5701,2.5591,2.5508,2.5508,2.5646,2.5563,2.5384,2.5592,2.5647,2.53,2.5203,2.4893,2.4408,2.4205,2.4176,2.4176,2.4176,2.4176,2.425,2.461,2.5007,2.4308,2.4639,2.4909,2.4852,2.4696,2.4205,2.4184,2.4116,2.3959,2.3935,2.4008,2.3892,2.7195,2.7136,2.6467,2.5561,2.4575,2.3894,2.3595,2.3595,2.3595,2.3595,2.3638,2.3943,2.3724,2.3047,2.2523,2.2089,2.1635,2.0722,2.0303,2.0243,1.9902,1.9723,1.9723,1.9723,1.9723,1.9723,1.9723,1.9723,1.9762,1.9945,1.9929,1.9747,1.9927,1.9929,1.9726,1.9723,1.9723,1.9723,1.9723,1.9723,1.9723,1.9723,1.9723,1.9723,1.9723,1.9723,1.9723,1.9723,1.9723,1.9723,1.9723,2.0004,2.0658,2.0688,2.1186,2.2194,2.2622,2.2936,2.3191,2.3475,2.3595,2.3595,2.4216,2.4605,2.4649,2.5561,2.6198,2.6228,2.6437,2.6856,2.748,2.7585,2.7585,2.7585,2.7585,2.7585,2.7585,2.7585,2.7458,2.7203,2.7152,2.7034,2.6785,2.6692,2.6508,2.6269,2.6363,2.6496,2.619,2.6732,2.7072,2.6852,2.7012,2.6559,2.5355,2.4964,2.4964,2.4951,2.4951,2.4951,2.5021,2.5119,2.5259,2.4992,2.5315,2.5481,2.5301,2.5231,2.4964,2.4986,2.5326,2.5405,2.5418,2.5418,2.514,2.7585,2.749,2.6832,2.5998,2.5032,2.4335,2.4053,2.4032,2.4048,2.4053,2.4074,2.445,2.4182,2.3422,2.3203,2.2816,2.2332,2.1472,2.1091,2.1014,2.0373,2.0067,2.005,2.0035,2.005,2.0067,2.0085,2.0067,2.0102,2.033,2.0347,2.0139,2.0347,2.0347,2.0087,2.0067,2.005,2.0067,2.005,2.0067,2.0067,1.9927,1.9818,1.9726,1.9723,1.9723,1.9723,1.9723,1.9798,1.9959,1.9959,2.0363,2.1186,2.1261,2.1754,2.2823,2.334,2.3595,2.3595,2.3595,2.3595,2.367,2.4373,2.4874,2.5098,2.6108,2.6821,2.6881,2.6896,2.7136,2.748,2.7585,2.7585,2.7585,2.7585,2.7585,2.7585,2.7585,2.7585,2.7585,2.7509,2.7585,2.7585,2.7509,2.7306,2.6941,2.7229,2.7473,2.7085,2.7761,2.8286,2.775,2.8158,2.7721,2.6114,2.5701,2.5701,2.5701,2.5701,2.5701,2.5755,2.581,2.5796,2.5864,2.5919,2.6027,2.6215,2.6081,2.5675,2.5716,2.6034,2.6464,2.6454,2.6587,2.6383,2.7585,2.7505,2.675,2.6423,2.626,2.5451,2.5105,2.5028,2.5067,2.5105,2.5047,2.5144,2.5112,2.4981,2.4425,2.4108,2.3866,2.2665,2.2042,2.1946,2.126,2.0942,2.0958,2.0958,2.0926,2.0829,2.0829,2.0845,2.0894,2.0943,2.0959,2.091,2.0958,2.0943,2.0862,2.0845,2.0926,2.0845,2.0845,2.0894,2.0862,2.0499,2.0122,1.9818,1.9708,1.9723,1.9723,1.9723,1.9974,2.0613,2.0662,2.1231,2.2403,2.2583,2.2868,2.346,2.3565,2.3595,2.3595,2.3595,2.3625,2.3789,2.4769,2.5531,2.5606,2.6692,2.7405,2.7525,2.7465,2.7525,2.757,2.7585,2.7585,2.7585,2.7585,2.7585,2.7585,2.7585,2.7585,2.7585,2.7585,2.7585,2.7585,2.7585,2.756,2.7484,2.756,2.7534,2.7603,2.8132,2.8293,2.7989,2.8072,2.8106,2.6816,2.6443,2.6443,2.6457,2.6469,2.6443,2.668,2.6852,2.6759,2.6785,2.6956,2.7111,2.7255,2.7018,2.6513,2.6412,2.6554,2.6847,2.7498,2.7303,2.724,2.874,2.867,2.7993,2.7411,2.6904,2.6194,2.5618,2.5218,2.5202,2.5202,2.5259,2.5559,2.5723,2.5726,2.5787,2.546,2.4778,2.3845,2.3187,2.2721,2.2033,2.1455,2.1023,2.1007,2.1007,2.1007,2.1007,2.1007,2.1039,2.1244,2.126,2.1086,2.126,2.126,2.1055,2.1007,2.1007,2.1007,2.1007,2.1007,2.1007,2.0829,2.0682,2.0514,1.998,1.9723,1.9723,2.0094,2.0449,2.0688,2.1096,2.1754,2.2613,2.3077,2.3355,2.3565,2.3595,2.3595,2.3595,2.3595,2.3782,2.4246,2.5076,2.5856,2.6288,2.7061,2.7585,2.7585,2.7585,2.7585,2.7585,2.7585,2.7585,2.7585,2.7585,2.7585,2.7585,2.7585,2.7585,2.7585,2.7585,2.7585,2.7585,2.7585,2.7585,2.7585,2.7585,2.7585,2.7779,2.8498,2.8858,2.8094,2.8457,2.8767,2.7424,2.7229,2.7229,2.7203,2.7188,2.7163,2.7306,2.7306,2.7214,2.7163,2.7499,2.7549,2.7458,2.7397,2.6992,2.7181,2.7313,2.7794,2.8691,2.8613,2.8699,2.9406,2.9301,2.8861,2.838,2.783,2.7098,2.6491,2.6017,2.577,2.5691,2.5781,2.6068,2.6227,2.6279,2.6573,2.6367,2.5646,2.4974,2.4386,2.3863,2.3194,2.2606,2.2213,2.2132,2.2132,2.2148,2.2132,2.2034,2.1805,2.2035,2.1921,2.1494,2.1705,2.169,2.1462,2.1432,2.1415,2.1415,2.1432,2.1447,2.14,2.1276,2.1181,2.1135,2.0719,2.0354,2.0152,2.0796,2.1268,2.1528,2.2145,2.2808,2.3447,2.3907,2.4116,2.4116,2.4137,2.4116,2.4162,2.4336,2.4673,2.5142,2.5991,2.675,2.7187,2.7784,2.8055,2.7984,2.7885,2.786,2.7635,2.7585,2.7585,2.7585,2.7585,2.7585,2.7585,2.7585,2.7585,2.7585,2.7585,2.7585,2.7585,2.7585,2.7585,2.7585,2.7585,2.7585,2.775,2.8678,2.9142,2.8034,2.8753,2.8783,2.7902,2.7473,2.7503,2.7503,2.7458,2.7534,2.7585,2.7585,2.7585,2.7585,2.7585,2.7585,2.76,2.76,2.7735,2.7929,2.8185,2.8567,2.9362,3.0082,3.0024,2.9451,2.9488,2.9291,2.9222,2.9002,2.8223,2.7822,2.76,2.6978,2.6639,2.6673,2.6691,2.6624,2.6674,2.6674,2.6657,2.6472,2.5849,2.5495,2.5277,2.4702,2.4363,2.4196,2.4114,2.4114,2.4146,2.436,2.4005,2.3321,2.3302,2.3015,2.2456,2.2428,2.2481,2.2338,2.2348,2.229,2.2279,2.2216,2.2242,2.2254,2.1857,2.1679,2.1764,2.1924,2.1761,2.1167,2.1775,2.2426,2.3014,2.372,2.4481,2.4895,2.5051,2.5144,2.5067,2.5109,2.5144,2.5256,2.5743,2.6038,2.6484,2.7529,2.8162,2.8335,2.8844,2.9019,2.863,2.8487,2.831,2.786,2.7785,2.771,2.7585,2.7585,2.7585,2.7585,2.7585,2.7585,2.7585,2.7585,2.7585,2.7585,2.7585,2.7585,2.7585,2.7585,2.7585,2.769,2.8663,2.8843,2.8229,2.8528,2.8813,2.8199,2.763,2.7675,2.769,2.7604,2.7585,2.7585,2.7585,2.7585,2.7585,2.7585,2.7615,2.7929,2.7974,2.8214,2.8438,2.8816,2.9265,2.9894,3.0522,3.0868,3.0638,3.0625,3.0603,3.0264,2.9827,2.9492,2.911,2.8552,2.7791,2.7452,2.7368,2.6928,2.6708,2.6708,2.6708,2.6708,2.6674,2.642,2.6099,2.5642,2.5372,2.4983,2.4609,2.4525,2.4508,2.4508,2.4508,2.4389,2.4203,2.4152,2.4,2.3833,2.3765,2.3814,2.3714,2.3325,2.3054,2.3004,2.2564,2.2533,2.2936,2.2418,2.2559,2.3432,2.3225,2.308,2.3398,2.3501,2.3638,2.3861,2.4516,2.4997,2.5173,2.5202,2.5202,2.5202,2.5202,2.5477,2.5894,2.6238,2.6804,2.757,2.8212,2.8602,2.9012,2.9307,2.9361,2.9134,2.9111,2.8996,2.888,2.8834,2.8472,2.7685,2.7585,2.7635,2.7635,2.761,2.7585,2.7585,2.7585,2.7585,2.7585,2.7585,2.7585,2.7585,2.7585,2.7585,2.7735,2.8378,2.8562,2.7884,2.8457,2.8966,2.8547,2.8308,2.8368,2.8334,2.8184,2.8034,2.7944,2.775,2.772,2.7705,2.769,2.7854,2.8128,2.8308,2.8517,2.9071,2.9594,3.0028,3.0432,3.0793,3.1182,3.119,3.119,3.119,3.0937,3.048,3.0224,2.9837,2.9313,2.8586,2.8077,2.7739,2.7334,2.6945,2.6742,2.6708,2.6708,2.6708,2.6708,2.6454,2.6065,2.6015,2.5727,2.5337,2.532,2.5303,2.5303,2.532,2.5168,2.4914,2.4881,2.4746,2.4541,2.4508,2.4474,2.4474,2.4068,2.3831,2.3746,2.3359,2.3325,2.3628,2.3359,2.3545,2.4338,2.4306,2.4458,2.4884,2.5011,2.498,2.4898,2.5388,2.573,2.5762,2.5764,2.5764,2.5764,2.5813,2.6094,2.6763,2.72,2.7784,2.8796,2.9288,2.9615,2.9982,3.0081,3.0,2.9761,2.9739,2.9629,2.9451,2.9384,2.9019,2.84,2.8304,2.8174,2.8018,2.7934,2.7785,2.7685,2.7585,2.7585,2.7585,2.7585,2.7585,2.7585,2.7585,2.7585,2.7735,2.8158,2.8098,2.8229,2.8768,2.9011,2.9026,2.9026,2.9131,2.9026,2.8876,2.8783,2.8663,2.8304,2.8098,2.8154,2.8139,2.8468,2.8727,2.8562,2.8667,2.946,3.0298,3.0537,3.0808,3.1122,3.1436,3.119,3.119,3.119,3.1173,3.1055,3.048,3.0226,3.0057,2.9364,2.8687,2.8128,2.7807,2.7384,2.6877,2.6776,2.6708,2.6708,2.6708,2.6691,2.6607,2.6607,2.6505,2.6437,2.642,2.642,2.6505,2.6539,2.6251,2.5693,2.5659,2.5337,2.4863,2.4846,2.4677,2.4795,2.4626,2.4575,2.4541,2.444,2.4389,2.4508,2.4423,2.4541,2.4728,2.5186,2.5491,2.5728,2.6135,2.6252,2.5847,2.6236,2.6539,2.6641,2.6691,2.659,2.659,2.6691,2.7129,2.7822,2.8491,2.925,2.9986,3.0578,3.119,3.0998,3.0938,3.0797,3.0398,3.0335,3.0145,2.9739,2.9651,2.9585,2.9518,2.9316,2.9035,2.863,2.8559,2.8367,2.7968,2.7735,2.7735,2.7845,2.7795,2.776,2.7795,2.776,2.7625,2.7846,2.8247,2.8513,2.8757,2.9037,2.94,2.9505,2.9624,2.9774,3.0058,2.9819,2.9564,2.9307,2.8903,2.8637,2.8652,2.8697,2.9026,2.9265,2.919,2.9475,3.0283,3.0791,3.0928,3.1137,3.1391,3.1496,3.119,3.119,3.119,3.119,3.1173,3.097,3.0903,3.0818,3.0125,2.9668,2.9261,2.828,2.7722,2.7469,2.6928,2.6708,2.6708,2.6708,2.6708,2.6708,2.6708,2.6708,2.6708,2.6708,2.6708,2.6708,2.6691,2.659,2.642,2.6353,2.6251,2.6149,2.6014,2.6065,2.6082,2.5541,2.5321,2.5203,2.4745,2.4829,2.5169,2.4795,2.5066,2.6031,2.5795,2.593,2.6336,2.659,2.664,2.6454,2.6573,2.6708,2.6708,2.6725,2.6776,2.6826,2.7266,2.7858,2.8619,2.9347,3.0108,3.0801,3.1038,3.119,3.119,3.119,3.1112,3.0958,3.0975,3.0878,3.072,3.0679,3.0679,3.0617,3.0032,2.9429,2.9203,2.9157,2.9088,2.895,2.888,2.8834,2.874,2.8519,2.8415,2.8591,2.8271,2.7846,2.8252,2.8435,2.8774,2.8869,2.9142,2.9684,3.0058,3.0193,3.0477,3.0957,3.0823,3.0404,2.9998,2.9472,2.934,2.9325,2.931,2.9549,2.9939,3.0118,3.0687,3.0943,3.1152,3.1271,3.1316,3.1496,3.1496,3.119,3.119,3.119,3.119,3.119,3.119,3.119,3.1123,3.0768,3.0362,2.9888,2.8856,2.8111,2.7756,2.7046,2.6708,2.6708,2.6708,2.6708,2.6708,2.6708,2.6708,2.6708,2.6708,2.6708,2.6708,2.6708,2.6691,2.6691,2.6708,2.6708,2.664,2.6708,2.6708,2.6607,2.6319,2.6065,2.5998,2.5625,2.5675,2.5981,2.5675,2.5845,2.6522,2.6268,2.6319,2.6657,2.6708,2.6708,2.6691,2.6708,2.6708,2.6742,2.7012,2.7165,2.7215,2.7892,2.8636,2.933,2.9888,3.0412,3.1004,3.119,3.119,3.119,3.119,3.119,3.1171,3.119,3.119,3.119,3.119,3.1343,3.1463,3.0742,3.0075,2.9827,2.9783,2.9635,2.948,2.9406,2.9406,2.9406,2.9081,2.9104,2.9157,2.8857,2.8729,2.8863,2.8966,2.926,2.9681,3.0099,3.08,3.1324,3.152,3.1415,3.1822,3.1503,3.1144,3.0696,3.0141,3.0103,3.0088,3.0013,3.0103,3.0507,3.0776,3.0836,3.1062,3.1361,3.1496,3.1496,3.1496,3.1496,3.119,3.119,3.119,3.119,3.119,3.119,3.119,3.121,3.122,3.0862,3.023,2.9505,2.8879,2.801,2.7402,2.686,2.6843,2.6759,2.6708,2.6708,2.6708,2.6708,2.6708,2.6708,2.6708,2.6708,2.6708,2.6708,2.6708,2.6708,2.6708,2.6708,2.6708,2.6708,2.6691,2.664,2.6691,2.6623,2.6505,2.6454,2.6556,2.6471,2.6539,2.659,2.6657,2.659,2.6708,2.6793,2.6894,2.6843,2.681,2.6894,2.6962,2.7519,2.7874,2.806,2.8653,2.9397,2.9956,3.0156,3.0497,3.1072,3.119,3.119,3.119,3.119,3.119,3.119,3.119,3.1258,3.141,3.136,3.1732,3.2154,3.1773,3.1217,3.0775,3.0579,3.0269,2.9744,2.9694,2.9816,2.9617,2.9589,2.9659,2.993,2.9572,2.9404,2.9627,2.997,3.0541,3.127,3.1706,3.2196,3.2594,3.2929,3.2712,3.2637,3.2074,3.1654,3.1371,3.0985,3.0923,3.0838,3.0688,3.0793,3.1122,3.1227,3.1107,3.1167,3.1451,3.1496,3.1496,3.1496,3.1496,3.119,3.119,3.119,3.119,3.119,3.119,3.121,3.1252,3.1564,3.1406,3.0923,3.0518,3.0035,2.9484,2.8268,2.757,2.7572,2.7131,2.6708,2.6708,2.6708,2.6691,2.6725,2.6758,2.6725,2.6708,2.6708,2.6708,2.6708,2.6708,2.6708,2.6708,2.6708,2.6708,2.6708,2.6708,2.6708,2.6708,2.6708,2.6708,2.6708,2.6708,2.6708,2.6708,2.6708,2.6708,2.6843,2.7266,2.7553,2.757,2.7604,2.7655,2.7722,2.8315,2.8687,2.889,2.9431,2.9973,3.0176,3.0615,3.1004,3.114,3.119,3.119,3.119,3.119,3.119,3.1207,3.1207,3.1515,3.1989,3.2073,3.2446,3.2882,3.2949,3.2773,3.2669,3.2206,3.1528,3.1232,3.1687,3.2106,3.1007,3.0935,3.0896,3.0726,3.0465,3.0127,3.045,3.1014,3.1685,3.2494,3.2838,3.3221,3.351,3.3684,3.3391,3.3156,3.2652,3.216,3.1875,3.1635,3.1481,3.1386,3.1331,3.1466,3.1496,3.1481,3.1316,3.1436,3.1496,3.1496,3.1496,3.1496,3.1496,3.119,3.1213,3.1408,3.147,3.1507,3.1714,3.1805,3.1842,3.2021,3.2004,3.174,3.1288,3.0905,3.0612,2.9538,2.8983,2.8809,2.8187,2.7615,2.739,2.7288,2.7255,2.7239,2.721,2.7115,2.6808,2.6708,2.6708,2.6708,2.6708,2.6708,2.6708,2.6725,2.6708,2.6708,2.6708,2.6708,2.6708,2.6708,2.6708,2.6708,2.6708,2.6708,2.6708,2.6725,2.681,2.7266,2.7553,2.7959,2.8314,2.8652,2.8686,2.8517,2.9059,2.9465,2.9617,3.0192,3.0598,3.0768,3.0937,3.1173,3.119,3.119,3.119,3.119,3.119,3.1393,3.1613,3.1782,3.2002,3.2716,3.2814,3.3169,3.3643,3.3626,3.3558,3.3711,3.3271,3.2696,3.2425,3.282,3.2836,3.2517,3.224,3.2223,3.2089,3.2123,3.1841,3.1991,3.2494,3.2868,3.347,3.3786,3.4121,3.4382,3.4325,3.3912,3.3608,3.3235,3.2788,3.24,3.2139,3.1921,3.1781,3.1581,3.1481,3.1496,3.1496,3.1496,3.1496,3.1496,3.1496,3.1496,3.1496,3.1496,3.1389,3.1428,3.177,3.1915,3.1969,3.2316,3.2451,3.2467,3.2583,3.2534,3.2445,3.1872,3.1714,3.14,3.0747,3.0437,3.0067,2.9594,2.88,2.8132,2.8065,2.7927,2.7853,2.7707,2.7515,2.6906,2.6954,2.6971,2.6971,2.689,2.7019,2.6923,2.6825,2.6857,2.6825,2.6708,2.6708,2.6708,2.6708,2.6708,2.6776,2.6843,2.7012,2.7249,2.7266,2.7486,2.7943,2.8229,2.8517,2.9145,2.9854,2.9854,2.9685,2.9837,3.0258,3.0275,3.0818,3.1021,3.1055,3.1157,3.119,3.119,3.119,3.119,3.119,3.1376,3.1718,3.209,3.2378,3.2747,3.344,3.3558,3.3931,3.4387,3.41,3.41,3.437,3.4083,3.3761,3.3355,3.3677,3.3825,3.3541,3.3233,3.3364,3.3436,3.3453,3.3515,3.3594,3.373,3.3985,3.4289,3.462,3.4719,3.4965,3.4981,3.4568,3.426,3.3912,3.3521,3.3066,3.2826,3.2571,3.1951,3.171,3.1653,3.1611,3.1611,3.1582,3.1524,3.1496,3.1496,3.1496,3.1496,3.1496,3.2282,3.2282,3.2367,3.2366,3.2401,3.2484,3.255,3.2567,3.2934,3.2858,3.2564,3.276,3.2621,3.2238,3.1572,3.0914,3.0573,3.0249,2.976,2.9105,2.8963,2.8767,2.8358,2.8336,2.8042,2.7768,2.7798,2.7868,2.7636,2.7692,2.7545,2.7574,2.7417,2.7279,2.7201,2.694,2.7029,2.7114,2.7096,2.7096,2.7114,2.7522,2.8015,2.8458,2.8492,2.8661,2.8913,2.9384,2.9768,2.9973,3.0632,3.0855,3.0772,3.0891,3.092,3.0954,3.1055,3.119,3.119,3.119,3.119,3.119,3.119,3.119,3.1309,3.1752,3.2141,3.2547,3.3034,3.3558,3.4218,3.432,3.4675,3.5115,3.5228,3.5143,3.5245,3.5092,3.4602,3.3947,3.4399,3.4805,3.4387,3.41,3.4117,3.4044,3.396,3.4129,3.4337,3.4449,3.4611,3.4975,3.5397,3.543,3.5476,3.5447,3.527,3.5052,3.4712,3.4358,3.3987,3.3659,3.3245,3.2772,3.2256,3.1992,3.1923,3.1824,3.164,3.1553,3.1524,3.1524,3.1553,3.1582,3.1582,3.2871,3.2551,3.2761,3.2874,3.2905,3.3087,3.3163,3.3211,3.3404,3.339,3.3302,3.3404,3.3404,3.3117,3.2849,3.2213,3.1639,3.1472,3.1034,3.0437,3.0256,3.0134,2.9656,2.9638,2.9705,2.9723,2.9705,2.8923,2.8011,2.7883,2.8011,2.7961,2.8044,2.8228,2.8338,2.8547,2.833,2.8283,2.8364,2.8398,2.8234,2.8781,2.9328,2.9553,2.9727,2.9848,3.0282,3.0508,3.0977,3.1271,3.145,3.1511,3.1468,3.1332,3.121,3.123,3.121,3.121,3.119,3.119,3.119,3.119,3.1227,3.119,3.1376,3.1853,3.2649,3.341,3.4083,3.467,3.5047,3.5047,3.5267,3.5481,3.5616,3.5616,3.5616,3.5616,3.5109,3.4501,3.494,3.5177,3.5008,3.4844,3.4844,3.4704,3.4518,3.4687,3.4962,3.5064,3.5109,3.5295,3.56,3.56,3.56,3.56,3.5616,3.5492,3.5362,3.4988,3.4712,3.4309,3.4087,3.3811,3.3271,3.2772,3.2339,3.2299,3.1951,3.171,3.1923,3.2048,3.1796,3.1653,3.1739,3.3489,3.2793,3.3151,3.3317,3.3375,3.3648,3.3793,3.3807,3.3793,3.378,3.3807,3.3793,3.3793,3.3775,3.3688,3.3376,3.2839,3.2813,3.2324,3.1688,3.1541,3.1561,3.1384,3.1403,3.1187,3.096,3.1058,3.0418,2.9247,2.8905,2.8711,2.8939,2.9326,2.9454,2.9564,2.9751,2.999,2.9996,3.0059,3.011,3.0108,3.0304,3.063,3.0721,3.0756,3.103,3.1479,3.1569,3.1835,3.2104,3.2144,3.195,3.1897,3.164,3.1468,3.1447,3.137,3.1332,3.1351,3.1506,3.1582,3.1618,3.1579,3.1589,3.1837,3.255,3.3376,3.4506,3.5109,3.5464,3.5481,3.5566,3.5583,3.5583,3.5616,3.5616,3.5616,3.5616,3.5616,3.5397,3.5616,3.5498,3.5295,3.5278,3.5211,3.5211,3.5042,3.5092,3.5329,3.538,3.5447,3.5498,3.56,3.56,3.56,3.56,3.5616,3.5577,3.5492,3.5299,3.5098,3.4847,3.4728,3.4609,3.4447,3.3937,3.3365,3.2841,3.2652,3.2598,3.2652,3.2652,3.2544,3.2284,3.2188,3.4383,3.3666,3.3689,3.3721,3.3721,3.3762,3.3807,3.3807,3.3807,3.3807,3.3807,3.3807,3.3807,3.3807,3.3807,3.3733,3.3642,3.3495,3.3146,3.2522,3.2436,3.2155,3.1586,3.1403,3.1672,3.1745,3.1623,3.1317,3.0828,3.0797,3.0812,3.0748,3.0559,3.0698,3.0688,3.0804,3.026,3.03,3.0363,3.0683,3.1148,3.1335,3.1689,3.203,3.219,3.2222,3.2376,3.2394,3.2506,3.2528,3.2501,3.2417,3.2435,3.2418,3.235,3.223,3.2021,3.1751,3.1789,3.2004,3.2284,3.2336,3.2524,3.274,3.3091,3.3618,3.4444,3.5295,3.5566,3.56,3.5616,3.5616,3.5616,3.5616,3.5616,3.5616,3.5616,3.5616,3.5616,3.5616,3.5616,3.5616,3.5515,3.5549,3.5583,3.56,3.5616,3.5616,3.5616,3.5616,3.5616,3.5616,3.5616,3.5616,3.5616,3.5616,3.5616,3.5616,3.5577,3.5538,3.5385,3.523,3.5379,3.527,3.5138,3.4934,3.4374,3.3903,3.3572,3.3365,3.3297,3.3349,3.3427,3.313,3.2815,3.4802,3.4454,3.399,3.3807,3.3807,3.3807,3.3807,3.3807,3.3807,3.3807,3.3807,3.3807,3.3807,3.3807,3.3807,3.3807,3.3807,3.3807,3.366,3.333,3.322,3.3054,3.2871,3.2761,3.2755,3.2664,3.2761,3.2871,3.2559,3.1843,3.1403,3.1488,3.1733,3.1855,3.1887,3.2141,3.2134,3.2074,3.2014,3.2244,3.2629,3.2763,3.2893,3.3207,3.3192,3.3192,3.3211,3.324,3.324,3.3196,3.3057,3.2905,3.2827,3.2665,3.2484,3.2502,3.2599,3.2466,3.2299,3.2452,3.2782,3.3136,3.3406,3.374,3.442,3.4839,3.5286,3.5968,3.5744,3.5667,3.5667,3.5616,3.5616,3.56,3.5644,3.5616,3.5616,3.5616,3.5616,3.5616,3.5616,3.5616,3.5616,3.5616,3.5616,3.5616,3.5616,3.5616,3.5616,3.5616,3.5616,3.5616,3.5616,3.5616,3.5616,3.5616,3.5616,3.5616,3.5616,3.5577,3.56,3.5577,3.5616,3.5616,3.5447,3.527,3.5115,3.4704,3.4137,3.3987,3.3896,3.3962,3.4012,3.4111,3.3736,3.5004,3.4931,3.4137,3.3807,3.3807,3.3807,3.3807,3.3807,3.3807,3.3807,3.3807,3.3807,3.3807,3.3807,3.3807,3.3807,3.3807,3.3807,3.3807,3.3807,3.3807,3.3752,3.3605,3.3697,3.3697,3.3807,3.3568,3.3605,3.3311,3.2792,3.2173,3.2008,3.2625,3.2831,3.3041,3.3245,3.3359,3.3176,3.3179,3.3348,3.362,3.3711,3.3711,3.378,3.3807,3.3807,3.3807,3.378,3.3748,3.3675,3.349,3.3346,3.3302,3.3373,3.336,3.3499,3.3797,3.4029,3.3717,3.3631,3.3643,3.4056,3.4477,3.5101,3.5896,3.5964,3.5926,3.6586,3.6336,3.6122,3.5989,3.5963,3.5893,3.5827,3.5734,3.5667,3.5622,3.5667,3.5644,3.5616,3.5616,3.5616,3.5616,3.5616,3.5616,3.5616,3.5616,3.5616,3.5616,3.5616,3.5616,3.5616,3.5616,3.5616,3.5616,3.5616,3.5616,3.5616,3.5616,3.5616,3.5616,3.5616,3.5616,3.5616,3.5667,3.5532,3.5339,3.5028,3.4736,3.4712,3.4664,3.4544,3.456,3.4732,3.4644,3.5004,3.4931,3.4124,3.3807,3.3807,3.3807,3.3807,3.3807,3.3807,3.3807,3.3807,3.3807,3.3807,3.3807,3.3807,3.3807,3.3807,3.3807,3.3807,3.3807,3.3807,3.3807,3.3807,3.3807,3.3807,3.3807,3.3807,3.3807,3.3788,3.355,3.3421,3.366,3.3458,3.3605,3.366,3.3683,3.3793,3.3666,3.368,3.3694,3.3793,3.3807,3.3807,3.3807,3.3807,3.3807,3.3807,3.3807,3.3807,3.3788,3.3721,3.3826,3.3899,3.4207,3.4371,3.4739,3.5184,3.5491,3.5468,3.5071,3.5261,3.586,3.6336,3.6552,3.7059,3.7107,3.7117,3.7098,3.6867,3.6884,3.6786,3.6704,3.6395,3.6291,3.6182,3.6054,3.5963,3.5783,3.5761,3.5644,3.5616,3.5616,3.5616,3.5616,3.5616,3.5616,3.5616,3.5616,3.5616,3.5616,3.5616,3.5616,3.5616,3.5616,3.5616,3.5616,3.5616,3.5616,3.5616,3.5616,3.5616,3.5616,3.5616,3.5836,3.5926,3.5752,3.5752,3.5826,3.5817,3.5615,3.5492,3.5455,3.558,3.5837,3.5564,3.4266,3.4247,3.3935,3.3807,3.3807,3.3807,3.3807,3.3807,3.3807,3.3807,3.3807,3.3807,3.3807,3.3807,3.3807,3.3807,3.3807,3.3807,3.3807,3.3807,3.3807,3.3807,3.3807,3.3807,3.3807,3.3807,3.3807,3.3807,3.3807,3.3807,3.3807,3.3807,3.3807,3.3807,3.3807,3.3807,3.3807,3.3807,3.3807,3.3807,3.3807,3.3807,3.3807,3.3807,3.3807,3.3807,3.3807,3.3807,3.3807,3.3825,3.3844,3.4119,3.4509,3.4949,3.5353,3.5752,3.6248,3.6611,3.6868,3.6376,3.6211,3.6931,3.753,3.794,3.7981,3.7825,3.7685,3.756,3.7396,3.7359,3.7171,3.7001,3.6865,3.6843,3.6704,3.6522,3.6395,3.6207,3.6118,3.6118,3.5827,3.5616,3.5616,3.5616,3.5616,3.5616,3.5616,3.5616,3.5616,3.5616,3.5616,3.5616,3.5616,3.5616,3.5616,3.5616,3.5616,3.5616,3.5616,3.5616,3.5616,3.5616,3.5667,3.596,3.6366,3.6518,3.6705,3.6941,3.6857,3.6462,3.6428,3.6534,3.671,3.6884,3.6705,3.3807,3.3807,3.3807,3.3807,3.3807,3.3807,3.3807,3.3807,3.3807,3.3807,3.3807,3.3807,3.3807,3.3807,3.3807,3.3807,3.3807,3.3807,3.3807,3.3807,3.3807,3.3807,3.3807,3.3807,3.3807,3.3807,3.3807,3.3807,3.3807,3.3807,3.3807,3.3807,3.3807,3.3807,3.3807,3.3807,3.3807,3.3807,3.3807,3.3807,3.3807,3.3807,3.3807,3.3807,3.3807,3.3807,3.3807,3.3825,3.4009,3.4137,3.4307,3.4637,3.5151,3.5665,3.6064,3.6486,3.6927,3.729,3.7496,3.7477,3.7276,3.7848,3.823,3.8548,3.8578,3.835,3.8185,3.8133,3.7843,3.7614,3.7596,3.756,3.7433,3.736,3.7095,3.6921,3.6865,3.6746,3.6684,3.6623,3.6333,3.6139,3.5783,3.5783,3.5616,3.5616,3.5616,3.5616,3.5616,3.5616,3.5616,3.5616,3.5616,3.5616,3.5616,3.5616,3.5616,3.5616,3.5616,3.5616,3.5616,3.5684,3.596,3.6366,3.6823,3.7297,3.7483,3.7516,3.7398,3.7212,3.7263,3.7364,3.7476,3.7627,3.7984,3.3807,3.3807,3.3807,3.3807,3.3807,3.3807,3.3807,3.3807,3.3807,3.3807,3.3807,3.3807,3.3807,3.3807,3.3807,3.3807,3.3807,3.3807,3.3807,3.3807,3.3807,3.3807,3.3807,3.3807,3.3807,3.3807,3.3807,3.3807,3.3807,3.3807,3.3807,3.3807,3.3807,3.3807,3.3807,3.3807,3.3807,3.3807,3.3807,3.3807,3.3807,3.3807,3.3807,3.3807,3.399,3.4045,3.4064,3.4266,3.4559,3.4894,3.4986,3.544,3.6156,3.6798,3.7199,3.7437,3.812,3.8487,3.8597,3.8597,3.8505,3.8469,3.8634,3.8689,3.8707,3.8627,3.858,3.8465,3.8449,3.8515,3.8417,3.8218,3.7998,3.7843,3.7596,3.7487,3.7469,3.7267,3.7192,3.7097,3.7076,3.6941,3.6395,3.5985,3.5711,3.5616,3.5616,3.5616,3.5639,3.5616,3.5616,3.5616,3.5616,3.5616,3.5616,3.5616,3.5616,3.5616,3.565,3.5684,3.5943,3.6197,3.6502,3.6897,3.7438,3.8024,3.8041,3.799,3.8108,3.8261,3.8108,3.8142,3.8244,3.8422,3.878,3.3807,3.3807,3.3807,3.3807,3.3807,3.3807,3.3807,3.3807,3.3807,3.3807,3.3807,3.3807,3.3807,3.3807,3.3807,3.3807,3.3807,3.3807,3.3807,3.3807,3.3807,3.3807,3.3807,3.3807,3.3807,3.3807,3.3807,3.3807,3.3807,3.3807,3.3807,3.3807,3.3807,3.3807,3.3807,3.3807,3.3807,3.3807,3.3807,3.3807,3.3807,3.3807,3.3825,3.3844,3.4289,3.4546,3.4637,3.4981,3.5459,3.5789,3.5862,3.6266,3.6927,3.7547,3.7768,3.8083,3.867,3.8689,3.8707,3.867,3.8689,3.8707,3.8707,3.8707,3.8707,3.8707,3.8707,3.8707,3.8707,3.8707,3.8578,3.8546,3.8433,3.8415,3.8302,3.8285,3.8201,3.786,3.7631,3.7524,3.747,3.7078,3.6603,3.6661,3.647,3.6137,3.6142,3.5779,3.5678,3.5639,3.5616,3.5616,3.5616,3.5616,3.5633,3.5785,3.5921,3.6005,3.5938,3.5893,3.6197,3.6761,3.7354,3.7879,3.8311,3.8734,3.8836,3.8971,3.9283,3.9385,3.9089,3.9022,3.9157,3.9343,3.9606,3.4111,3.4111,3.4111,3.4111,3.4062,3.3895,3.3807,3.3807,3.3807,3.3807,3.3807,3.3807,3.3807,3.3807,3.3807,3.3807,3.3807,3.3807,3.3807,3.3807,3.3807,3.3807,3.3807,3.3807,3.3807,3.3807,3.3807,3.3807,3.3807,3.3807,3.3807,3.3807,3.3825,3.3807,3.3807,3.3807,3.3807,3.3807,3.3807,3.3807,3.3807,3.3844,3.394,3.427,3.4692,3.5114,3.55,3.5973,3.6468,3.6611,3.6813,3.7092,3.7624,3.7973,3.8193,3.856,3.8707,3.8707,3.8707,3.8707,3.8707,3.8707,3.8707,3.8707,3.8707,3.8707,3.8707,3.8707,3.8707,3.8707,3.8707,3.8707,3.8707,3.8673,3.8673,3.8643,3.8562,3.82,3.8152,3.8034,3.8005,3.7485,3.7154,3.7222,3.7345,3.7011,3.6693,3.6314,3.5965,3.5898,3.5915,3.5909,3.5881,3.5904,3.6028,3.6163,3.6299,3.6377,3.6434,3.6468,3.6975,3.7601,3.8227,3.8768,3.9089,3.9428,3.9808,4.0011,3.9893,3.9893,3.9859,3.9893,4.0096,4.0113,4.0113,3.4684,3.4694,3.4694,3.4663,3.4591,3.4099,3.39,3.386,3.3847,3.386,3.3873,3.3873,3.3847,3.381,3.3815,3.3807,3.3807,3.3807,3.3807,3.3807,3.3807,3.3807,3.3807,3.3807,3.3807,3.3807,3.3844,3.3899,3.388,3.4284,3.4266,3.4119,3.4321,3.4339,3.4302,3.4302,3.4229,3.4156,3.4321,3.4376,3.4449,3.4229,3.4596,3.4986,3.5371,3.5826,3.6211,3.6615,3.7019,3.7309,3.7547,3.7991,3.8395,3.867,3.8707,3.8707,3.8707,3.8707,3.8707,3.8707,3.8707,3.8707,3.8707,3.8707,3.8707,3.8707,3.8707,3.8707,3.8707,3.8707,3.8707,3.8707,3.8707,3.8707,3.8707,3.8692,3.8692,3.863,3.8669,3.8713,3.88,3.8573,3.8384,3.8389,3.8433,3.8105,3.7842,3.7638,3.7223,3.6563,3.6541,3.644,3.6407,3.6299,3.6451,3.6761,3.6907,3.707,3.7347,3.7466,3.799,3.8345,3.8768,3.9233,3.9706,4.0011,4.0079,4.0113,4.0079,4.0113,4.0113,4.0113,4.0113,4.0113,4.0113,3.4694,3.4694,3.4694,3.4694,3.4674,3.4508,3.445,3.4428,3.4195,3.4183,3.4409,3.3979,3.3954,3.4068,3.3889,3.3847,3.382,3.3807,3.3807,3.382,3.3847,3.382,3.3852,3.3897,3.3852,3.3889,3.3957,3.4288,3.4757,3.5124,3.5459,3.5605,3.533,3.5404,3.544,3.555,3.5183,3.4949,3.5183,3.5275,3.5385,3.5349,3.5661,3.5881,3.6358,3.6762,3.7088,3.7624,3.8028,3.8212,3.8322,3.8579,3.8615,3.8707,3.8707,3.8707,3.8707,3.8707,3.8707,3.8707,3.8707,3.8707,3.8707,3.8707,3.8707,3.8707,3.8707,3.8707,3.8707,3.8707,3.8707,3.8707,3.8707,3.8707,3.8707,3.8707,3.8744,3.8891,3.9001,3.9557,3.9658,3.9768,3.957,3.9659,3.9635,3.9309,3.9108,3.9005,3.8547,3.7909,3.7473,3.7374,3.734,3.7353,3.7363,3.7621,3.7692,3.778,3.8091,3.8345,3.8633,3.8954,3.9283,3.9605,3.9926,4.0062,4.0096,4.0113,4.0113,4.0113,4.0113,4.0113,4.0113,4.0113,4.0113,3.5027,3.5008,3.5016,3.5008,3.5008,3.5008,3.5008,3.4935,3.4574,3.4529,3.4624,3.4318,3.4237,3.4341,3.4117,3.3974,3.3961,3.3855,3.3807,3.3834,3.3928,3.3961,3.4011,3.4346,3.4722,3.4668,3.487,3.538,3.5744,3.5942,3.6229,3.6193,3.6285,3.6317,3.6303,3.6427,3.6483,3.6211,3.6156,3.6285,3.634,3.6376,3.6468,3.6835,3.7364,3.7584,3.7951,3.8542,3.8652,3.8707,3.8707,3.8707,3.8707,3.8707,3.8707,3.8707,3.8707,3.8707,3.8707,3.8707,3.8707,3.8707,3.8707,3.8707,3.8707,3.8707,3.8707,3.8707,3.8707,3.8707,3.8707,3.8707,3.8707,3.8707,3.8707,3.8707,3.8854,3.9038,3.9591,4.029,4.0595,4.0771,4.0853,4.0943,4.0887,4.06,4.0745,4.1088,4.0354,3.9332,3.8892,3.8639,3.8581,3.8577,3.8591,3.8685,3.8792,3.8908,3.9005,3.9242,3.9402,3.9486,3.9714,3.9884,4.0062,4.0113,4.0113,4.0113,4.0113,4.0113,4.0113,4.0113,4.0113,4.0113,4.0113,3.5474,3.5467,3.55,3.5453,3.55,3.5453,3.5453,3.5446,3.4953,3.4764,3.4803,3.4723,3.4663,3.4653,3.4401,3.4265,3.4225,3.4099,3.4043,3.3895,3.4153,3.426,3.4551,3.5149,3.5232,3.5818,3.6201,3.618,3.667,3.7013,3.7114,3.655,3.68,3.7017,3.7188,3.7483,3.7579,3.7491,3.7092,3.689,3.6762,3.6688,3.6817,3.7456,3.7749,3.79,3.845,3.8689,3.8707,3.8707,3.8707,3.8707,3.8707,3.8707,3.8707,3.8707,3.8707,3.8707,3.8707,3.8707,3.8707,3.8707,3.8707,3.8707,3.8707,3.8707,3.8707,3.8707,3.8707,3.8707,3.8707,3.8707,3.8707,3.8836,3.8927,3.9019,3.9203,3.9698,4.0634,4.1279,4.1741,4.1896,4.1916,4.1995,4.2105,4.186,4.1949,4.2517,4.2104,4.0903,4.0438,4.006,3.9922,3.9935,3.9935,4.0007,4.006,4.013,4.0127,4.0185,4.0369,4.0292,4.012,4.0121,4.0113,4.0113,4.0113,4.0113,4.0113,4.0113,4.0113,4.0113,4.0113,4.0113,4.0113,3.55,3.55,3.55,3.55,3.55,3.55,3.55,3.55,3.5376,3.5308,3.525,3.4945,3.4822,3.4935,3.4695,3.4553,3.454,3.4431,3.4483,3.445,3.454,3.4572,3.463,3.5112,3.5501,3.578,3.6187,3.7039,3.7786,3.8339,3.8739,3.8721,3.8609,3.8459,3.8434,3.8715,3.8586,3.8549,3.8237,3.7956,3.796,3.8073,3.8303,3.8377,3.8432,3.8395,3.8707,3.8707,3.8707,3.8707,3.8707,3.8707,3.8707,3.8707,3.8707,3.8707,3.8707,3.8707,3.8707,3.8707,3.8707,3.8707,3.8707,3.8707,3.8707,3.8707,3.8707,3.8707,3.8707,3.8707,3.8707,3.8707,3.8726,3.8946,3.9239,3.9405,3.9588,4.0598,4.1625,4.2231,4.2782,4.2892,4.2892,4.2983,4.3167,4.3167,4.3113,4.3261,4.3189,4.245,4.2085,4.1713,4.1395,4.134,4.1268,4.1147,4.1077,4.1098,4.1073,4.1211,4.1308,4.0891,4.0473,4.0204,4.0113,4.0113,4.0113,4.0113,4.0113,4.0113,4.0113,4.0113,4.0113,4.0113,4.0113,3.55,3.55,3.55,3.55,3.55,3.55,3.55,3.55,3.55,3.5712,3.589,3.5406,3.5157,3.5242,3.499,3.4927,3.4898,3.4724,3.4653,3.4684,3.4851,3.4879,3.4983,3.5276,3.6249,3.668,3.7555,3.8433,3.8953,3.9203,3.95,3.9634,3.9634,3.9634,3.958,3.9401,3.9333,3.9283,3.9136,3.9073,3.9027,3.8888,3.8719,3.8707,3.8707,3.8723,3.8707,3.8707,3.8707,3.8707,3.8707,3.8707,3.8707,3.8707,3.8707,3.8707,3.8707,3.8707,3.8689,3.8707,3.8707,3.8707,3.8707,3.8707,3.8707,3.8707,3.8707,3.8707,3.8707,3.8707,3.8707,3.8707,3.8707,3.8836,3.9478,3.9937,4.0598,4.1552,4.2323,4.2873,4.3222,4.324,4.324,4.324,4.3369,4.3369,4.3479,4.3479,4.3479,4.3479,4.3286,4.3069,4.2562,4.2284,4.2116,4.1999,4.1911,4.194,4.1937,4.1746,4.1556,4.1155,4.078,4.0521,4.0262,4.0113,4.0113,4.0154,4.0121,4.0113,4.0113,4.0113,4.0113,4.0113,4.0113,3.55,3.55,3.55,3.55,3.55,3.55,3.55,3.5519,3.5635,3.6038,3.6558,3.6101,3.5846,3.5724,3.5434,3.5359,3.5247,3.5084,3.4917,3.4926,3.507,3.5122,3.5452,3.5948,3.6738,3.7808,3.8826,3.928,3.969,3.9832,3.9832,3.9716,3.9712,3.9724,3.9712,3.9668,3.9656,3.9634,3.9571,3.9552,3.9364,3.9114,3.8956,3.8848,3.8777,3.8747,3.8747,3.8704,3.8704,3.8803,3.8859,3.8931,3.8927,3.8956,3.8931,3.8927,3.8844,3.8815,3.8773,3.875,3.8704,3.8707,3.8707,3.8707,3.8726,3.8744,3.8744,3.8744,3.8744,3.8836,3.8836,3.8927,3.8927,3.9239,3.9992,4.0761,4.1644,4.2415,4.291,4.3424,4.3442,4.3479,4.3479,4.3479,4.3479,4.3479,4.3479,4.3479,4.3479,4.3479,4.341,4.3339,4.3123,4.294,4.2826,4.2713,4.258,4.2542,4.2465,4.2165,4.1895,4.1707,4.138,4.0827,4.0601,4.0417,4.0336,4.0368,4.0286,4.0262,4.0336,4.0368,4.0113,4.0113,4.0113,3.55,3.55,3.55,3.55,3.55,3.55,3.55,3.5615,3.6173,3.6596,3.6834,3.7392,3.7526,3.7488,3.669,3.6319,3.6044,3.5656,3.5396,3.5383,3.5327,3.5376,3.5616,3.6118,3.6762,3.7951,3.9176,3.9709,4.0061,4.0211,4.0292,4.0266,4.0274,4.0274,4.0257,4.0157,4.0002,3.9953,3.9789,3.9712,3.9668,3.9505,3.9469,3.932,3.9152,3.9058,3.8971,3.8803,3.8855,3.9013,3.9218,3.9314,3.9327,3.9314,3.9301,3.9242,3.9136,3.9054,3.9017,3.8859,3.8803,3.8765,3.8768,3.8799,3.8854,3.8927,3.8927,3.8891,3.8982,3.9258,3.9368,3.9606,3.9735,4.0506,4.1258,4.1992,4.28,4.3039,4.3296,4.3461,4.3479,4.3479,4.3479,4.3479,4.3479,4.3479,4.3479,4.3479,4.3479,4.3479,4.3479,4.3479,4.3479,4.3479,4.3321,4.3232,4.3123,4.3123,4.3032,4.2753,4.258,4.2519,4.2121,4.149,4.1064,4.081,4.0756,4.075,4.0756,4.078,4.0774,4.0679,4.036,4.0113,4.0113]}]]